Darstellungsparameter: Aktuell verwendete Einstellungen:
Skalierung der Graphiken ... ?
xyx+y,   Skalierungsfaktor:      Skalierung: Modus: x, Faktor: 1
Darstellungszeitraum ... ?
Vom - - bis: - -   Zeitraum: 06.03.2019 - 03.04.2019
Min/Max/Avg-Anzeige ... ?
Zeige MMA aktuell
Zeige MMA Monat
Zeige MMA alles
Zeige --A aktuell
Zeige --A Monat
Zeige --A alles
Keine MMA-Anzeige
MMA:
Keine MMA-Graphiken
MMA-Basis: 06.03.2019 - 03.04.2019
Quicknavigation für Darstellung... ?
Tage:      1T, 2T, 3T, 5T -1T -2T -3T -5T +1T +2T +3T +5T
Wochen: 1W, 2W, 3W -1W -2W -3W +1W +2W +3W
Monate: 1M, 3M, 6M -1M -3M -6M +1M +3M +6M
Jahre:    1J, 3J, 5J, 10J -1J -3J -5J -10J +1J +3J +5J +10J
Nutze für die Darstellung ... ?
Originaldaten oder Mittelwerte auf ...
Stundenbasis Tagesbasis Wochenbasis
Monatsbasis Jahresbasis      Datenbasis: Original-Daten
Darstellen als:
Statistik (Auto) Statistik J:M      Darstellung:
Zur Graphik,    zurück zur Übersicht aller Sensoren.
 
Tabellarische Datenbersicht: ?
 
Sensor: Nr:Datum:Temp:Feuchte:
Aussen-T/F 1 06-03-2019 00:06:18 5 C 45 %
2 06-03-2019 00:18:17 5 C 45 %
3 06-03-2019 00:30:17 5.2 C 44 %
4 06-03-2019 00:42:17 5.2 C 43 %
5 06-03-2019 00:54:17 5.5 C 44 %
6 06-03-2019 01:06:18 5.6 C 44 %
7 06-03-2019 01:18:17 5.5 C 42 %
8 06-03-2019 01:30:17 5.5 C 43 %
9 06-03-2019 01:42:17 5.6 C 44 %
10 06-03-2019 01:54:17 6.2 C 44 %
11 06-03-2019 02:06:17 6.4 C 41 %
12 06-03-2019 02:18:17 6.5 C 40 %
13 06-03-2019 02:30:17 6.6 C 39 %
14 06-03-2019 02:42:17 6.7 C 38 %
15 06-03-2019 02:54:17 6.5 C 39 %
16 06-03-2019 03:06:18 6.4 C 40 %
17 06-03-2019 03:18:17 6.2 C 41 %
18 06-03-2019 03:30:17 6.1 C 42 %
19 06-03-2019 03:42:17 6.1 C 43 %
20 06-03-2019 03:54:17 6.1 C 44 %
21 06-03-2019 04:06:18 6 C 44 %
22 06-03-2019 04:18:17 5.8 C 45 %
23 06-03-2019 04:30:17 5.8 C 46 %
24 06-03-2019 04:42:17 6.4 C 46 %
25 06-03-2019 04:54:17 6.4 C 43 %
Sensor: Nr:Datum:Temp:Feuchte:
Aussen-T/F 26 06-03-2019 05:06:17 6.5 C 42 %
27 06-03-2019 05:18:17 6.6 C 41 %
28 06-03-2019 05:30:17 6.5 C 41 %
29 06-03-2019 05:42:17 6.2 C 41 %
30 06-03-2019 05:54:17 5.8 C 43 %
31 06-03-2019 06:06:17 6.1 C 43 %
32 06-03-2019 06:18:17 5.6 C 42 %
33 06-03-2019 06:30:18 5.2 C 42 %
34 06-03-2019 06:42:18 4.5 C 45 %
35 06-03-2019 06:54:17 5.2 C 47 %
36 06-03-2019 07:06:17 4.5 C 46 %
37 06-03-2019 07:18:17 4.1 C 47 %
38 06-03-2019 07:30:17 4.2 C 50 %
39 06-03-2019 07:42:17 4.4 C 51 %
40 06-03-2019 07:54:17 4.6 C 51 %
41 06-03-2019 08:06:17 5 C 50 %
42 06-03-2019 08:18:17 5.6 C 49 %
43 06-03-2019 08:30:17 6.4 C 42 %
44 06-03-2019 08:42:17 6.8 C 38 %
45 06-03-2019 08:54:17 7.3 C 32 %
46 06-03-2019 09:06:17 7.6 C 31 %
47 06-03-2019 09:18:17 7.8 C 31 %
48 06-03-2019 09:30:17 8.2 C 30 %
49 06-03-2019 09:42:17 8.4 C 28 %
50 06-03-2019 09:54:17 8.9 C 28 %
Sensor: Nr:Datum:Temp:Feuchte:
Aussen-T/F 51 06-03-2019 10:06:17 9.8 C 26 %
52 06-03-2019 10:18:17 10.4 C 20 %
53 06-03-2019 10:30:17 10.8 C 20 %
54 06-03-2019 10:42:17 10.8 C 20 %
55 06-03-2019 10:54:17 10.9 C 20 %
56 06-03-2019 11:06:17 11.7 C 20 %
57 06-03-2019 11:18:18 12.4 C 20 %
58 06-03-2019 11:30:17 14.1 C 20 %
59 06-03-2019 11:42:17 13.7 C 20 %
60 06-03-2019 11:54:17 14.2 C 20 %
61 06-03-2019 12:06:18 13.5 C 20 %
62 06-03-2019 12:18:17 13.5 C 20 %
63 06-03-2019 12:30:17 13.2 C 20 %
64 06-03-2019 12:42:17 13.2 C 20 %
65 06-03-2019 12:54:17 13.4 C 20 %
66 06-03-2019 13:06:18 13.6 C 20 %
67 06-03-2019 13:18:17 13.8 C 20 %
68 06-03-2019 13:30:17 13.7 C 20 %
69 06-03-2019 13:42:17 13.7 C 20 %
70 06-03-2019 13:54:17 13.7 C 20 %
71 06-03-2019 14:06:18 13.7 C 20 %
72 06-03-2019 14:18:17 13.6 C 20 %
73 06-03-2019 14:30:17 13.7 C 20 %
74 06-03-2019 14:42:17 14.3 C 20 %
75 06-03-2019 14:54:17 14.5 C 20 %
Sensor: Nr:Datum:Temp:Feuchte:
Aussen-T/F 76 06-03-2019 15:06:17 14.5 C 20 %
77 06-03-2019 15:18:17 14.5 C 20 %
78 06-03-2019 15:30:17 14.6 C 20 %
79 06-03-2019 15:42:17 14.5 C 20 %
80 06-03-2019 15:54:17 14.6 C 20 %
81 06-03-2019 16:06:17 14.8 C 20 %
82 06-03-2019 16:18:17 15.1 C 20 %
83 06-03-2019 16:30:17 15.3 C 20 %
84 06-03-2019 16:42:17 14.6 C 20 %
85 06-03-2019 16:54:17 12.4 C 20 %
86 06-03-2019 17:06:17 12.2 C 25 %
87 06-03-2019 17:18:17 12.3 C 26 %
88 06-03-2019 17:30:17 13.1 C 20 %
89 06-03-2019 17:42:17 13.1 C 20 %
90 06-03-2019 17:54:17 12.8 C 20 %
91 06-03-2019 18:06:17 12.1 C 20 %
92 06-03-2019 18:18:17 12.2 C 20 %
93 06-03-2019 18:30:17 11.7 C 25 %
94 06-03-2019 18:42:17 11.7 C 25 %
95 06-03-2019 18:54:17 11.2 C 25 %
96 06-03-2019 19:06:17 10.7 C 29 %
97 06-03-2019 19:18:17 10.5 C 31 %
98 06-03-2019 19:30:17 10.1 C 33 %
99 06-03-2019 19:42:17 10.2 C 34 %
100 06-03-2019 19:54:17 9.9 C 36 %
Sensor: Nr:Datum:Temp:Feuchte:
Aussen-T/F 101 06-03-2019 20:06:17 10 C 35 %
102 06-03-2019 20:18:17 9.8 C 37 %
103 06-03-2019 20:30:17 9.6 C 37 %
104 06-03-2019 20:42:17 9.5 C 38 %
105 06-03-2019 20:54:17 10 C 36 %
106 06-03-2019 21:06:17 10.1 C 33 %
107 06-03-2019 21:18:17 10.1 C 33 %
108 06-03-2019 21:30:17 10.1 C 34 %
109 06-03-2019 21:42:17 10.1 C 34 %
110 06-03-2019 21:54:17 9.9 C 35 %
111 06-03-2019 22:06:18 10 C 35 %
112 06-03-2019 22:18:17 10.1 C 34 %
113 06-03-2019 22:30:17 10 C 34 %
114 06-03-2019 22:42:17 10 C 33 %
115 06-03-2019 22:54:17 9.9 C 34 %
116 06-03-2019 23:06:17 9.7 C 36 %
117 06-03-2019 23:18:17 9.6 C 36 %
118 06-03-2019 23:30:17 10.2 C 31 %
119 06-03-2019 23:42:17 10.1 C 31 %
120 06-03-2019 23:54:17 9.8 C 33 %
121 07-03-2019 00:06:17 9.5 C 38 %
122 07-03-2019 00:18:17 9.8 C 36 %
123 07-03-2019 00:30:17 9.6 C 37 %
124 07-03-2019 00:42:18 9.3 C 40 %
125 07-03-2019 00:54:17 9.8 C 39 %
Sensor: Nr:Datum:Temp:Feuchte:
Aussen-T/F 126 07-03-2019 01:06:17 9.8 C 40 %
127 07-03-2019 01:18:17 9.8 C 41 %
128 07-03-2019 01:30:17 9.9 C 41 %
129 07-03-2019 01:42:17 9.9 C 43 %
130 07-03-2019 01:54:17 9.7 C 45 %
131 07-03-2019 02:06:17 9.5 C 48 %
132 07-03-2019 02:18:17 9 C 49 %
133 07-03-2019 02:30:17 8.5 C 51 %
134 07-03-2019 02:42:17 8.7 C 52 %
135 07-03-2019 02:54:17 8.8 C 53 %
136 07-03-2019 03:06:17 8.7 C 52 %
137 07-03-2019 03:18:17 8.6 C 52 %
138 07-03-2019 03:30:18 8.6 C 51 %
139 07-03-2019 03:42:18 8.7 C 50 %
140 07-03-2019 03:54:17 8.6 C 49 %
141 07-03-2019 04:06:17 9 C 44 %
142 07-03-2019 04:18:17 9.5 C 42 %
143 07-03-2019 04:30:17 9.5 C 38 %
144 07-03-2019 04:42:17 9.5 C 37 %
145 07-03-2019 04:54:17 9.1 C 37 %
146 07-03-2019 05:06:17 9.8 C 35 %
147 07-03-2019 05:19:17 10 C 32 %
148 07-03-2019 05:30:17 10.6 C 29 %
149 07-03-2019 05:42:17 11 C 28 %
150 07-03-2019 05:54:17 11.5 C 26 %
Sensor: Nr:Datum:Temp:Feuchte:
Aussen-T/F 151 07-03-2019 06:06:17 11.4 C 26 %
152 07-03-2019 06:18:17 11.6 C 24 %
153 07-03-2019 06:30:18 11.2 C 24 %
154 07-03-2019 06:42:18 11.2 C 23 %
155 07-03-2019 06:55:17 11.2 C 23 %
156 07-03-2019 07:06:17 11 C 24 %
157 07-03-2019 07:18:18 11 C 22 %
158 07-03-2019 07:31:17 10.8 C 22 %
159 07-03-2019 07:42:17 10.5 C 20 %
160 07-03-2019 07:54:17 10.4 C 20 %
161 07-03-2019 08:06:17 10.3 C 20 %
162 07-03-2019 08:19:17 10.2 C 21 %
163 07-03-2019 08:30:17 10.2 C 22 %
164 07-03-2019 08:42:17 10.1 C 25 %
165 07-03-2019 08:54:17 10.4 C 25 %
166 07-03-2019 09:06:17 10 C 26 %
167 07-03-2019 09:19:17 10 C 26 %
168 07-03-2019 09:30:17 9.1 C 34 %
169 07-03-2019 09:42:17 9.5 C 31 %
170 07-03-2019 09:54:17 9.6 C 30 %
171 07-03-2019 10:07:17 9.8 C 29 %
172 07-03-2019 10:19:17 9.7 C 30 %
173 07-03-2019 10:30:17 10 C 28 %
174 07-03-2019 10:42:17 10.5 C 28 %
175 07-03-2019 10:54:17 10.2 C 28 %
Sensor: Nr:Datum:Temp:Feuchte:
Aussen-T/F 176 07-03-2019 11:07:17 8.8 C 37 %
177 07-03-2019 11:19:17 9.2 C 34 %
178 07-03-2019 11:30:17 9.7 C 30 %
179 07-03-2019 11:42:17 9.7 C 28 %
180 07-03-2019 11:55:17 10 C 25 %
181 07-03-2019 12:07:17 10 C 22 %
182 07-03-2019 12:18:17 10.2 C 20 %
183 07-03-2019 12:30:18 10.4 C 20 %
184 07-03-2019 12:42:18 10.5 C 20 %
185 07-03-2019 12:55:17 11.4 C 20 %
186 07-03-2019 13:07:17 11.5 C 20 %
187 07-03-2019 13:18:18 12.2 C 20 %
188 07-03-2019 13:31:17 12 C 20 %
189 07-03-2019 13:43:17 12.1 C 20 %
190 07-03-2019 13:55:17 10.8 C 20 %
191 07-03-2019 14:06:17 8.6 C 31 %
192 07-03-2019 14:19:17 9.1 C 29 %
193 07-03-2019 14:31:17 10 C 26 %
194 07-03-2019 14:43:17 10.5 C 22 %
195 07-03-2019 14:55:17 11.2 C 20 %
196 07-03-2019 15:06:17 11.4 C 20 %
197 07-03-2019 15:19:17 11.4 C 20 %
198 07-03-2019 15:31:17 9.7 C 20 %
199 07-03-2019 15:43:17 8.9 C 31 %
200 07-03-2019 15:55:17 8.4 C 32 %
Sensor: Nr:Datum:Temp:Feuchte:
Aussen-T/F 201 07-03-2019 16:07:17 9.1 C 32 %
202 07-03-2019 16:19:17 9.7 C 29 %
203 07-03-2019 16:31:17 9.9 C 25 %
204 07-03-2019 16:43:17 10.1 C 20 %
205 07-03-2019 16:55:17 9.5 C 26 %
206 07-03-2019 17:07:18 10.1 C 25 %
207 07-03-2019 17:19:17 10 C 20 %
208 07-03-2019 17:31:17 10.6 C 20 %
209 07-03-2019 17:43:18 9.5 C 20 %
210 07-03-2019 17:55:17 10.5 C 20 %
211 07-03-2019 18:06:18 10.4 C 20 %
212 07-03-2019 18:19:17 9.2 C 20 %
213 07-03-2019 18:31:17 9.1 C 20 %
214 07-03-2019 18:43:17 8.9 C 20 %
215 07-03-2019 18:55:17 8.5 C 20 %
216 07-03-2019 19:07:17 8.3 C 23 %
217 07-03-2019 19:19:17 7.8 C 28 %
218 07-03-2019 19:31:17 7.7 C 28 %
219 07-03-2019 19:43:17 7.3 C 32 %
220 07-03-2019 19:55:17 7.5 C 30 %
221 07-03-2019 20:06:18 8.1 C 25 %
222 07-03-2019 20:19:17 8.2 C 25 %
223 07-03-2019 20:31:17 8.5 C 21 %
224 07-03-2019 20:43:17 8.5 C 21 %
225 07-03-2019 20:55:18 8.6 C 21 %
Sensor: Nr:Datum:Temp:Feuchte:
Aussen-T/F 226 07-03-2019 21:07:17 8.6 C 20 %
227 07-03-2019 21:19:17 8.5 C 21 %
228 07-03-2019 21:31:17 8.9 C 20 %
229 07-03-2019 21:43:18 8.8 C 20 %
230 07-03-2019 21:55:17 8.8 C 20 %
231 07-03-2019 22:07:17 8.9 C 20 %
232 07-03-2019 22:19:18 8.9 C 20 %
233 07-03-2019 22:31:17 8.6 C 20 %
234 07-03-2019 22:43:17 8.5 C 21 %
235 07-03-2019 22:55:17 8.4 C 20 %
236 07-03-2019 23:07:17 8.1 C 21 %
237 07-03-2019 23:19:17 7.9 C 25 %
238 07-03-2019 23:31:17 8.1 C 23 %
239 07-03-2019 23:43:17 8.2 C 23 %
240 07-03-2019 23:55:18 7.6 C 28 %
241 08-03-2019 00:07:17 7.6 C 29 %
242 08-03-2019 00:19:17 7 C 35 %
243 08-03-2019 00:31:18 6.3 C 40 %
244 08-03-2019 00:43:18 5.9 C 42 %
245 08-03-2019 00:55:17 5.5 C 45 %
246 08-03-2019 01:07:17 5.7 C 45 %
247 08-03-2019 01:19:17 6 C 41 %
248 08-03-2019 01:31:17 6.1 C 40 %
249 08-03-2019 01:43:17 6.5 C 36 %
250 08-03-2019 01:55:17 7.2 C 32 %
Sensor: Nr:Datum:Temp:Feuchte:
Aussen-T/F 251 08-03-2019 02:07:17 7.4 C 27 %
252 08-03-2019 02:19:17 7.7 C 26 %
253 08-03-2019 02:31:17 7.8 C 25 %
254 08-03-2019 02:43:17 7.8 C 21 %
255 08-03-2019 02:55:18 7.8 C 21 %
256 08-03-2019 03:07:17 7.8 C 21 %
257 08-03-2019 03:19:17 7.8 C 20 %
258 08-03-2019 03:31:17 7.6 C 20 %
259 08-03-2019 03:43:17 7.8 C 20 %
260 08-03-2019 03:55:17 7.5 C 20 %
261 08-03-2019 04:07:17 7.4 C 21 %
262 08-03-2019 04:19:17 7.6 C 21 %
263 08-03-2019 04:31:17 7.5 C 21 %
264 08-03-2019 04:43:17 7.5 C 23 %
265 08-03-2019 04:55:17 7.5 C 23 %
266 08-03-2019 05:07:17 7.4 C 23 %
267 08-03-2019 05:19:17 7.2 C 25 %
268 08-03-2019 05:31:17 7.2 C 25 %
269 08-03-2019 05:43:18 7.2 C 26 %
270 08-03-2019 05:55:18 7.1 C 26 %
271 08-03-2019 06:07:17 7 C 26 %
272 08-03-2019 06:19:17 7 C 27 %
273 08-03-2019 06:31:17 7.1 C 26 %
274 08-03-2019 06:43:17 7.2 C 26 %
275 08-03-2019 06:55:17 7.1 C 27 %
Sensor: Nr:Datum:Temp:Feuchte:
Aussen-T/F 276 08-03-2019 07:07:17 7.1 C 27 %
277 08-03-2019 07:19:17 7.1 C 27 %
278 08-03-2019 07:31:17 7.3 C 27 %
279 08-03-2019 07:43:17 7.4 C 27 %
280 08-03-2019 07:55:17 7.4 C 27 %
281 08-03-2019 08:07:18 7.4 C 28 %
282 08-03-2019 08:19:17 7.4 C 28 %
283 08-03-2019 08:31:17 7.5 C 28 %
284 08-03-2019 08:43:17 7.5 C 29 %
285 08-03-2019 08:55:17 7.4 C 30 %
286 08-03-2019 09:07:18 7.4 C 31 %
287 08-03-2019 09:19:17 7.3 C 32 %
288 08-03-2019 09:31:17 6.9 C 36 %
289 08-03-2019 09:43:17 6.6 C 40 %
290 08-03-2019 09:55:17 6.5 C 41 %
291 08-03-2019 10:07:18 6.5 C 40 %
292 08-03-2019 10:19:17 7.4 C 35 %
293 08-03-2019 10:31:17 7.7 C 30 %
294 08-03-2019 10:43:17 8.2 C 27 %
295 08-03-2019 10:55:17 8.4 C 27 %
296 08-03-2019 11:07:18 8.1 C 27 %
297 08-03-2019 11:19:17 8.3 C 26 %
298 08-03-2019 11:31:17 8.9 C 25 %
299 08-03-2019 11:43:17 9 C 21 %
300 08-03-2019 11:55:17 9.5 C 20 %
Sensor: Nr:Datum:Temp:Feuchte:
Aussen-T/F 301 08-03-2019 12:07:18 9.9 C 20 %
302 08-03-2019 12:19:17 8.8 C 20 %
303 08-03-2019 12:31:17 8.9 C 20 %
304 08-03-2019 12:43:17 9.1 C 20 %
305 08-03-2019 12:55:17 9.5 C 20 %
306 08-03-2019 13:07:17 9.2 C 20 %
307 08-03-2019 13:19:17 9.2 C 20 %
308 08-03-2019 13:31:17 9.8 C 20 %
309 08-03-2019 13:43:17 9.9 C 20 %
310 08-03-2019 13:55:17 10 C 20 %
311 08-03-2019 14:07:17 10 C 20 %
312 08-03-2019 14:19:17 9.7 C 20 %
313 08-03-2019 14:31:17 10.1 C 20 %
314 08-03-2019 14:43:17 10.2 C 20 %
315 08-03-2019 14:55:17 10.8 C 20 %
316 08-03-2019 15:07:17 11 C 20 %
317 08-03-2019 15:19:17 11.2 C 20 %
318 08-03-2019 15:31:17 11.8 C 20 %
319 08-03-2019 15:43:17 11.8 C 20 %
320 08-03-2019 15:55:17 10.5 C 20 %
321 08-03-2019 16:07:17 10.1 C 20 %
322 08-03-2019 16:19:17 10 C 20 %
323 08-03-2019 16:31:17 11.1 C 20 %
324 08-03-2019 16:43:18 9.7 C 20 %
325 08-03-2019 16:55:17 9.8 C 20 %
Sensor: Nr:Datum:Temp:Feuchte:
Aussen-T/F 326 08-03-2019 17:07:17 9 C 20 %
327 08-03-2019 17:19:17 8.7 C 21 %
328 08-03-2019 17:31:17 8.4 C 27 %
329 08-03-2019 17:43:17 8.1 C 30 %
330 08-03-2019 17:55:17 7.4 C 33 %
331 08-03-2019 18:07:17 6.9 C 38 %
332 08-03-2019 18:19:17 6.9 C 37 %
333 08-03-2019 18:31:17 6.7 C 37 %
334 08-03-2019 18:43:17 6.5 C 37 %
335 08-03-2019 18:55:18 6.3 C 40 %
336 08-03-2019 19:07:17 6.4 C 41 %
337 08-03-2019 19:19:17 6.4 C 41 %
338 08-03-2019 19:31:18 6.1 C 41 %
339 08-03-2019 19:43:18 6 C 42 %
340 08-03-2019 19:55:17 5.9 C 43 %
341 08-03-2019 20:07:17 5.6 C 43 %
342 08-03-2019 20:19:18 5.5 C 45 %
343 08-03-2019 20:31:17 5.4 C 45 %
344 08-03-2019 20:43:17 5.4 C 45 %
345 08-03-2019 20:55:17 5.6 C 46 %
346 08-03-2019 21:07:17 5.9 C 45 %
347 08-03-2019 21:19:18 6 C 42 %
348 08-03-2019 21:31:17 6.2 C 40 %
349 08-03-2019 21:43:17 6.1 C 40 %
350 08-03-2019 21:55:17 6.5 C 36 %
Sensor: Nr:Datum:Temp:Feuchte:
Aussen-T/F 351 08-03-2019 22:07:17 6.4 C 36 %
352 08-03-2019 22:19:18 6.2 C 36 %
353 08-03-2019 22:31:17 6.5 C 35 %
354 08-03-2019 22:43:17 7.1 C 30 %
355 08-03-2019 22:55:17 7.5 C 28 %
356 08-03-2019 23:07:17 7.8 C 26 %
357 08-03-2019 23:19:17 7.4 C 27 %
358 08-03-2019 23:31:18 7.7 C 26 %
359 08-03-2019 23:43:18 7.5 C 27 %
360 08-03-2019 23:55:17 7.7 C 25 %
361 09-03-2019 00:07:17 7.7 C 25 %
362 09-03-2019 00:19:17 7.8 C 25 %
363 09-03-2019 00:31:18 8 C 23 %
364 09-03-2019 00:43:18 8.3 C 20 %
365 09-03-2019 00:55:17 8.2 C 20 %
366 09-03-2019 01:07:17 8.5 C 20 %
367 09-03-2019 01:19:17 8.5 C 20 %
368 09-03-2019 01:31:17 8.7 C 20 %
369 09-03-2019 01:43:17 8.8 C 20 %
370 09-03-2019 01:55:17 8.9 C 20 %
371 09-03-2019 02:07:17 8.9 C 20 %
372 09-03-2019 02:19:17 9 C 20 %
373 09-03-2019 02:31:17 9 C 20 %
374 09-03-2019 02:43:17 9 C 20 %
375 09-03-2019 02:55:17 9 C 20 %
Sensor: Nr:Datum:Temp:Feuchte:
Aussen-T/F 376 09-03-2019 03:07:17 8.8 C 20 %
377 09-03-2019 03:19:17 8.7 C 20 %
378 09-03-2019 03:31:17 8.6 C 23 %
379 09-03-2019 03:43:17 8.3 C 26 %
380 09-03-2019 03:55:17 7.9 C 30 %
381 09-03-2019 04:07:17 7.5 C 33 %
382 09-03-2019 04:19:17 7.3 C 35 %
383 09-03-2019 04:31:17 7.3 C 35 %
384 09-03-2019 04:43:17 7.4 C 35 %
385 09-03-2019 04:55:17 7.2 C 36 %
386 09-03-2019 05:07:17 7.3 C 37 %
387 09-03-2019 05:19:17 7.3 C 38 %
388 09-03-2019 05:31:17 7.1 C 39 %
389 09-03-2019 05:43:17 7.1 C 40 %
390 09-03-2019 05:55:17 7.2 C 40 %
391 09-03-2019 06:07:17 7.5 C 40 %
392 09-03-2019 06:19:17 7.5 C 40 %
393 09-03-2019 06:31:17 7.6 C 40 %
394 09-03-2019 06:43:17 7.7 C 40 %
395 09-03-2019 06:55:17 7.8 C 40 %
396 09-03-2019 07:07:18 8 C 39 %
397 09-03-2019 07:19:17 8.1 C 38 %
398 09-03-2019 07:31:17 8.3 C 37 %
399 09-03-2019 07:43:17 8.6 C 35 %
400 09-03-2019 07:55:17 8.4 C 35 %
Sensor: Nr:Datum:Temp:Feuchte:
Aussen-T/F 401 09-03-2019 08:07:17 8.9 C 34 %
402 09-03-2019 08:19:17 9 C 33 %
403 09-03-2019 08:31:17 9 C 33 %
404 09-03-2019 08:43:17 9.5 C 32 %
405 09-03-2019 08:55:17 9.8 C 31 %
406 09-03-2019 09:07:17 9.8 C 31 %
407 09-03-2019 09:19:17 9.8 C 31 %
408 09-03-2019 09:31:17 9.8 C 32 %
409 09-03-2019 09:43:18 9.9 C 31 %
410 09-03-2019 09:55:17 9.9 C 31 %
411 09-03-2019 10:07:17 10 C 30 %
412 09-03-2019 10:19:17 10.2 C 28 %
413 09-03-2019 10:31:18 10.2 C 27 %
414 09-03-2019 10:43:18 10.2 C 28 %
415 09-03-2019 10:55:17 10.1 C 28 %
416 09-03-2019 11:07:17 10.3 C 27 %
417 09-03-2019 11:19:17 10.5 C 27 %
418 09-03-2019 11:31:18 10.6 C 27 %
419 09-03-2019 11:43:18 11 C 25 %
420 09-03-2019 11:55:17 11.2 C 25 %
421 09-03-2019 12:07:17 11.2 C 23 %
422 09-03-2019 12:19:17 11.3 C 24 %
423 09-03-2019 12:31:17 11.5 C 23 %
424 09-03-2019 12:43:18 12.1 C 20 %
425 09-03-2019 12:55:17 11.8 C 21 %
Sensor: Nr:Datum:Temp:Feuchte:
Aussen-T/F 426 09-03-2019 13:07:17 12.1 C 21 %
427 09-03-2019 13:19:17 12.3 C 20 %
428 09-03-2019 13:31:17 12.7 C 20 %
429 09-03-2019 13:43:17 12.5 C 20 %
430 09-03-2019 13:55:18 12.8 C 20 %
431 09-03-2019 14:07:17 13.1 C 20 %
432 09-03-2019 14:19:17 13.3 C 20 %
433 09-03-2019 14:31:18 13.4 C 20 %
434 09-03-2019 14:43:18 13.5 C 20 %
435 09-03-2019 14:55:17 12.8 C 20 %
436 09-03-2019 15:07:17 13 C 20 %
437 09-03-2019 15:19:17 12.9 C 20 %
438 09-03-2019 15:31:18 13.2 C 20 %
439 09-03-2019 15:43:18 14.1 C 20 %
440 09-03-2019 15:55:17 13.7 C 20 %
441 09-03-2019 16:07:17 13.5 C 20 %
442 09-03-2019 16:19:17 13 C 20 %
443 09-03-2019 16:31:17 13.4 C 20 %
444 09-03-2019 16:43:17 13.1 C 20 %
445 09-03-2019 16:55:17 13.2 C 20 %
446 09-03-2019 17:07:17 13.5 C 20 %
447 09-03-2019 17:19:17 12.7 C 20 %
448 09-03-2019 17:31:17 13.2 C 20 %
449 09-03-2019 17:43:17 12.7 C 20 %
450 09-03-2019 17:55:17 12.3 C 20 %
Sensor: Nr:Datum:Temp:Feuchte:
Aussen-T/F 451 09-03-2019 18:07:17 11.8 C 20 %
452 09-03-2019 18:19:17 11.7 C 20 %
453 09-03-2019 18:31:17 11.6 C 20 %
454 09-03-2019 18:43:17 11.7 C 20 %
455 09-03-2019 18:55:17 11.7 C 20 %
456 09-03-2019 19:07:18 10.7 C 20 %
457 09-03-2019 19:19:17 10.2 C 20 %
458 09-03-2019 19:31:17 9.6 C 27 %
459 09-03-2019 19:43:17 9.5 C 28 %
460 09-03-2019 19:55:17 9.2 C 30 %
461 09-03-2019 20:07:18 9 C 30 %
462 09-03-2019 20:19:17 9.1 C 31 %
463 09-03-2019 20:31:17 9 C 32 %
464 09-03-2019 20:43:17 9 C 32 %
465 09-03-2019 20:55:17 9 C 32 %
466 09-03-2019 21:07:17 9.3 C 28 %
467 09-03-2019 21:19:17 9.7 C 26 %
468 09-03-2019 21:31:18 9.2 C 32 %
469 09-03-2019 21:43:18 8.9 C 35 %
470 09-03-2019 21:55:17 8.7 C 35 %
471 09-03-2019 22:07:17 8.7 C 36 %
472 09-03-2019 22:19:17 8.8 C 36 %
473 09-03-2019 22:31:17 9.6 C 23 %
474 09-03-2019 22:43:17 10 C 20 %
475 09-03-2019 22:55:17 10.1 C 20 %
Sensor: Nr:Datum:Temp:Feuchte:
Aussen-T/F 476 09-03-2019 23:07:18 10 C 20 %
477 09-03-2019 23:19:17 10 C 20 %
478 09-03-2019 23:31:17 10 C 20 %
479 09-03-2019 23:43:17 10 C 20 %
480 09-03-2019 23:55:17 9.8 C 20 %
481 10-03-2019 00:07:17 9.8 C 20 %
482 10-03-2019 00:19:17 9.8 C 20 %
483 10-03-2019 00:31:17 9.7 C 20 %
484 10-03-2019 00:43:17 9.3 C 20 %
485 10-03-2019 00:55:17 9.3 C 20 %
486 10-03-2019 01:07:17 9.3 C 20 %
487 10-03-2019 01:19:17 9.2 C 20 %
488 10-03-2019 01:31:17 9.2 C 20 %
489 10-03-2019 01:43:17 9 C 20 %
490 10-03-2019 01:55:17 9.1 C 20 %
491 10-03-2019 02:07:17 9 C 20 %
492 10-03-2019 02:19:18 9 C 20 %
493 10-03-2019 02:31:17 9 C 20 %
494 10-03-2019 02:43:17 9.1 C 20 %
495 10-03-2019 02:55:17 9.1 C 20 %
496 10-03-2019 03:07:17 8.9 C 21 %
497 10-03-2019 03:19:17 8.5 C 25 %
498 10-03-2019 03:31:17 8.2 C 26 %
499 10-03-2019 03:43:17 7.7 C 30 %
500 10-03-2019 03:55:17 7.6 C 33 %
Sensor: Nr:Datum:Temp:Feuchte:
Aussen-T/F 501 10-03-2019 04:07:17 7.8 C 33 %
502 10-03-2019 04:19:17 7.3 C 37 %
503 10-03-2019 04:31:17 7.1 C 42 %
504 10-03-2019 04:43:17 7 C 44 %
505 10-03-2019 04:55:17 6.8 C 46 %
506 10-03-2019 05:07:17 6.9 C 49 %
507 10-03-2019 05:19:17 6.9 C 52 %
508 10-03-2019 05:31:17 6.8 C 53 %
509 10-03-2019 05:43:17 6.9 C 54 %
510 10-03-2019 05:55:18 6.8 C 54 %
511 10-03-2019 06:07:17 6.9 C 54 %
512 10-03-2019 06:19:18 7.1 C 53 %
513 10-03-2019 06:31:17 6.8 C 54 %
514 10-03-2019 06:43:17 6.7 C 53 %
515 10-03-2019 06:55:17 6.7 C 54 %
516 10-03-2019 07:07:18 6.9 C 54 %
517 10-03-2019 07:19:17 7.1 C 54 %
518 10-03-2019 07:31:17 7.2 C 54 %
519 10-03-2019 07:43:17 7.4 C 54 %
520 10-03-2019 07:55:17 7.4 C 54 %
521 10-03-2019 08:07:17 7.6 C 54 %
522 10-03-2019 08:19:17 8 C 54 %
523 10-03-2019 08:31:17 8.7 C 55 %
524 10-03-2019 08:43:17 9 C 53 %
525 10-03-2019 08:55:17 9.4 C 48 %
Sensor: Nr:Datum:Temp:Feuchte:
Aussen-T/F 526 10-03-2019 09:07:17 9.7 C 46 %
527 10-03-2019 09:19:17 10 C 43 %
528 10-03-2019 09:31:17 10.3 C 43 %
529 10-03-2019 09:43:17 11 C 41 %
530 10-03-2019 09:55:17 11.2 C 40 %
531 10-03-2019 10:07:18 11.4 C 40 %
532 10-03-2019 10:19:17 11.6 C 40 %
533 10-03-2019 10:31:17 11.7 C 40 %
534 10-03-2019 10:43:17 12.6 C 39 %
535 10-03-2019 10:55:17 12.7 C 35 %
536 10-03-2019 11:07:17 12.9 C 31 %
537 10-03-2019 11:19:17 13.3 C 25 %
538 10-03-2019 11:31:17 13.1 C 21 %
539 10-03-2019 11:43:17 13.3 C 21 %
540 10-03-2019 11:55:18 13.6 C 20 %
541 10-03-2019 12:07:17 13.9 C 20 %
542 10-03-2019 12:19:17 14 C 20 %
543 10-03-2019 12:31:18 14.2 C 20 %
544 10-03-2019 12:43:18 13.9 C 20 %
545 10-03-2019 12:55:17 14 C 20 %
546 10-03-2019 13:07:17 13.7 C 20 %
547 10-03-2019 13:19:17 13.7 C 20 %
548 10-03-2019 13:31:17 14.5 C 20 %
549 10-03-2019 13:43:17 14.8 C 20 %
550 10-03-2019 13:55:17 14.8 C 20 %
Sensor: Nr:Datum:Temp:Feuchte:
Aussen-T/F 551 10-03-2019 14:07:17 14.5 C 20 %
552 10-03-2019 14:19:17 14.2 C 20 %
553 10-03-2019 14:31:17 14.1 C 20 %
554 10-03-2019 14:43:17 13.9 C 20 %
555 10-03-2019 14:55:17 13.7 C 20 %
556 10-03-2019 15:07:17 13.5 C 20 %
557 10-03-2019 15:19:17 13.2 C 20 %
558 10-03-2019 15:31:17 13.4 C 20 %
559 10-03-2019 15:43:17 13.6 C 20 %
560 10-03-2019 15:55:17 13.4 C 20 %
561 10-03-2019 16:07:18 12.8 C 20 %
562 10-03-2019 16:19:17 12.2 C 20 %
563 10-03-2019 16:31:18 12.2 C 20 %
564 10-03-2019 16:43:18 12.1 C 20 %
565 10-03-2019 16:55:17 11.7 C 20 %
566 10-03-2019 17:07:17 11.7 C 20 %
567 10-03-2019 17:19:17 11.1 C 20 %
568 10-03-2019 17:31:17 9.1 C 20 %
569 10-03-2019 17:43:17 9 C 20 %
570 10-03-2019 17:55:17 8.7 C 20 %
571 10-03-2019 18:07:18 8.7 C 20 %
572 10-03-2019 18:19:17 6.5 C 31 %
573 10-03-2019 18:31:18 6.4 C 33 %
574 10-03-2019 18:43:18 6.1 C 35 %
575 10-03-2019 18:55:17 6 C 33 %
Sensor: Nr:Datum:Temp:Feuchte:
Aussen-T/F 576 10-03-2019 19:07:17 6.4 C 30 %
577 10-03-2019 19:19:17 6.3 C 30 %
578 10-03-2019 19:31:18 6.6 C 27 %
579 10-03-2019 19:43:18 6.6 C 26 %
580 10-03-2019 19:55:17 6.8 C 21 %
581 10-03-2019 20:07:17 6.9 C 20 %
582 10-03-2019 20:19:17 5.4 C 20 %
583 10-03-2019 20:31:17 5.1 C 20 %
584 10-03-2019 20:43:17 5 C 23 %
585 10-03-2019 20:55:17 5 C 25 %
586 10-03-2019 21:07:17 4.8 C 26 %
587 10-03-2019 21:19:17 4.7 C 27 %
588 10-03-2019 21:31:17 4.7 C 26 %
589 10-03-2019 21:43:17 4.9 C 25 %
590 10-03-2019 21:55:17 4.5 C 25 %
591 10-03-2019 22:07:17 4.3 C 26 %
592 10-03-2019 22:19:17 4.7 C 26 %
593 10-03-2019 22:31:17 4.8 C 26 %
594 10-03-2019 22:43:17 4.7 C 27 %
595 10-03-2019 22:55:17 4.5 C 28 %
596 10-03-2019 23:07:17 4.3 C 29 %
597 10-03-2019 23:19:17 4.6 C 27 %
598 10-03-2019 23:31:17 4.6 C 26 %
599 10-03-2019 23:43:17 4.3 C 27 %
600 10-03-2019 23:55:17 4.1 C 26 %
Sensor: Nr:Datum:Temp:Feuchte:
Aussen-T/F 601 11-03-2019 00:07:17 3.8 C 29 %
602 11-03-2019 00:19:17 3.3 C 31 %
603 11-03-2019 00:31:17 3.6 C 30 %
604 11-03-2019 00:43:17 3.3 C 31 %
605 11-03-2019 00:55:18 3.7 C 30 %
606 11-03-2019 01:07:17 3.8 C 28 %
607 11-03-2019 01:19:17 3.7 C 28 %
608 11-03-2019 01:31:18 3.5 C 29 %
609 11-03-2019 01:43:18 4.2 C 25 %
610 11-03-2019 01:55:17 4.3 C 23 %
611 11-03-2019 02:07:17 4.7 C 23 %
612 11-03-2019 02:19:17 4.7 C 25 %
613 11-03-2019 02:31:17 4.3 C 27 %
614 11-03-2019 02:43:17 4.3 C 28 %
615 11-03-2019 02:55:17 4.3 C 28 %
616 11-03-2019 03:07:17 4.4 C 29 %
617 11-03-2019 03:19:17 3 C 33 %
618 11-03-2019 03:31:17 1.5 C 41 %
619 11-03-2019 03:43:17 1.2 C 47 %
620 11-03-2019 03:55:17 1.3 C 51 %
621 11-03-2019 04:07:18 1.5 C 54 %
622 11-03-2019 04:19:17 1.6 C 55 %
623 11-03-2019 04:31:17 1.7 C 56 %
624 11-03-2019 04:43:17 1.5 C 55 %
625 11-03-2019 04:55:17 1.5 C 55 %
Sensor: Nr:Datum:Temp:Feuchte:
Aussen-T/F 626 11-03-2019 05:07:17 1.5 C 55 %
627 11-03-2019 05:19:17 1.2 C 52 %
628 11-03-2019 05:31:17 1.2 C 51 %
629 11-03-2019 05:43:17 1.2 C 51 %
630 11-03-2019 05:55:17 1.2 C 49 %
631 11-03-2019 06:07:18 0.8 C 48 %
632 11-03-2019 06:19:17 0.6 C 50 %
633 11-03-2019 06:31:17 0.6 C 52 %
634 11-03-2019 06:43:17 0.5 C 54 %
635 11-03-2019 06:55:17 0.5 C 54 %
636 11-03-2019 07:07:17 0.6 C 56 %
637 11-03-2019 07:19:17 0.7 C 56 %
638 11-03-2019 07:31:17 0.8 C 57 %
639 11-03-2019 07:43:17 1.1 C 55 %
640 11-03-2019 07:55:17 1.3 C 55 %
641 11-03-2019 08:07:17 1.2 C 54 %
642 11-03-2019 08:19:17 1.2 C 54 %
643 11-03-2019 08:31:18 1.8 C 53 %
644 11-03-2019 08:43:18 2.3 C 50 %
645 11-03-2019 08:55:17 2.7 C 44 %
646 11-03-2019 09:07:17 3.1 C 34 %
647 11-03-2019 09:19:18 3.3 C 32 %
648 11-03-2019 09:31:17 2.7 C 34 %
649 11-03-2019 09:43:17 2.4 C 38 %
650 11-03-2019 09:55:17 2.6 C 39 %
Sensor: Nr:Datum:Temp:Feuchte:
Aussen-T/F 651 11-03-2019 10:07:17 3.2 C 37 %
652 11-03-2019 10:19:17 3.9 C 36 %
653 11-03-2019 10:31:17 3.7 C 34 %
654 11-03-2019 10:43:17 3.5 C 33 %
655 11-03-2019 10:55:17 3.7 C 32 %
656 11-03-2019 11:07:18 4.3 C 31 %
657 11-03-2019 11:19:17 4.4 C 30 %
658 11-03-2019 11:31:17 5.8 C 27 %
659 11-03-2019 11:43:17 5.2 C 23 %
660 11-03-2019 11:55:18 5.1 C 21 %
661 11-03-2019 12:07:17 5 C 21 %
662 11-03-2019 12:19:17 5.2 C 20 %
663 11-03-2019 12:31:17 5.5 C 20 %
664 11-03-2019 12:43:17 5.6 C 20 %
665 11-03-2019 12:55:17 5.9 C 20 %
666 11-03-2019 13:07:17 5.6 C 20 %
667 11-03-2019 13:19:17 5.9 C 20 %
668 11-03-2019 13:31:17 6 C 20 %
669 11-03-2019 13:43:17 6.4 C 20 %
670 11-03-2019 13:55:17 6.1 C 20 %
671 11-03-2019 14:07:17 6.1 C 20 %
672 11-03-2019 14:19:17 6.7 C 20 %
673 11-03-2019 14:31:17 6.8 C 20 %
674 11-03-2019 14:43:17 7 C 20 %
675 11-03-2019 14:55:17 7.2 C 20 %
Sensor: Nr:Datum:Temp:Feuchte:
Aussen-T/F 676 11-03-2019 15:07:17 7.3 C 20 %
677 11-03-2019 15:19:17 7.2 C 20 %
678 11-03-2019 15:31:17 7.7 C 20 %
679 11-03-2019 15:43:17 7.4 C 20 %
680 11-03-2019 15:55:17 7.3 C 20 %
681 11-03-2019 16:07:17 6.8 C 20 %
682 11-03-2019 16:19:17 6.9 C 20 %
683 11-03-2019 16:31:17 6.9 C 20 %
684 11-03-2019 16:43:17 6.7 C 20 %
685 11-03-2019 16:55:17 7 C 20 %
686 11-03-2019 17:07:17 6.1 C 20 %
687 11-03-2019 17:19:18 5.8 C 20 %
688 11-03-2019 17:31:17 7.6 C 20 %
689 11-03-2019 17:43:17 8.5 C 20 %
690 11-03-2019 17:55:17 8.7 C 20 %
691 11-03-2019 18:07:18 7.3 C 20 %
692 11-03-2019 18:19:17 6.4 C 20 %
693 11-03-2019 18:31:17 6 C 20 %
694 11-03-2019 18:43:17 5.7 C 20 %
695 11-03-2019 18:55:17 5.4 C 20 %
696 11-03-2019 19:07:17 5.3 C 20 %
697 11-03-2019 19:19:17 5.2 C 20 %
698 11-03-2019 19:31:17 5.2 C 20 %
699 11-03-2019 19:43:17 5.3 C 20 %
700 11-03-2019 19:55:17 5.1 C 20 %
Sensor: Nr:Datum:Temp:Feuchte:
Aussen-T/F 701 11-03-2019 20:07:17 5 C 20 %
702 11-03-2019 20:19:17 5.1 C 20 %
703 11-03-2019 20:31:17 4.9 C 20 %
704 11-03-2019 20:43:18 4.9 C 20 %
705 11-03-2019 20:55:17 4.8 C 20 %
706 11-03-2019 21:07:17 4.4 C 20 %
707 11-03-2019 21:19:17 4.7 C 20 %
708 11-03-2019 21:31:17 4.6 C 20 %
709 11-03-2019 21:43:17 4.6 C 20 %
710 11-03-2019 21:55:17 4.7 C 20 %
711 11-03-2019 22:07:17 4.7 C 20 %
712 11-03-2019 22:19:17 4.7 C 20 %
713 11-03-2019 22:31:17 4.4 C 20 %
714 11-03-2019 22:43:17 4.2 C 20 %
715 11-03-2019 22:55:17 4.1 C 20 %
716 11-03-2019 23:07:17 4.1 C 20 %
717 11-03-2019 23:19:17 4 C 20 %
718 11-03-2019 23:31:18 4 C 20 %
719 11-03-2019 23:43:18 3.6 C 23 %
720 11-03-2019 23:55:17 3.7 C 23 %
721 12-03-2019 00:07:17 3.5 C 25 %
722 12-03-2019 00:19:17 3.4 C 27 %
723 12-03-2019 00:31:18 3.2 C 30 %
724 12-03-2019 00:43:18 3.3 C 30 %
725 12-03-2019 00:55:17 3.2 C 30 %
Sensor: Nr:Datum:Temp:Feuchte:
Aussen-T/F 726 12-03-2019 01:07:17 2.7 C 31 %
727 12-03-2019 01:19:17 2 C 35 %
728 12-03-2019 01:31:18 2.4 C 36 %
729 12-03-2019 01:43:18 2.1 C 35 %
730 12-03-2019 01:55:17 1.6 C 40 %
731 12-03-2019 02:07:17 1.3 C 40 %
732 12-03-2019 02:19:18 0.9 C 42 %
733 12-03-2019 02:31:17 0.8 C 44 %
734 12-03-2019 02:43:17 0.8 C 45 %
735 12-03-2019 02:55:17 1.1 C 41 %
736 12-03-2019 03:07:18 1.1 C 42 %
737 12-03-2019 03:19:17 1.3 C 42 %
738 12-03-2019 03:31:17 1.1 C 40 %
739 12-03-2019 03:43:17 1.4 C 40 %
740 12-03-2019 03:55:17 1.2 C 38 %
741 12-03-2019 04:07:18 0.9 C 41 %
742 12-03-2019 04:19:17 1.1 C 40 %
743 12-03-2019 04:31:17 0.8 C 41 %
744 12-03-2019 04:43:17 0.7 C 42 %
745 12-03-2019 04:55:17 0.8 C 43 %
746 12-03-2019 05:07:17 1.1 C 41 %
747 12-03-2019 05:19:17 1.4 C 40 %
748 12-03-2019 05:31:17 1.4 C 40 %
749 12-03-2019 05:43:17 1.4 C 40 %
750 12-03-2019 05:55:17 1.4 C 40 %
Sensor: Nr:Datum:Temp:Feuchte:
Aussen-T/F 751 12-03-2019 06:07:17 1.3 C 41 %
752 12-03-2019 06:19:17 1.2 C 41 %
753 12-03-2019 06:31:17 0.9 C 43 %
754 12-03-2019 06:43:17 0.6 C 46 %
755 12-03-2019 06:55:18 0.7 C 47 %
756 12-03-2019 07:07:17 0.9 C 47 %
757 12-03-2019 07:19:17 0.9 C 47 %
758 12-03-2019 07:31:17 1.4 C 47 %
759 12-03-2019 07:43:18 1.8 C 46 %
760 12-03-2019 07:55:17 2.2 C 45 %
761 12-03-2019 08:07:17 2.4 C 41 %
762 12-03-2019 08:19:17 2.6 C 39 %
763 12-03-2019 08:31:18 3.2 C 38 %
764 12-03-2019 08:43:18 3.8 C 32 %
765 12-03-2019 08:55:17 4.4 C 30 %
766 12-03-2019 09:07:17 4.6 C 30 %
767 12-03-2019 09:19:18 4.7 C 30 %
768 12-03-2019 09:31:17 5 C 29 %
769 12-03-2019 09:43:17 5.7 C 27 %
770 12-03-2019 09:55:17 6.3 C 23 %
771 12-03-2019 10:07:17 7.3 C 20 %
772 12-03-2019 10:19:17 7.4 C 20 %
773 12-03-2019 10:31:17 7.4 C 20 %
774 12-03-2019 10:43:17 8.6 C 20 %
775 12-03-2019 10:55:17 8.1 C 20 %
Sensor: Nr:Datum:Temp:Feuchte:
Aussen-T/F 776 12-03-2019 11:07:17 8.4 C 20 %
777 12-03-2019 11:19:17 9.1 C 20 %
778 12-03-2019 11:31:17 9.9 C 20 %
779 12-03-2019 11:43:17 9.3 C 20 %
780 12-03-2019 11:55:17 9.2 C 20 %
781 12-03-2019 12:07:17 9.3 C 20 %
782 12-03-2019 12:19:17 9.4 C 20 %
783 12-03-2019 12:31:17 9.6 C 20 %
784 12-03-2019 12:43:17 9.9 C 20 %
785 12-03-2019 12:55:17 9.7 C 20 %
786 12-03-2019 13:07:18 9.6 C 20 %
787 12-03-2019 13:19:17 9.8 C 20 %
788 12-03-2019 13:31:17 10.3 C 20 %
789 12-03-2019 13:43:17 9.7 C 20 %
790 12-03-2019 13:55:17 10.1 C 20 %
791 12-03-2019 14:07:17 10.1 C 20 %
792 12-03-2019 14:19:17 10.3 C 20 %
793 12-03-2019 14:31:18 10.5 C 20 %
794 12-03-2019 14:43:18 10.6 C 20 %
795 12-03-2019 14:55:17 11.4 C 20 %
796 12-03-2019 15:07:17 11 C 20 %
797 12-03-2019 15:19:17 10.4 C 20 %
798 12-03-2019 15:31:17 10.4 C 20 %
799 12-03-2019 15:43:17 10.2 C 20 %
800 12-03-2019 15:55:17 10.6 C 20 %
Sensor: Nr:Datum:Temp:Feuchte:
Aussen-T/F 801 12-03-2019 16:07:18 10.4 C 20 %
802 12-03-2019 16:19:17 10 C 20 %
803 12-03-2019 16:31:17 9.8 C 20 %
804 12-03-2019 16:43:17 9.7 C 20 %
805 12-03-2019 16:55:17 9.4 C 20 %
806 12-03-2019 17:07:17 9.2 C 20 %
807 12-03-2019 17:19:17 8.8 C 20 %
808 12-03-2019 17:31:18 8.2 C 20 %
809 12-03-2019 17:43:18 8 C 20 %
810 12-03-2019 17:55:17 7.6 C 20 %
811 12-03-2019 18:07:17 7.1 C 20 %
812 12-03-2019 18:19:17 7 C 20 %
813 12-03-2019 18:31:17 7.3 C 20 %
814 12-03-2019 18:43:17 7.4 C 20 %
815 12-03-2019 18:55:17 7.7 C 20 %
816 12-03-2019 19:07:17 7.7 C 20 %
817 12-03-2019 19:19:17 7.8 C 20 %
818 12-03-2019 19:31:17 7.9 C 20 %
819 12-03-2019 19:43:17 8.1 C 20 %
820 12-03-2019 19:55:17 7.7 C 20 %
821 12-03-2019 20:07:17 8 C 20 %
822 12-03-2019 20:19:17 8.6 C 20 %
823 12-03-2019 20:31:17 8.6 C 20 %
824 12-03-2019 20:43:17 8.9 C 20 %
825 12-03-2019 20:55:17 9 C 20 %
Sensor: Nr:Datum:Temp:Feuchte:
Aussen-T/F 826 12-03-2019 21:07:18 9.7 C 20 %
827 12-03-2019 21:19:17 10.1 C 20 %
828 12-03-2019 21:31:17 10.3 C 20 %
829 12-03-2019 21:43:17 10.5 C 20 %
830 12-03-2019 21:55:17 10.6 C 20 %
831 12-03-2019 22:07:18 10.7 C 20 %
832 12-03-2019 22:19:17 10.9 C 20 %
833 12-03-2019 22:31:17 10.6 C 20 %
834 12-03-2019 22:43:17 10.5 C 20 %
835 12-03-2019 22:55:17 9.6 C 20 %
836 12-03-2019 23:07:17 8.4 C 20 %
837 12-03-2019 23:19:17 8.4 C 20 %
838 12-03-2019 23:31:17 8 C 25 %
839 12-03-2019 23:43:17 6.2 C 32 %
840 12-03-2019 23:55:17 5.7 C 36 %
841 13-03-2019 00:07:17 5.5 C 36 %
842 13-03-2019 00:19:17 5.4 C 32 %
843 13-03-2019 00:31:17 5.6 C 31 %
844 13-03-2019 00:43:17 5.6 C 30 %
845 13-03-2019 00:55:17 5.6 C 30 %
846 13-03-2019 01:07:17 5.4 C 27 %
847 13-03-2019 01:19:18 5.1 C 28 %
848 13-03-2019 01:31:17 5 C 29 %
849 13-03-2019 01:43:17 5.1 C 26 %
850 13-03-2019 01:55:17 4.9 C 27 %
Sensor: Nr:Datum:Temp:Feuchte:
Aussen-T/F 851 13-03-2019 02:07:18 4.8 C 28 %
852 13-03-2019 02:19:17 4.7 C 30 %
853 13-03-2019 02:31:17 5.1 C 28 %
854 13-03-2019 02:43:17 5.4 C 21 %
855 13-03-2019 02:55:17 5.3 C 21 %
856 13-03-2019 03:07:17 5 C 23 %
857 13-03-2019 03:19:17 5 C 21 %
858 13-03-2019 03:31:17 5.3 C 21 %
859 13-03-2019 03:43:18 5.4 C 23 %
860 13-03-2019 03:55:17 5.1 C 25 %
861 13-03-2019 04:07:17 5 C 25 %
862 13-03-2019 04:19:17 5 C 25 %
863 13-03-2019 04:31:17 4.7 C 29 %
864 13-03-2019 04:43:17 4.6 C 30 %
865 13-03-2019 04:55:17 4.6 C 30 %
866 13-03-2019 05:07:17 4.6 C 32 %
867 13-03-2019 05:19:17 4.4 C 33 %
868 13-03-2019 05:31:17 4.6 C 33 %
869 13-03-2019 05:43:17 4.9 C 33 %
870 13-03-2019 05:55:17 4.6 C 32 %
871 13-03-2019 06:07:17 4.4 C 31 %
872 13-03-2019 06:19:17 4.1 C 33 %
873 13-03-2019 06:31:17 4.7 C 31 %
874 13-03-2019 06:43:17 5 C 29 %
875 13-03-2019 06:55:18 4.9 C 30 %
Sensor: Nr:Datum:Temp:Feuchte:
Aussen-T/F 876 13-03-2019 07:07:17 4.7 C 29 %
877 13-03-2019 07:19:17 4.8 C 29 %
878 13-03-2019 07:31:17 4.8 C 28 %
879 13-03-2019 07:43:17 5.1 C 26 %
880 13-03-2019 07:55:18 5 C 29 %
881 13-03-2019 08:07:17 5.1 C 28 %
882 13-03-2019 08:19:17 5.6 C 26 %
883 13-03-2019 08:31:17 5.8 C 26 %
884 13-03-2019 08:43:18 5.8 C 26 %
885 13-03-2019 08:55:17 5.8 C 27 %
886 13-03-2019 09:07:17 5.7 C 27 %
887 13-03-2019 09:19:17 6.3 C 20 %
888 13-03-2019 09:31:18 6.4 C 20 %
889 13-03-2019 09:43:18 6 C 20 %
890 13-03-2019 09:55:17 5.9 C 21 %
891 13-03-2019 10:07:17 6.7 C 20 %
892 13-03-2019 10:19:17 6.9 C 20 %
893 13-03-2019 10:31:17 6.8 C 20 %
894 13-03-2019 10:43:17 7 C 20 %
895 13-03-2019 10:55:17 7.2 C 20 %
896 13-03-2019 11:07:17 7.6 C 20 %
897 13-03-2019 11:19:17 7.9 C 20 %
898 13-03-2019 11:31:17 8.2 C 20 %
899 13-03-2019 11:43:17 8 C 20 %
900 13-03-2019 11:55:17 7.6 C 20 %
Sensor: Nr:Datum:Temp:Feuchte:
Aussen-T/F 901 13-03-2019 12:07:17 8.1 C 20 %
902 13-03-2019 12:19:17 8.2 C 20 %
903 13-03-2019 12:31:17 8.6 C 20 %
904 13-03-2019 12:43:17 8.2 C 20 %
905 13-03-2019 12:55:17 8 C 20 %
906 13-03-2019 13:07:17 7.6 C 20 %
907 13-03-2019 13:19:17 7.9 C 20 %
908 13-03-2019 13:31:17 7.7 C 20 %
909 13-03-2019 13:43:17 7.6 C 23 %
910 13-03-2019 13:55:17 7.8 C 20 %
911 13-03-2019 14:07:18 8 C 20 %
912 13-03-2019 14:19:17 7.8 C 21 %
913 13-03-2019 14:31:17 7.6 C 21 %
914 13-03-2019 14:43:17 7.7 C 23 %
915 13-03-2019 14:55:17 7.9 C 21 %
916 13-03-2019 15:07:17 7.5 C 25 %
917 13-03-2019 15:19:17 7.5 C 25 %
918 13-03-2019 15:31:18 7.7 C 25 %
919 13-03-2019 15:43:18 7.3 C 27 %
920 13-03-2019 15:55:17 6.9 C 31 %
921 13-03-2019 16:07:17 6.2 C 37 %
922 13-03-2019 16:19:17 5.8 C 41 %
923 13-03-2019 16:31:17 5.9 C 41 %
924 13-03-2019 16:43:18 5.9 C 42 %
925 13-03-2019 16:55:17 5.8 C 44 %
Sensor: Nr:Datum:Temp:Feuchte:
Aussen-T/F 926 13-03-2019 17:07:17 6.2 C 40 %
927 13-03-2019 17:19:18 6.2 C 37 %
928 13-03-2019 17:31:17 6 C 37 %
929 13-03-2019 17:43:17 6 C 38 %
930 13-03-2019 17:55:17 6.1 C 37 %
931 13-03-2019 18:07:17 6.5 C 35 %
932 13-03-2019 18:19:17 6 C 37 %
933 13-03-2019 18:31:17 5.7 C 42 %
934 13-03-2019 18:43:17 5.3 C 46 %
935 13-03-2019 18:55:17 4.2 C 46 %
936 13-03-2019 19:07:17 4.3 C 47 %
937 13-03-2019 19:19:17 4.2 C 47 %
938 13-03-2019 19:31:17 4.1 C 49 %
939 13-03-2019 19:43:17 4.1 C 50 %
940 13-03-2019 19:55:17 4.3 C 52 %
941 13-03-2019 20:07:17 4.8 C 44 %
942 13-03-2019 20:19:17 4.7 C 42 %
943 13-03-2019 20:31:17 4.4 C 43 %
944 13-03-2019 20:43:17 4.3 C 42 %
945 13-03-2019 20:55:17 4.5 C 42 %
946 13-03-2019 21:07:17 4.4 C 42 %
947 13-03-2019 21:19:17 4.3 C 45 %
948 13-03-2019 21:31:17 4.4 C 46 %
949 13-03-2019 21:43:17 4.3 C 46 %
950 13-03-2019 21:55:17 4.6 C 46 %
Sensor: Nr:Datum:Temp:Feuchte:
Aussen-T/F 951 13-03-2019 22:07:17 4.3 C 46 %
952 13-03-2019 22:19:17 4.4 C 47 %
953 13-03-2019 22:31:18 4.4 C 47 %
954 13-03-2019 22:43:18 4.5 C 46 %
955 13-03-2019 22:55:17 4.6 C 45 %
956 13-03-2019 23:07:17 3.8 C 48 %
957 13-03-2019 23:19:17 3.6 C 50 %
958 13-03-2019 23:31:18 3.7 C 53 %
959 13-03-2019 23:43:18 3.8 C 53 %
960 13-03-2019 23:55:17 4 C 48 %
961 14-03-2019 00:07:17 3.9 C 46 %
962 14-03-2019 00:19:17 4.1 C 44 %
963 14-03-2019 00:31:17 4 C 43 %
964 14-03-2019 00:43:17 4.2 C 41 %
965 14-03-2019 00:55:17 4.4 C 39 %
966 14-03-2019 01:07:17 4.6 C 39 %
967 14-03-2019 01:19:17 4.5 C 40 %
968 14-03-2019 01:31:17 4.1 C 42 %
969 14-03-2019 01:43:17 4.1 C 45 %
970 14-03-2019 01:55:17 4.1 C 46 %
971 14-03-2019 02:07:17 4.2 C 46 %
972 14-03-2019 02:19:18 4.2 C 46 %
973 14-03-2019 02:31:17 4.1 C 45 %
974 14-03-2019 02:43:17 3.9 C 46 %
975 14-03-2019 02:55:17 3.6 C 46 %
Sensor: Nr:Datum:Temp:Feuchte:
Aussen-T/F 976 14-03-2019 03:07:17 3.5 C 47 %
977 14-03-2019 03:19:17 3.5 C 50 %
978 14-03-2019 03:31:17 3.5 C 51 %
979 14-03-2019 03:43:17 3.8 C 52 %
980 14-03-2019 03:55:17 4.2 C 48 %
981 14-03-2019 04:07:17 4.1 C 49 %
982 14-03-2019 04:19:17 4 C 49 %
983 14-03-2019 04:31:17 4.3 C 48 %
984 14-03-2019 04:43:17 4.5 C 48 %
985 14-03-2019 04:55:17 4.6 C 47 %
986 14-03-2019 05:07:17 5 C 43 %
987 14-03-2019 05:19:17 5 C 42 %
988 14-03-2019 05:31:17 5.4 C 40 %
989 14-03-2019 05:43:17 5.6 C 37 %
990 14-03-2019 05:55:17 5.7 C 37 %
991 14-03-2019 06:07:17 5.5 C 38 %
992 14-03-2019 06:19:17 5.6 C 37 %
993 14-03-2019 06:31:18 5.6 C 38 %
994 14-03-2019 06:43:18 5.6 C 38 %
995 14-03-2019 06:55:17 5.7 C 37 %
996 14-03-2019 07:07:17 5.7 C 36 %
997 14-03-2019 07:19:17 5.8 C 36 %
998 14-03-2019 07:31:17 5.8 C 35 %
999 14-03-2019 07:43:17 5.9 C 35 %
1000 14-03-2019 07:55:17 6.1 C 33 %
Sensor: Nr:Datum:Temp:Feuchte:
Aussen-T/F 1001 14-03-2019 08:07:17 6.1 C 32 %
1002 14-03-2019 08:19:17 6.2 C 32 %
1003 14-03-2019 08:31:17 6.2 C 32 %
1004 14-03-2019 08:43:17 5.8 C 35 %
1005 14-03-2019 08:55:17 5.5 C 38 %
1006 14-03-2019 09:07:18 5.5 C 40 %
1007 14-03-2019 09:19:17 5.4 C 42 %
1008 14-03-2019 09:31:17 5.4 C 42 %
1009 14-03-2019 09:43:17 5.6 C 41 %
1010 14-03-2019 09:55:17 5.7 C 40 %
1011 14-03-2019 10:07:18 5.7 C 40 %
1012 14-03-2019 10:19:17 5.8 C 39 %
1013 14-03-2019 10:31:17 5.8 C 39 %
1014 14-03-2019 10:43:18 5.8 C 39 %
1015 14-03-2019 10:55:17 5.6 C 40 %
1016 14-03-2019 11:07:17 5.6 C 41 %
1017 14-03-2019 11:19:18 5.6 C 41 %
1018 14-03-2019 11:31:17 5.7 C 41 %
1019 14-03-2019 11:43:17 6 C 41 %
1020 14-03-2019 11:55:17 6.1 C 40 %
1021 14-03-2019 12:07:18 6.6 C 38 %
1022 14-03-2019 12:19:17 6.5 C 38 %
1023 14-03-2019 12:31:17 6.3 C 39 %
1024 14-03-2019 12:43:17 6.4 C 40 %
1025 14-03-2019 12:55:17 6.8 C 41 %
Sensor: Nr:Datum:Temp:Feuchte:
Aussen-T/F 1026 14-03-2019 13:07:17 6.7 C 40 %
1027 14-03-2019 13:19:17 6.8 C 39 %
1028 14-03-2019 13:31:18 6.8 C 38 %
1029 14-03-2019 13:43:18 6.6 C 38 %
1030 14-03-2019 13:55:17 6.9 C 35 %
1031 14-03-2019 14:07:17 6.9 C 35 %
1032 14-03-2019 14:19:17 6.8 C 37 %
1033 14-03-2019 14:31:17 6.8 C 38 %
1034 14-03-2019 14:43:17 6.5 C 40 %
1035 14-03-2019 14:55:17 6.6 C 43 %
1036 14-03-2019 15:07:18 7 C 41 %
1037 14-03-2019 15:19:17 7.3 C 40 %
1038 14-03-2019 15:31:17 7.2 C 40 %
1039 14-03-2019 15:43:17 7.1 C 43 %
1040 14-03-2019 15:55:17 7.2 C 44 %
1041 14-03-2019 16:07:17 8 C 38 %
1042 14-03-2019 16:19:17 8.6 C 32 %
1043 14-03-2019 16:31:18 8.7 C 32 %
1044 14-03-2019 16:43:18 8.4 C 33 %
1045 14-03-2019 16:55:17 8.5 C 35 %
1046 14-03-2019 17:07:17 8.4 C 37 %
1047 14-03-2019 17:19:18 9.3 C 35 %
1048 14-03-2019 17:31:17 10.3 C 30 %
1049 14-03-2019 17:43:17 10.2 C 28 %
1050 14-03-2019 17:55:17 9.8 C 31 %
Sensor: Nr:Datum:Temp:Feuchte:
Aussen-T/F 1051 14-03-2019 18:07:17 9.3 C 33 %
1052 14-03-2019 18:19:17 9 C 35 %
1053 14-03-2019 18:31:18 9.4 C 31 %
1054 14-03-2019 18:43:18 9.2 C 30 %
1055 14-03-2019 18:55:17 9.2 C 29 %
1056 14-03-2019 19:07:17 9.2 C 26 %
1057 14-03-2019 19:19:18 9.2 C 25 %
1058 14-03-2019 19:31:17 9.1 C 23 %
1059 14-03-2019 19:43:17 7.9 C 31 %
1060 14-03-2019 19:55:17 7.2 C 36 %
1061 14-03-2019 20:07:18 6.8 C 40 %
1062 14-03-2019 20:19:17 6.6 C 42 %
1063 14-03-2019 20:31:17 6.5 C 41 %
1064 14-03-2019 20:43:17 6.7 C 40 %
1065 14-03-2019 20:55:18 6.9 C 38 %
1066 14-03-2019 21:07:17 7.1 C 35 %
1067 14-03-2019 21:19:17 7.6 C 32 %
1068 14-03-2019 21:31:17 7.6 C 33 %
1069 14-03-2019 21:43:17 7.5 C 33 %
1070 14-03-2019 21:55:17 7.2 C 35 %
1071 14-03-2019 22:07:17 7.4 C 32 %
1072 14-03-2019 22:19:17 7.6 C 30 %
1073 14-03-2019 22:31:17 7.5 C 29 %
1074 14-03-2019 22:43:17 7.4 C 29 %
1075 14-03-2019 22:55:17 7.5 C 28 %
Sensor: Nr:Datum:Temp:Feuchte:
Aussen-T/F 1076 14-03-2019 23:07:18 7.4 C 29 %
1077 14-03-2019 23:19:17 7.4 C 29 %
1078 14-03-2019 23:31:17 7.3 C 29 %
1079 14-03-2019 23:43:17 7.1 C 30 %
1080 14-03-2019 23:55:17 7 C 30 %
1081 15-03-2019 00:07:17 6.9 C 31 %
1082 15-03-2019 00:19:17 6.3 C 34 %
1083 15-03-2019 00:31:17 6.2 C 35 %
1084 15-03-2019 00:43:17 6 C 35 %
1085 15-03-2019 00:55:17 5.7 C 37 %
1086 15-03-2019 01:07:17 5.5 C 39 %
1087 15-03-2019 01:19:17 5.6 C 38 %
1088 15-03-2019 01:31:17 5.8 C 37 %
1089 15-03-2019 01:43:17 6 C 36 %
1090 15-03-2019 01:55:17 6.1 C 36 %
1091 15-03-2019 02:07:17 6.3 C 35 %
1092 15-03-2019 02:19:17 6.4 C 35 %
1093 15-03-2019 02:31:17 6.5 C 35 %
1094 15-03-2019 02:43:17 6.4 C 35 %
1095 15-03-2019 02:55:18 5.8 C 37 %
1096 15-03-2019 03:07:17 5.4 C 40 %
1097 15-03-2019 03:19:17 5.6 C 41 %
1098 15-03-2019 03:31:17 5.5 C 41 %
1099 15-03-2019 03:43:18 5.3 C 42 %
1100 15-03-2019 03:55:17 5.3 C 42 %
Sensor: Nr:Datum:Temp:Feuchte:
Aussen-T/F 1101 15-03-2019 04:07:17 5.2 C 42 %
1102 15-03-2019 04:19:17 5 C 45 %
1103 15-03-2019 04:31:18 5.4 C 46 %
1104 15-03-2019 04:43:18 5.9 C 41 %
1105 15-03-2019 04:55:17 6.5 C 38 %
1106 15-03-2019 05:07:17 6.5 C 37 %
1107 15-03-2019 05:19:18 6.5 C 37 %
1108 15-03-2019 05:31:17 6.5 C 38 %
1109 15-03-2019 05:43:17 6.5 C 38 %
1110 15-03-2019 05:55:17 6.5 C 38 %
1111 15-03-2019 06:07:17 6.4 C 42 %
1112 15-03-2019 06:19:18 6.2 C 46 %
1113 15-03-2019 06:31:17 6 C 48 %
1114 15-03-2019 06:43:17 6 C 51 %
1115 15-03-2019 06:55:17 5.9 C 54 %
1116 15-03-2019 07:07:17 6.1 C 54 %
1117 15-03-2019 07:19:17 6.1 C 53 %
1118 15-03-2019 07:31:17 6.3 C 53 %
1119 15-03-2019 07:43:17 6.4 C 51 %
1120 15-03-2019 07:55:17 6.5 C 50 %
1121 15-03-2019 08:07:17 6.5 C 50 %
1122 15-03-2019 08:19:17 6.6 C 51 %
1123 15-03-2019 08:31:17 6.8 C 52 %
1124 15-03-2019 08:43:17 7 C 50 %
1125 15-03-2019 08:55:17 7.1 C 47 %
Sensor: Nr:Datum:Temp:Feuchte:
Aussen-T/F 1126 15-03-2019 09:07:18 7.1 C 47 %
1127 15-03-2019 09:19:17 7.4 C 48 %
1128 15-03-2019 09:31:17 7.6 C 47 %
1129 15-03-2019 09:43:17 7.9 C 46 %
1130 15-03-2019 09:55:17 8.2 C 45 %
1131 15-03-2019 10:07:17 8.4 C 45 %
1132 15-03-2019 10:19:17 8.7 C 45 %
1133 15-03-2019 10:31:17 9.1 C 44 %
1134 15-03-2019 10:43:17 9.2 C 44 %
1135 15-03-2019 10:55:17 9.6 C 43 %
1136 15-03-2019 11:07:17 10.1 C 41 %
1137 15-03-2019 11:19:17 10.8 C 37 %
1138 15-03-2019 11:31:17 11.3 C 36 %
1139 15-03-2019 11:43:17 11.8 C 35 %
1140 15-03-2019 11:55:17 12 C 33 %
1141 15-03-2019 12:07:17 11.9 C 35 %
1142 15-03-2019 12:19:17 11.8 C 35 %
1143 15-03-2019 12:31:17 12.2 C 35 %
1144 15-03-2019 12:43:17 12.6 C 33 %
1145 15-03-2019 12:55:17 12.5 C 33 %
1146 15-03-2019 13:07:17 12.7 C 32 %
1147 15-03-2019 13:19:17 12.8 C 32 %
1148 15-03-2019 13:31:17 13 C 30 %
1149 15-03-2019 13:43:17 13.1 C 30 %
1150 15-03-2019 13:55:17 13.5 C 28 %
Sensor: Nr:Datum:Temp:Feuchte:
Aussen-T/F 1151 15-03-2019 14:07:18 13.6 C 27 %
1152 15-03-2019 14:19:17 13.5 C 27 %
1153 15-03-2019 14:31:17 13.3 C 27 %
1154 15-03-2019 14:43:17 13.1 C 27 %
1155 15-03-2019 14:55:17 13.2 C 29 %
1156 15-03-2019 15:07:18 13.5 C 29 %
1157 15-03-2019 15:19:17 13.3 C 29 %
1158 15-03-2019 15:31:17 13.2 C 29 %
1159 15-03-2019 15:43:17 13.1 C 30 %
1160 15-03-2019 15:55:18 13.1 C 30 %
1161 15-03-2019 16:07:17 13.1 C 29 %
1162 15-03-2019 16:19:17 13.2 C 28 %
1163 15-03-2019 16:31:18 13.1 C 28 %
1164 15-03-2019 16:43:18 13.1 C 28 %
1165 15-03-2019 16:55:17 12.8 C 30 %
1166 15-03-2019 17:07:17 12.9 C 30 %
1167 15-03-2019 17:19:17 12.7 C 30 %
1168 15-03-2019 17:31:17 12.6 C 31 %
1169 15-03-2019 17:43:17 12.4 C 32 %
1170 15-03-2019 17:55:17 12.4 C 32 %
1171 15-03-2019 18:07:17 12.4 C 32 %
1172 15-03-2019 18:19:17 12.4 C 32 %
1173 15-03-2019 18:31:18 12.3 C 32 %
1174 15-03-2019 18:43:18 12.3 C 32 %
1175 15-03-2019 18:55:17 12.4 C 31 %
Sensor: Nr:Datum:Temp:Feuchte:
Aussen-T/F 1176 15-03-2019 19:07:17 12.4 C 31 %
1177 15-03-2019 19:19:17 12.2 C 32 %
1178 15-03-2019 19:31:17 12.2 C 33 %
1179 15-03-2019 19:43:17 12.1 C 34 %
1180 15-03-2019 19:55:17 11.9 C 36 %
1181 15-03-2019 20:07:17 11.7 C 37 %
1182 15-03-2019 20:19:17 11.2 C 41 %
1183 15-03-2019 20:31:17 11.1 C 43 %
1184 15-03-2019 20:43:17 11.3 C 42 %
1185 15-03-2019 20:55:17 11.4 C 40 %
1186 15-03-2019 21:07:17 11.7 C 37 %
1187 15-03-2019 21:19:17 11.8 C 36 %
1188 15-03-2019 21:31:17 11.9 C 36 %
1189 15-03-2019 21:43:17 12 C 34 %
1190 15-03-2019 21:55:17 12 C 34 %
1191 15-03-2019 22:07:17 12 C 34 %
1192 15-03-2019 22:19:17 12 C 34 %
1193 15-03-2019 22:31:17 11.9 C 35 %
1194 15-03-2019 22:43:17 11.8 C 35 %
1195 15-03-2019 22:55:17 11.4 C 36 %
1196 15-03-2019 23:07:17 10.7 C 42 %
1197 15-03-2019 23:19:17 11.1 C 41 %
1198 15-03-2019 23:31:17 11 C 41 %
1199 15-03-2019 23:43:17 10.8 C 43 %
1200 15-03-2019 23:55:18 10.8 C 43 %
Sensor: Nr:Datum:Temp:Feuchte:
Aussen-T/F 1201 16-03-2019 00:07:17 10.9 C 43 %
1202 16-03-2019 00:19:17 11 C 40 %
1203 16-03-2019 00:31:17 11 C 40 %
1204 16-03-2019 00:43:17 11 C 38 %
1205 16-03-2019 00:55:18 9.6 C 44 %
1206 16-03-2019 01:07:17 9.4 C 47 %
1207 16-03-2019 01:19:17 9.2 C 50 %
1208 16-03-2019 01:31:17 8.8 C 51 %
1209 16-03-2019 01:43:17 8.3 C 49 %
1210 16-03-2019 01:55:17 8.3 C 50 %
1211 16-03-2019 02:07:17 8.4 C 50 %
1212 16-03-2019 02:19:17 8.1 C 48 %
1213 16-03-2019 02:31:18 8.1 C 49 %
1214 16-03-2019 02:43:18 7.9 C 50 %
1215 16-03-2019 02:55:17 7.7 C 50 %
1216 16-03-2019 03:07:17 7.7 C 52 %
1217 16-03-2019 03:19:17 7.6 C 53 %
1218 16-03-2019 03:31:18 7.6 C 53 %
1219 16-03-2019 03:43:18 7.6 C 54 %
1220 16-03-2019 03:55:17 7.6 C 54 %
1221 16-03-2019 04:07:17 7.6 C 54 %
1222 16-03-2019 04:19:17 7.6 C 55 %
1223 16-03-2019 04:31:17 7.7 C 55 %
1224 16-03-2019 04:43:17 7.7 C 55 %
1225 16-03-2019 04:55:17 7.7 C 56 %
Sensor: Nr:Datum:Temp:Feuchte:
Aussen-T/F 1226 16-03-2019 05:07:17 7.7 C 57 %
1227 16-03-2019 05:19:17 7.7 C 59 %
1228 16-03-2019 05:31:17 7.7 C 59 %
1229 16-03-2019 05:43:17 7.7 C 59 %
1230 16-03-2019 05:55:17 7.7 C 60 %
1231 16-03-2019 06:07:17 7.6 C 61 %
1232 16-03-2019 06:19:17 7.6 C 61 %
1233 16-03-2019 06:31:18 7.9 C 63 %
1234 16-03-2019 06:43:18 8.7 C 68 %
1235 16-03-2019 06:55:17 9 C 65 %
1236 16-03-2019 07:07:17 9.2 C 60 %
1237 16-03-2019 07:19:17 9.7 C 42 %
1238 16-03-2019 07:31:17 9.8 C 39 %
1239 16-03-2019 07:43:17 9.9 C 38 %
1240 16-03-2019 07:55:17 9.9 C 38 %
1241 16-03-2019 08:07:17 10 C 38 %
1242 16-03-2019 08:19:17 10.1 C 38 %
1243 16-03-2019 08:31:17 10.1 C 38 %
1244 16-03-2019 08:43:17 10.1 C 39 %
1245 16-03-2019 08:55:17 10.4 C 37 %
1246 16-03-2019 09:07:17 10.2 C 38 %
1247 16-03-2019 09:19:17 10.2 C 38 %
1248 16-03-2019 09:31:17 10.1 C 40 %
1249 16-03-2019 09:43:17 10.4 C 38 %
1250 16-03-2019 09:55:17 10.7 C 36 %
Sensor: Nr:Datum:Temp:Feuchte:
Aussen-T/F 1251 16-03-2019 10:07:18 10.7 C 35 %
1252 16-03-2019 10:19:17 10.4 C 36 %
1253 16-03-2019 10:31:17 10.7 C 35 %
1254 16-03-2019 10:43:17 10.6 C 35 %
1255 16-03-2019 10:55:17 10 C 40 %
1256 16-03-2019 11:07:18 10.1 C 40 %
1257 16-03-2019 11:19:17 10.3 C 37 %
1258 16-03-2019 11:31:17 10.7 C 35 %
1259 16-03-2019 11:43:17 10.8 C 34 %
1260 16-03-2019 11:55:17 10.9 C 32 %
1261 16-03-2019 12:07:17 11.1 C 30 %
1262 16-03-2019 12:19:17 11.4 C 30 %
1263 16-03-2019 12:31:17 11.8 C 28 %
1264 16-03-2019 12:43:17 11.7 C 28 %
1265 16-03-2019 12:55:17 11.2 C 27 %
1266 16-03-2019 13:07:17 11.4 C 27 %
1267 16-03-2019 13:19:17 11.6 C 26 %
1268 16-03-2019 13:31:17 11.7 C 25 %
1269 16-03-2019 13:43:17 11.7 C 26 %
1270 16-03-2019 13:55:17 11.6 C 26 %
1271 16-03-2019 14:07:18 11.6 C 26 %
1272 16-03-2019 14:19:17 10.7 C 28 %
1273 16-03-2019 14:31:17 10.7 C 28 %
1274 16-03-2019 14:43:17 10.6 C 28 %
1275 16-03-2019 14:55:18 10.5 C 26 %
Sensor: Nr:Datum:Temp:Feuchte:
Aussen-T/F 1276 16-03-2019 15:07:17 10.5 C 26 %
1277 16-03-2019 15:19:17 10.6 C 26 %
1278 16-03-2019 15:31:17 10.8 C 25 %
1279 16-03-2019 15:43:17 10.9 C 25 %
1280 16-03-2019 15:55:17 10.7 C 25 %
1281 16-03-2019 16:07:17 10.7 C 25 %
1282 16-03-2019 16:19:18 10.8 C 25 %
1283 16-03-2019 16:31:17 10.8 C 25 %
1284 16-03-2019 16:43:17 10.7 C 25 %
1285 16-03-2019 16:55:17 10.7 C 23 %
1286 16-03-2019 17:07:17 10.6 C 25 %
1287 16-03-2019 17:19:17 10.6 C 23 %
1288 16-03-2019 17:31:17 10.5 C 23 %
1289 16-03-2019 17:43:17 10.5 C 25 %
1290 16-03-2019 17:55:17 10.4 C 21 %
1291 16-03-2019 18:07:18 10.3 C 23 %
1292 16-03-2019 18:19:17 10.3 C 23 %
1293 16-03-2019 18:31:17 10.3 C 22 %
1294 16-03-2019 18:43:17 10.1 C 22 %
1295 16-03-2019 18:55:17 10 C 22 %
1296 16-03-2019 19:07:17 10.1 C 20 %
1297 16-03-2019 19:19:17 10 C 22 %
1298 16-03-2019 19:31:17 10.1 C 21 %
1299 16-03-2019 19:43:17 10 C 22 %
1300 16-03-2019 19:55:17 10 C 22 %
Sensor: Nr:Datum:Temp:Feuchte:
Aussen-T/F 1301 16-03-2019 20:07:18 9.7 C 25 %
1302 16-03-2019 20:19:17 9.7 C 25 %
1303 16-03-2019 20:31:18 9.8 C 23 %
1304 16-03-2019 20:43:18 9.7 C 23 %
1305 16-03-2019 20:55:17 9.3 C 25 %
1306 16-03-2019 21:07:17 9.7 C 25 %
1307 16-03-2019 21:19:17 9.6 C 25 %
1308 16-03-2019 21:31:18 9.8 C 25 %
1309 16-03-2019 21:43:18 9.8 C 25 %
1310 16-03-2019 21:55:17 9.8 C 25 %
1311 16-03-2019 22:07:17 9.3 C 27 %
1312 16-03-2019 22:19:17 9.5 C 27 %
1313 16-03-2019 22:31:18 9.6 C 27 %
1314 16-03-2019 22:43:18 9.8 C 26 %
1315 16-03-2019 22:55:17 9.6 C 27 %
1316 16-03-2019 23:07:17 9.4 C 27 %
1317 16-03-2019 23:19:17 9.5 C 28 %
1318 16-03-2019 23:31:17 9.6 C 26 %
1319 16-03-2019 23:43:17 9.7 C 26 %
1320 16-03-2019 23:55:17 9.6 C 26 %
1321 17-03-2019 00:07:18 9.5 C 26 %
1322 17-03-2019 00:19:17 9.8 C 26 %
1323 17-03-2019 00:31:17 9.8 C 26 %
1324 17-03-2019 00:43:17 10 C 25 %
1325 17-03-2019 00:55:18 9.9 C 25 %
Sensor: Nr:Datum:Temp:Feuchte:
Aussen-T/F 1326 17-03-2019 01:07:17 9.9 C 25 %
1327 17-03-2019 01:19:17 10 C 25 %
1328 17-03-2019 01:31:18 10.1 C 23 %
1329 17-03-2019 01:43:18 10 C 23 %
1330 17-03-2019 01:55:17 9.8 C 25 %
1331 17-03-2019 02:07:17 9.6 C 25 %
1332 17-03-2019 02:19:17 9.7 C 25 %
1333 17-03-2019 02:31:17 9.6 C 25 %
1334 17-03-2019 02:43:18 9.7 C 26 %
1335 17-03-2019 02:55:17 9.7 C 25 %
1336 17-03-2019 03:07:17 9.6 C 25 %
1337 17-03-2019 03:19:17 9.6 C 25 %
1338 17-03-2019 03:31:17 9.6 C 25 %
1339 17-03-2019 03:43:17 9.6 C 25 %
1340 17-03-2019 03:55:17 9.6 C 25 %
1341 17-03-2019 04:07:17 9.5 C 25 %
1342 17-03-2019 04:19:17 9.5 C 25 %
1343 17-03-2019 04:31:17 9.5 C 25 %
1344 17-03-2019 04:43:18 9.5 C 25 %
1345 17-03-2019 04:55:17 9.7 C 23 %
1346 17-03-2019 05:07:17 9.8 C 21 %
1347 17-03-2019 05:19:17 10 C 20 %
1348 17-03-2019 05:31:17 9.9 C 20 %
1349 17-03-2019 05:43:17 9.8 C 20 %
1350 17-03-2019 05:55:17 9.8 C 20 %
Sensor: Nr:Datum:Temp:Feuchte:
Aussen-T/F 1351 17-03-2019 06:07:18 9.7 C 20 %
1352 17-03-2019 06:19:18 9.8 C 20 %
1353 17-03-2019 06:31:17 9.8 C 20 %
1354 17-03-2019 06:43:17 9.8 C 20 %
1355 17-03-2019 06:55:17 9.7 C 20 %
1356 17-03-2019 07:07:17 9.8 C 21 %
1357 17-03-2019 07:19:17 9.8 C 21 %
1358 17-03-2019 07:31:17 9.8 C 21 %
1359 17-03-2019 07:43:17 9.7 C 23 %
1360 17-03-2019 07:55:17 9.9 C 23 %
1361 17-03-2019 08:07:18 10 C 22 %
1362 17-03-2019 08:19:17 9.8 C 25 %
1363 17-03-2019 08:31:17 9.7 C 27 %
1364 17-03-2019 08:43:17 9.7 C 27 %
1365 17-03-2019 08:55:17 9.8 C 26 %
1366 17-03-2019 09:07:18 9.8 C 27 %
1367 17-03-2019 09:19:17 10 C 25 %
1368 17-03-2019 09:31:17 10.1 C 25 %
1369 17-03-2019 09:43:17 10 C 26 %
1370 17-03-2019 09:55:18 9.9 C 27 %
1371 17-03-2019 10:07:17 9.7 C 28 %
1372 17-03-2019 10:19:17 9.5 C 30 %
1373 17-03-2019 10:31:17 9.4 C 30 %
1374 17-03-2019 10:43:18 8.9 C 33 %
1375 17-03-2019 10:55:17 8.4 C 36 %
Sensor: Nr:Datum:Temp:Feuchte:
Aussen-T/F 1376 17-03-2019 11:07:17 7.1 C 36 %
1377 17-03-2019 11:19:17 7 C 35 %
1378 17-03-2019 11:31:18 7.5 C 31 %
1379 17-03-2019 11:43:18 7.7 C 30 %
1380 17-03-2019 11:55:17 8 C 29 %
1381 17-03-2019 12:07:17 8.4 C 27 %
1382 17-03-2019 12:19:18 8.7 C 25 %
1383 17-03-2019 12:31:17 8.9 C 25 %
1384 17-03-2019 12:43:17 8.7 C 21 %
1385 17-03-2019 12:55:17 8.9 C 21 %
1386 17-03-2019 13:07:17 9.6 C 20 %
1387 17-03-2019 13:19:17 10 C 20 %
1388 17-03-2019 13:31:17 10.1 C 20 %
1389 17-03-2019 13:43:17 10.3 C 20 %
1390 17-03-2019 13:55:17 10.1 C 20 %
1391 17-03-2019 14:07:18 10.5 C 20 %
1392 17-03-2019 14:19:17 10 C 20 %
1393 17-03-2019 14:31:17 10.4 C 20 %
1394 17-03-2019 14:43:17 10.6 C 20 %
1395 17-03-2019 14:55:17 10.6 C 20 %
1396 17-03-2019 15:07:18 11 C 20 %
1397 17-03-2019 15:19:17 11.6 C 20 %
1398 17-03-2019 15:31:17 11.2 C 20 %
1399 17-03-2019 15:43:18 10.4 C 20 %
1400 17-03-2019 15:55:17 10.1 C 20 %
Sensor: Nr:Datum:Temp:Feuchte:
Aussen-T/F 1401 17-03-2019 16:07:17 10.6 C 20 %
1402 17-03-2019 16:19:17 10.1 C 20 %
1403 17-03-2019 16:31:17 9.6 C 20 %
1404 17-03-2019 16:43:17 9.5 C 20 %
1405 17-03-2019 16:55:17 8.3 C 20 %
1406 17-03-2019 17:07:17 7.5 C 20 %
1407 17-03-2019 17:19:17 7.8 C 20 %
1408 17-03-2019 17:31:17 7.6 C 20 %
1409 17-03-2019 17:43:17 7.2 C 20 %
1410 17-03-2019 17:55:17 7 C 20 %
1411 17-03-2019 18:07:17 6.8 C 20 %
1412 17-03-2019 18:19:17 6.9 C 20 %
1413 17-03-2019 18:31:17 6.7 C 20 %
1414 17-03-2019 18:43:17 6.1 C 21 %
1415 17-03-2019 18:55:17 6 C 23 %
1416 17-03-2019 19:07:18 5.6 C 26 %
1417 17-03-2019 19:19:17 5.5 C 27 %
1418 17-03-2019 19:31:17 5.1 C 30 %
1419 17-03-2019 19:43:17 5.6 C 27 %
1420 17-03-2019 19:55:18 4.3 C 33 %
1421 17-03-2019 20:07:17 3.7 C 43 %
1422 17-03-2019 20:19:17 3.7 C 45 %
1423 17-03-2019 20:31:17 3.6 C 44 %
1424 17-03-2019 20:43:18 3.2 C 47 %
1425 17-03-2019 20:55:17 3.2 C 48 %
Sensor: Nr:Datum:Temp:Feuchte:
Aussen-T/F 1426 17-03-2019 21:07:17 3.2 C 48 %
1427 17-03-2019 21:19:18 3.3 C 48 %
1428 17-03-2019 21:31:17 3.3 C 46 %
1429 17-03-2019 21:43:17 3.1 C 46 %
1430 17-03-2019 21:55:17 3.1 C 46 %
1431 17-03-2019 22:07:17 3.4 C 42 %
1432 17-03-2019 22:19:17 3.4 C 40 %
1433 17-03-2019 22:31:17 3.4 C 40 %
1434 17-03-2019 22:43:17 3.6 C 37 %
1435 17-03-2019 22:55:17 3.5 C 36 %
1436 17-03-2019 23:07:18 3.5 C 37 %
1437 17-03-2019 23:19:17 3.6 C 36 %
1438 17-03-2019 23:31:17 3.5 C 36 %
1439 17-03-2019 23:43:18 3 C 39 %
1440 17-03-2019 23:55:17 2.8 C 42 %
1441 18-03-2019 00:07:17 2.2 C 44 %
1442 18-03-2019 00:19:17 2 C 46 %
1443 18-03-2019 00:31:17 1.8 C 50 %
1444 18-03-2019 00:43:17 2.2 C 50 %
1445 18-03-2019 00:55:17 2.1 C 47 %
1446 18-03-2019 01:07:17 1.8 C 50 %
1447 18-03-2019 01:19:17 2.1 C 48 %
1448 18-03-2019 01:31:17 1.8 C 47 %
1449 18-03-2019 01:43:17 1.4 C 50 %
1450 18-03-2019 01:55:17 2.2 C 50 %
Sensor: Nr:Datum:Temp:Feuchte:
Aussen-T/F 1451 18-03-2019 02:07:17 2.3 C 47 %
1452 18-03-2019 02:19:17 2.4 C 45 %
1453 18-03-2019 02:31:17 3 C 42 %
1454 18-03-2019 02:43:17 3.4 C 37 %
1455 18-03-2019 02:55:17 3.4 C 35 %
1456 18-03-2019 03:07:17 3.2 C 36 %
1457 18-03-2019 03:19:17 3.2 C 37 %
1458 18-03-2019 03:31:17 2.6 C 41 %
1459 18-03-2019 03:43:17 2.7 C 42 %
1460 18-03-2019 03:55:17 2.8 C 41 %
1461 18-03-2019 04:07:17 2.9 C 41 %
1462 18-03-2019 04:19:17 2.6 C 41 %
1463 18-03-2019 04:31:17 2.6 C 43 %
1464 18-03-2019 04:43:17 2.5 C 42 %
1465 18-03-2019 04:55:17 2.3 C 42 %
1466 18-03-2019 05:07:17 2.4 C 44 %
1467 18-03-2019 05:19:17 2.6 C 42 %
1468 18-03-2019 05:31:17 2.6 C 40 %
1469 18-03-2019 05:43:17 2.8 C 40 %
1470 18-03-2019 05:55:17 3.2 C 36 %
1471 18-03-2019 06:07:17 3.1 C 35 %
1472 18-03-2019 06:19:17 3.6 C 34 %
1473 18-03-2019 06:31:18 3.6 C 34 %
1474 18-03-2019 06:43:18 3.4 C 34 %
1475 18-03-2019 06:55:17 3.3 C 35 %
Sensor: Nr:Datum:Temp:Feuchte:
Aussen-T/F 1476 18-03-2019 07:07:17 3.1 C 37 %
1477 18-03-2019 07:19:18 3.6 C 36 %
1478 18-03-2019 07:31:17 3.8 C 35 %
1479 18-03-2019 07:43:17 3.8 C 35 %
1480 18-03-2019 07:55:17 4.3 C 31 %
1481 18-03-2019 08:07:17 4.2 C 32 %
1482 18-03-2019 08:19:17 4.3 C 32 %
1483 18-03-2019 08:31:17 4.4 C 33 %
1484 18-03-2019 08:43:17 4.7 C 32 %
1485 18-03-2019 08:55:17 4.3 C 37 %
1486 18-03-2019 09:07:18 4.1 C 40 %
1487 18-03-2019 09:19:17 4.1 C 43 %
1488 18-03-2019 09:31:17 4.3 C 44 %
1489 18-03-2019 09:43:17 4.1 C 43 %
1490 18-03-2019 09:55:18 4.4 C 44 %
1491 18-03-2019 10:07:17 5.8 C 34 %
1492 18-03-2019 10:19:17 6.2 C 31 %
1493 18-03-2019 10:31:18 6 C 30 %
1494 18-03-2019 10:43:18 7 C 27 %
1495 18-03-2019 10:55:17 6.7 C 26 %
1496 18-03-2019 11:07:17 7.1 C 27 %
1497 18-03-2019 11:19:18 8.6 C 25 %
1498 18-03-2019 11:31:17 7.5 C 20 %
1499 18-03-2019 11:43:17 8.9 C 20 %
1500 18-03-2019 11:55:17 8.8 C 20 %
Sensor: Nr:Datum:Temp:Feuchte:
Aussen-T/F 1501 18-03-2019 12:07:17 8.1 C 20 %
1502 18-03-2019 12:19:17 9.1 C 20 %
1503 18-03-2019 12:31:17 8.6 C 20 %
1504 18-03-2019 12:43:17 6.4 C 20 %
1505 18-03-2019 12:55:17 5.5 C 31 %
1506 18-03-2019 13:07:17 5.6 C 34 %
1507 18-03-2019 13:19:17 6.2 C 32 %
1508 18-03-2019 13:31:18 7 C 33 %
1509 18-03-2019 13:43:18 7.5 C 28 %
1510 18-03-2019 13:55:17 7.3 C 26 %
1511 18-03-2019 14:07:17 8.2 C 25 %
1512 18-03-2019 14:19:18 7.7 C 20 %
1513 18-03-2019 14:31:17 7.8 C 20 %
1514 18-03-2019 14:43:17 8.2 C 20 %
1515 18-03-2019 14:55:17 7.8 C 20 %
1516 18-03-2019 15:07:18 5.2 C 38 %
1517 18-03-2019 15:19:17 5.9 C 41 %
1518 18-03-2019 15:31:17 6.4 C 37 %
1519 18-03-2019 15:43:17 6.6 C 35 %
1520 18-03-2019 15:55:17 7.1 C 34 %
1521 18-03-2019 16:07:17 6.1 C 40 %
1522 18-03-2019 16:19:17 5.8 C 43 %
1523 18-03-2019 16:31:17 5.9 C 44 %
1524 18-03-2019 16:43:17 6.4 C 32 %
1525 18-03-2019 16:55:17 6.8 C 29 %
Sensor: Nr:Datum:Temp:Feuchte:
Aussen-T/F 1526 18-03-2019 17:07:18 8.4 C 21 %
1527 18-03-2019 17:19:17 7.9 C 20 %
1528 18-03-2019 17:31:18 7.3 C 20 %
1529 18-03-2019 17:43:18 6.8 C 20 %
1530 18-03-2019 17:55:17 6.7 C 20 %
1531 18-03-2019 18:07:17 6.4 C 20 %
1532 18-03-2019 18:19:17 6.7 C 20 %
1533 18-03-2019 18:31:29 6.5 C 25 %
1534 18-03-2019 18:43:29 6 C 31 %
1535 18-03-2019 18:55:17 5 C 35 %
1536 18-03-2019 19:07:17 4.5 C 36 %
1537 18-03-2019 19:19:17 4.5 C 38 %
1538 18-03-2019 19:31:17 4.4 C 38 %
1539 18-03-2019 19:43:17 4.3 C 38 %
1540 18-03-2019 19:55:18 3.8 C 40 %
1541 18-03-2019 20:07:17 3.6 C 37 %
1542 18-03-2019 20:19:17 3.4 C 37 %
1543 18-03-2019 20:31:18 3.3 C 37 %
1544 18-03-2019 20:43:18 2.9 C 40 %
1545 18-03-2019 20:55:17 2.6 C 40 %
1546 18-03-2019 21:07:17 2.3 C 41 %
1547 18-03-2019 21:19:17 2.2 C 43 %
1548 18-03-2019 21:31:17 1.8 C 46 %
1549 18-03-2019 21:43:17 1.6 C 48 %
1550 18-03-2019 21:55:18 1.3 C 49 %
Sensor: Nr:Datum:Temp:Feuchte:
Aussen-T/F 1551 18-03-2019 22:07:17 1 C 50 %
1552 18-03-2019 22:19:18 0.7 C 52 %
1553 18-03-2019 22:31:17 0.5 C 52 %
1554 18-03-2019 22:43:17 0.6 C 53 %
1555 18-03-2019 22:55:17 0.5 C 54 %
1556 18-03-2019 23:07:18 0.4 C 55 %
1557 18-03-2019 23:19:17 0.6 C 55 %
1558 18-03-2019 23:31:17 0.5 C 55 %
1559 18-03-2019 23:43:17 0.2 C 54 %
1560 18-03-2019 23:55:18 0.1 C 55 %
1561 19-03-2019 00:07:17 0 C 55 %
1562 19-03-2019 00:19:17 0 C 55 %
1563 19-03-2019 00:31:18 -0.3 C 55 %
1564 19-03-2019 00:43:18 -0.7 C 54 %
1565 19-03-2019 00:55:17 -0.9 C 55 %
1566 19-03-2019 01:07:17 -0.9 C 55 %
1567 19-03-2019 01:19:18 -1 C 55 %
1568 19-03-2019 01:31:17 -0.9 C 56 %
1569 19-03-2019 01:43:17 -1 C 56 %
1570 19-03-2019 01:55:17 -1.2 C 56 %
1571 19-03-2019 02:07:18 -1.3 C 56 %
1572 19-03-2019 02:19:17 -1.2 C 56 %
1573 19-03-2019 02:31:17 -1.2 C 56 %
1574 19-03-2019 02:43:17 -1.4 C 56 %
1575 19-03-2019 02:55:18 -1.1 C 56 %
Sensor: Nr:Datum:Temp:Feuchte:
Aussen-T/F 1576 19-03-2019 03:07:17 -1.4 C 56 %
1577 19-03-2019 03:19:17 -1.6 C 56 %
1578 19-03-2019 03:31:17 -1.8 C 56 %
1579 19-03-2019 03:43:17 -1.7 C 56 %
1580 19-03-2019 03:55:17 -1.8 C 56 %
1581 19-03-2019 04:07:18 -1.9 C 56 %
1582 19-03-2019 04:19:17 -2 C 56 %
1583 19-03-2019 04:31:17 -1.9 C 56 %
1584 19-03-2019 04:43:17 -2 C 56 %
1585 19-03-2019 04:55:17 -2.1 C 56 %
1586 19-03-2019 05:07:18 -2.3 C 56 %
1587 19-03-2019 05:19:17 -2.3 C 56 %
1588 19-03-2019 05:31:17 -2.4 C 56 %
1589 19-03-2019 05:43:17 -2 C 58 %
1590 19-03-2019 05:55:17 -2.3 C 57 %
1591 19-03-2019 06:07:17 -2.4 C 57 %
1592 19-03-2019 06:19:17 -2.5 C 57 %
1593 19-03-2019 06:31:17 -2.1 C 60 %
1594 19-03-2019 06:43:17 -2.3 C 59 %
1595 19-03-2019 06:55:18 -1.8 C 62 %
1596 19-03-2019 07:07:18 -1.3 C 66 %
1597 19-03-2019 07:19:17 -0.9 C 68 %
1598 19-03-2019 07:31:18 -0.6 C 68 %
1599 19-03-2019 07:43:18 -0.5 C 67 %
1600 19-03-2019 07:55:17 -0.5 C 62 %
Sensor: Nr:Datum:Temp:Feuchte:
Aussen-T/F 1601 19-03-2019 08:07:17 -0.7 C 56 %
1602 19-03-2019 08:19:17 -1 C 55 %
1603 19-03-2019 08:31:17 -1 C 54 %
1604 19-03-2019 08:43:17 -0.7 C 55 %
1605 19-03-2019 08:55:18 -0.3 C 55 %
1606 19-03-2019 09:07:17 0 C 55 %
1607 19-03-2019 09:19:17 0.1 C 54 %
1608 19-03-2019 09:31:17 0.2 C 53 %
1609 19-03-2019 09:43:17 0.4 C 53 %
1610 19-03-2019 09:55:17 0.7 C 53 %
1611 19-03-2019 10:07:17 1.9 C 50 %
1612 19-03-2019 10:19:17 1.9 C 50 %
1613 19-03-2019 10:31:18 4 C 42 %
1614 19-03-2019 10:43:18 3.2 C 36 %
1615 19-03-2019 10:55:17 5.6 C 38 %
1616 19-03-2019 11:07:17 5.7 C 37 %
1617 19-03-2019 11:19:18 5 C 36 %
1618 19-03-2019 11:31:17 6.9 C 26 %
1619 19-03-2019 11:43:17 7.6 C 20 %
1620 19-03-2019 11:55:17 6.6 C 20 %
1621 19-03-2019 12:07:18 6.7 C 20 %
1622 19-03-2019 12:19:17 6.6 C 20 %
1623 19-03-2019 12:31:17 7 C 20 %
1624 19-03-2019 12:43:18 6.9 C 20 %
1625 19-03-2019 12:55:17 7.5 C 20 %
Sensor: Nr:Datum:Temp:Feuchte:
Aussen-T/F 1626 19-03-2019 13:07:17 7.8 C 20 %
1627 19-03-2019 13:19:17 8.2 C 20 %
1628 19-03-2019 13:31:17 8.2 C 20 %
1629 19-03-2019 13:43:17 8.3 C 20 %
1630 19-03-2019 13:55:17 8.4 C 20 %
1631 19-03-2019 14:07:18 8.6 C 20 %
1632 19-03-2019 14:19:17 8.9 C 20 %
1633 19-03-2019 14:31:17 9.1 C 20 %
1634 19-03-2019 14:43:17 9.3 C 20 %
1635 19-03-2019 14:55:18 9.7 C 20 %
1636 19-03-2019 15:07:17 9.9 C 20 %
1637 19-03-2019 15:19:17 10 C 20 %
1638 19-03-2019 15:31:18 10.2 C 20 %
1639 19-03-2019 15:43:18 10.4 C 20 %
1640 19-03-2019 15:55:17 10.9 C 20 %
1641 19-03-2019 16:07:17 11.5 C 20 %
1642 19-03-2019 16:19:18 11.7 C 20 %
1643 19-03-2019 16:31:17 11.9 C 20 %
1644 19-03-2019 16:43:17 11.7 C 20 %
1645 19-03-2019 16:55:17 11.5 C 20 %
1646 19-03-2019 17:07:18 11.5 C 20 %
1647 19-03-2019 17:19:17 12.4 C 20 %
1648 19-03-2019 17:31:17 12.2 C 20 %
1649 19-03-2019 17:43:17 13.7 C 20 %
1650 19-03-2019 17:55:17 14.1 C 20 %
Sensor: Nr:Datum:Temp:Feuchte:
Aussen-T/F 1651 19-03-2019 18:07:18 13.2 C 20 %
1652 19-03-2019 18:19:17 10.2 C 20 %
1653 19-03-2019 18:31:18 7.5 C 20 %
1654 19-03-2019 18:43:18 6 C 20 %
1655 19-03-2019 18:55:17 5.7 C 20 %
1656 19-03-2019 19:07:17 5.2 C 20 %
1657 19-03-2019 19:19:17 4.8 C 23 %
1658 19-03-2019 19:31:17 4.8 C 26 %
1659 19-03-2019 19:43:17 4.2 C 27 %
1660 19-03-2019 19:55:17 4.1 C 27 %
1661 19-03-2019 20:07:17 3.5 C 30 %
1662 19-03-2019 20:19:17 3.3 C 32 %
1663 19-03-2019 20:31:17 2.8 C 34 %
1664 19-03-2019 20:43:17 2.5 C 35 %
1665 19-03-2019 20:55:17 2.1 C 38 %
1666 19-03-2019 21:07:17 1.8 C 40 %
1667 19-03-2019 21:19:17 1.7 C 40 %
1668 19-03-2019 21:31:17 1.3 C 40 %
1669 19-03-2019 21:43:17 1.1 C 41 %
1670 19-03-2019 21:55:17 0.8 C 42 %
1671 19-03-2019 22:07:18 0.8 C 43 %
1672 19-03-2019 22:19:17 0.6 C 43 %
1673 19-03-2019 22:31:17 0.4 C 44 %
1674 19-03-2019 22:43:17 0.6 C 45 %
1675 19-03-2019 22:55:17 0.4 C 45 %
Sensor: Nr:Datum:Temp:Feuchte:
Aussen-T/F 1676 19-03-2019 23:07:17 0.3 C 46 %
1677 19-03-2019 23:19:17 0.4 C 46 %
1678 19-03-2019 23:31:17 0.3 C 45 %
1679 19-03-2019 23:43:17 0.3 C 45 %
1680 19-03-2019 23:55:17 -0.3 C 47 %
1681 20-03-2019 00:07:18 -0.3 C 48 %
1682 20-03-2019 00:19:17 -0.6 C 47 %
1683 20-03-2019 00:31:17 -0.7 C 49 %
1684 20-03-2019 00:43:17 -0.9 C 50 %
1685 20-03-2019 00:55:17 -1 C 50 %
1686 20-03-2019 01:07:18 -1 C 51 %
1687 20-03-2019 01:19:17 -1 C 51 %
1688 20-03-2019 01:31:18 -0.9 C 52 %
1689 20-03-2019 01:43:18 -1 C 52 %
1690 20-03-2019 01:55:17 -1.2 C 52 %
1691 20-03-2019 02:07:17 -1.4 C 52 %
1692 20-03-2019 02:20:17 -1.2 C 53 %
1693 20-03-2019 02:31:17 -1.4 C 52 %
1694 20-03-2019 02:43:17 -1.5 C 53 %
1695 20-03-2019 02:55:18 -1.6 C 53 %
1696 20-03-2019 03:07:17 -1.6 C 53 %
1697 20-03-2019 03:19:17 -1.8 C 53 %
1698 20-03-2019 03:31:18 -1.9 C 53 %
1699 20-03-2019 03:43:18 -2 C 53 %
1700 20-03-2019 03:56:17 -2 C 53 %
Sensor: Nr:Datum:Temp:Feuchte:
Aussen-T/F 1701 20-03-2019 04:08:17 -2 C 54 %
1702 20-03-2019 04:20:18 -2.1 C 54 %
1703 20-03-2019 04:32:17 -2.2 C 54 %
1704 20-03-2019 04:44:17 -2.1 C 54 %
1705 20-03-2019 04:56:17 -2.1 C 55 %
1706 20-03-2019 05:08:17 -2.2 C 55 %
1707 20-03-2019 05:20:17 -2.3 C 54 %
1708 20-03-2019 05:32:17 -2.3 C 55 %
1709 20-03-2019 05:44:17 -2.3 C 55 %
1710 20-03-2019 05:56:17 -2.4 C 55 %
1711 20-03-2019 06:08:17 -2.4 C 55 %
1712 20-03-2019 06:20:17 -2.3 C 55 %
1713 20-03-2019 06:32:18 -2.3 C 55 %
1714 20-03-2019 06:44:18 -2.4 C 55 %
1715 20-03-2019 06:56:17 -2.4 C 55 %
1716 20-03-2019 07:08:17 -2.4 C 55 %
1717 20-03-2019 07:20:17 -2.3 C 55 %
1718 20-03-2019 07:32:17 -2.1 C 55 %
1719 20-03-2019 07:44:17 -2.1 C 55 %
1720 20-03-2019 07:56:17 -1.9 C 55 %
1721 20-03-2019 08:08:17 -1.8 C 55 %
1722 20-03-2019 08:20:17 -1.6 C 55 %
1723 20-03-2019 08:32:17 -1.4 C 55 %
1724 20-03-2019 08:44:17 -1.1 C 56 %
1725 20-03-2019 08:56:17 -0.8 C 55 %
Sensor: Nr:Datum:Temp:Feuchte:
Aussen-T/F 1726 20-03-2019 09:08:17 -0.4 C 55 %
1727 20-03-2019 09:20:17 -0.2 C 55 %
1728 20-03-2019 09:32:17 0.2 C 54 %
1729 20-03-2019 09:44:17 0.6 C 54 %
1730 20-03-2019 09:56:16 1.8 C 51 %
1731 20-03-2019 10:08:17 1.8 C 51 %
1732 20-03-2019 10:20:17 5.3 C 45 %
1733 20-03-2019 10:32:17 7 C 41 %
1734 20-03-2019 10:44:17 7.8 C 20 %
1735 20-03-2019 10:56:17 9.1 C 20 %
1736 20-03-2019 11:08:17 9.2 C 20 %
1737 20-03-2019 11:20:17 10.8 C 20 %
1738 20-03-2019 11:32:16 12.1 C 20 %
1739 20-03-2019 11:44:16 11.4 C 20 %
1740 20-03-2019 11:56:17 11.1 C 20 %
1741 20-03-2019 12:08:17 11.1 C 20 %
1742 20-03-2019 12:20:16 11.3 C 20 %
1743 20-03-2019 12:32:17 11.7 C 20 %
1744 20-03-2019 12:44:17 11.8 C 20 %
1745 20-03-2019 12:56:17 11.9 C 20 %
1746 20-03-2019 13:08:17 12.5 C 20 %
1747 20-03-2019 13:20:16 12.8 C 20 %
1748 20-03-2019 13:32:17 12.8 C 20 %
1749 20-03-2019 13:44:17 13 C 20 %
1750 20-03-2019 13:56:17 13.2 C 20 %
Sensor: Nr:Datum:Temp:Feuchte:
Aussen-T/F 1751 20-03-2019 14:08:17 12.9 C 20 %
1752 20-03-2019 14:20:16 13 C 20 %
1753 20-03-2019 14:32:17 13.2 C 20 %
1754 20-03-2019 14:44:17 13 C 20 %
1755 20-03-2019 14:56:17 13.5 C 20 %
1756 20-03-2019 15:08:16 13.7 C 20 %
1757 20-03-2019 15:20:16 13.7 C 20 %
1758 20-03-2019 15:32:17 13.6 C 20 %
1759 20-03-2019 15:44:18 14.2 C 20 %
1760 20-03-2019 15:56:16 13.9 C 20 %
1761 20-03-2019 16:08:16 13.9 C 20 %
1762 20-03-2019 16:20:17 14.1 C 20 %
1763 20-03-2019 16:32:16 14.2 C 20 %
1764 20-03-2019 16:44:16 14.4 C 20 %
1765 20-03-2019 16:56:16 14.7 C 20 %
1766 20-03-2019 17:08:17 15 C 20 %
1767 20-03-2019 17:20:16 14.8 C 20 %
1768 20-03-2019 17:32:17 16 C 20 %
1769 20-03-2019 17:44:17 16.4 C 20 %
1770 20-03-2019 17:56:17 16.2 C 20 %
1771 20-03-2019 18:08:16 12.9 C 20 %
1772 20-03-2019 18:20:17 10.8 C 20 %
1773 20-03-2019 18:32:17 9.7 C 20 %
1774 20-03-2019 18:44:17 8.9 C 20 %
1775 20-03-2019 18:56:16 8.3 C 20 %
Sensor: Nr:Datum:Temp:Feuchte:
Aussen-T/F 1776 20-03-2019 19:08:17 7.9 C 20 %
1777 20-03-2019 19:20:16 7.4 C 20 %
1778 20-03-2019 19:32:16 7.2 C 20 %
1779 20-03-2019 19:44:16 6.7 C 23 %
1780 20-03-2019 19:56:16 6.2 C 25 %
1781 20-03-2019 20:08:16 5.6 C 28 %
1782 20-03-2019 20:20:16 5.2 C 29 %
1783 20-03-2019 20:32:16 5 C 30 %
1784 20-03-2019 20:44:16 4.8 C 32 %
1785 20-03-2019 20:56:16 4.6 C 33 %
1786 20-03-2019 21:08:17 4.2 C 35 %
1787 20-03-2019 21:20:16 4.1 C 35 %
1788 20-03-2019 21:32:16 4 C 34 %
1789 20-03-2019 21:44:16 4 C 34 %
1790 20-03-2019 21:56:16 4 C 34 %
1791 20-03-2019 22:08:16 3.5 C 38 %
1792 20-03-2019 22:20:16 3.8 C 39 %
1793 20-03-2019 22:32:16 3.5 C 38 %
1794 20-03-2019 22:44:16 3.1 C 39 %
1795 20-03-2019 22:56:16 2.6 C 40 %
1796 20-03-2019 23:08:16 2.5 C 42 %
1797 20-03-2019 23:20:16 2.5 C 43 %
1798 20-03-2019 23:32:17 2.5 C 44 %
1799 20-03-2019 23:44:17 2.3 C 44 %
1800 20-03-2019 23:56:16 2.1 C 45 %
Sensor: Nr:Datum:Temp:Feuchte:
Aussen-T/F 1801 21-03-2019 00:08:16 2.1 C 45 %
1802 21-03-2019 00:20:16 1.8 C 46 %
1803 21-03-2019 00:32:16 1.8 C 47 %
1804 21-03-2019 00:44:16 1.9 C 48 %
1805 21-03-2019 00:56:16 1.9 C 47 %
1806 21-03-2019 01:08:16 1.3 C 46 %
1807 21-03-2019 01:20:16 1.1 C 47 %
1808 21-03-2019 01:32:16 1.1 C 48 %
1809 21-03-2019 01:44:16 0.8 C 50 %
1810 21-03-2019 01:56:16 0.6 C 51 %
1811 21-03-2019 02:08:16 0.5 C 51 %
1812 21-03-2019 02:20:16 0.4 C 52 %
1813 21-03-2019 02:32:16 0.4 C 52 %
1814 21-03-2019 02:44:16 0.3 C 53 %
1815 21-03-2019 02:56:17 0.1 C 53 %
1816 21-03-2019 03:08:17 0 C 53 %
1817 21-03-2019 03:20:17 -0.2 C 53 %
1818 21-03-2019 03:32:17 -0.2 C 54 %
1819 21-03-2019 03:44:17 -0.3 C 54 %
1820 21-03-2019 03:56:17 -0.4 C 54 %
1821 21-03-2019 04:08:18 -0.3 C 55 %
1822 21-03-2019 04:20:17 -0.4 C 55 %
1823 21-03-2019 04:32:17 -0.2 C 55 %
1824 21-03-2019 04:44:18 -0.4 C 55 %
1825 21-03-2019 04:56:17 -0.5 C 55 %
Sensor: Nr:Datum:Temp:Feuchte:
Aussen-T/F 1826 21-03-2019 05:08:17 -0.7 C 55 %
1827 21-03-2019 05:20:17 -0.5 C 56 %
1828 21-03-2019 05:32:17 -0.6 C 55 %
1829 21-03-2019 05:44:17 -0.9 C 55 %
1830 21-03-2019 05:56:17 -0.9 C 55 %
1831 21-03-2019 06:08:17 -1 C 55 %
1832 21-03-2019 06:20:17 -0.9 C 56 %
1833 21-03-2019 06:32:17 -0.9 C 56 %
1834 21-03-2019 06:44:18 -1 C 56 %
1835 21-03-2019 06:56:17 -0.8 C 56 %
1836 21-03-2019 07:08:17 -0.7 C 56 %
1837 21-03-2019 07:20:17 -0.5 C 56 %
1838 21-03-2019 07:32:17 0.2 C 57 %
1839 21-03-2019 07:44:17 0.1 C 56 %
1840 21-03-2019 07:56:17 0.2 C 56 %
1841 21-03-2019 08:08:17 0.3 C 55 %
1842 21-03-2019 08:20:17 0.5 C 55 %
1843 21-03-2019 08:32:17 0.5 C 55 %
1844 21-03-2019 08:44:17 0.8 C 55 %
1845 21-03-2019 08:56:17 1.1 C 55 %
1846 21-03-2019 09:08:17 1.4 C 55 %
1847 21-03-2019 09:20:17 1.6 C 54 %
1848 21-03-2019 09:32:17 1.8 C 54 %
1849 21-03-2019 09:44:17 2.5 C 54 %
1850 21-03-2019 09:56:17 3.7 C 51 %
Sensor: Nr:Datum:Temp:Feuchte:
Aussen-T/F 1851 21-03-2019 10:08:17 4.5 C 45 %
1852 21-03-2019 10:20:17 5.4 C 41 %
1853 21-03-2019 10:32:17 8.2 C 28 %
1854 21-03-2019 10:44:18 8.3 C 27 %
1855 21-03-2019 10:56:17 10.4 C 21 %
1856 21-03-2019 11:08:17 9.9 C 20 %
1857 21-03-2019 11:20:17 10.6 C 21 %
1858 21-03-2019 11:32:17 12.9 C 20 %
1859 21-03-2019 11:44:17 12.1 C 20 %
1860 21-03-2019 11:56:17 11.4 C 20 %
1861 21-03-2019 12:08:17 11.8 C 20 %
1862 21-03-2019 12:20:17 12.2 C 20 %
1863 21-03-2019 12:32:17 12.8 C 20 %
1864 21-03-2019 12:44:17 13 C 20 %
1865 21-03-2019 12:56:17 13.4 C 20 %
1866 21-03-2019 13:08:17 14 C 20 %
1867 21-03-2019 13:20:17 14.3 C 20 %
1868 21-03-2019 13:32:17 14.6 C 20 %
1869 21-03-2019 13:44:17 14.7 C 20 %
1870 21-03-2019 13:56:17 14.7 C 20 %
1871 21-03-2019 14:08:18 14.8 C 20 %
1872 21-03-2019 14:20:17 15.1 C 20 %
1873 21-03-2019 14:32:17 15.2 C 20 %
1874 21-03-2019 14:44:17 15.6 C 20 %
1875 21-03-2019 14:56:17 15.9 C 20 %
Sensor: Nr:Datum:Temp:Feuchte:
Aussen-T/F 1876 21-03-2019 15:08:17 16.1 C 20 %
1877 21-03-2019 15:20:17 16.6 C 20 %
1878 21-03-2019 15:32:17 16.8 C 20 %
1879 21-03-2019 15:44:17 17 C 20 %
1880 21-03-2019 15:56:17 17.4 C 20 %
1881 21-03-2019 16:08:17 17.8 C 20 %
1882 21-03-2019 16:20:17 17.7 C 20 %
1883 21-03-2019 16:32:17 17.8 C 20 %
1884 21-03-2019 16:44:17 18.2 C 20 %
1885 21-03-2019 16:56:17 18.2 C 20 %
1886 21-03-2019 17:08:17 18.2 C 20 %
1887 21-03-2019 17:20:17 18.3 C 20 %
1888 21-03-2019 17:32:18 18.5 C 20 %
1889 21-03-2019 17:44:18 19.2 C 20 %
1890 21-03-2019 17:56:18 19.5 C 20 %
1891 21-03-2019 18:08:17 16.4 C 20 %
1892 21-03-2019 18:20:17 13.9 C 20 %
1893 21-03-2019 18:32:17 12.5 C 20 %
1894 21-03-2019 18:44:17 11.6 C 20 %
1895 21-03-2019 18:56:17 11.1 C 20 %
1896 21-03-2019 19:08:18 10.5 C 20 %
1897 21-03-2019 19:20:17 9.9 C 20 %
1898 21-03-2019 19:32:17 9.3 C 20 %
1899 21-03-2019 19:44:17 9 C 20 %
1900 21-03-2019 19:56:17 8.7 C 20 %
Sensor: Nr:Datum:Temp:Feuchte:
Aussen-T/F 1901 21-03-2019 20:08:17 8.1 C 20 %
1902 21-03-2019 20:20:17 7.7 C 20 %
1903 21-03-2019 20:32:18 7.4 C 21 %
1904 21-03-2019 20:44:18 7.2 C 23 %
1905 21-03-2019 20:56:17 6.8 C 25 %
1906 21-03-2019 21:08:17 6.4 C 26 %
1907 21-03-2019 21:20:17 6.2 C 25 %
1908 21-03-2019 21:32:18 5.9 C 25 %
1909 21-03-2019 21:44:18 5.4 C 26 %
1910 21-03-2019 21:56:17 5.2 C 28 %
1911 21-03-2019 22:08:17 5.3 C 28 %
1912 21-03-2019 22:20:17 4.8 C 28 %
1913 21-03-2019 22:32:17 4.5 C 30 %
1914 21-03-2019 22:44:17 4.3 C 31 %
1915 21-03-2019 22:56:18 4.1 C 32 %
1916 21-03-2019 23:08:17 3.9 C 35 %
1917 21-03-2019 23:20:17 3.8 C 34 %
1918 21-03-2019 23:32:17 3.5 C 35 %
1919 21-03-2019 23:44:17 3.4 C 37 %
1920 21-03-2019 23:56:17 3.2 C 36 %
1921 22-03-2019 00:08:17 3.2 C 36 %
1922 22-03-2019 00:20:17 2.8 C 38 %
1923 22-03-2019 00:32:17 2.7 C 40 %
1924 22-03-2019 00:44:17 2.6 C 41 %
1925 22-03-2019 00:56:17 2.5 C 41 %
Sensor: Nr:Datum:Temp:Feuchte:
Aussen-T/F 1926 22-03-2019 01:08:17 2.4 C 42 %
1927 22-03-2019 01:20:17 2.3 C 42 %
1928 22-03-2019 01:32:17 2.1 C 43 %
1929 22-03-2019 01:44:17 2 C 44 %
1930 22-03-2019 01:56:17 1.9 C 45 %
1931 22-03-2019 02:08:17 1.7 C 45 %
1932 22-03-2019 02:20:17 1.6 C 46 %
1933 22-03-2019 02:32:17 1.3 C 46 %
1934 22-03-2019 02:44:17 1.3 C 47 %
1935 22-03-2019 02:56:17 1.2 C 48 %
1936 22-03-2019 03:08:17 1 C 49 %
1937 22-03-2019 03:20:17 0.9 C 51 %
1938 22-03-2019 03:32:18 1.1 C 50 %
1939 22-03-2019 03:44:18 0.7 C 51 %
1940 22-03-2019 03:56:18 0.7 C 51 %
1941 22-03-2019 04:08:17 0.7 C 52 %
1942 22-03-2019 04:20:17 0.5 C 52 %
1943 22-03-2019 04:32:17 0.5 C 53 %
1944 22-03-2019 04:44:17 0.3 C 53 %
1945 22-03-2019 04:56:18 0.3 C 54 %
1946 22-03-2019 05:08:18 0.2 C 54 %
1947 22-03-2019 05:20:17 0.2 C 54 %
1948 22-03-2019 05:32:17 0.1 C 54 %
1949 22-03-2019 05:44:17 0 C 54 %
1950 22-03-2019 05:56:17 0.1 C 55 %
Sensor: Nr:Datum:Temp:Feuchte:
Aussen-T/F 1951 22-03-2019 06:08:18 0 C 55 %
1952 22-03-2019 06:20:17 -0.3 C 55 %
1953 22-03-2019 06:32:17 -0.3 C 55 %
1954 22-03-2019 06:44:17 -0.4 C 55 %
1955 22-03-2019 06:56:17 -0.2 C 56 %
1956 22-03-2019 07:08:17 0 C 56 %
1957 22-03-2019 07:20:17 0.2 C 56 %
1958 22-03-2019 07:32:17 0.2 C 56 %
1959 22-03-2019 07:44:17 0.4 C 56 %
1960 22-03-2019 07:56:17 0.5 C 56 %
1961 22-03-2019 08:08:17 0.9 C 56 %
1962 22-03-2019 08:20:18 1.1 C 55 %
1963 22-03-2019 08:32:18 1.2 C 55 %
1964 22-03-2019 08:44:18 1.4 C 56 %
1965 22-03-2019 08:56:17 1.9 C 56 %
1966 22-03-2019 09:08:17 2 C 55 %
1967 22-03-2019 09:20:17 2.5 C 55 %
1968 22-03-2019 09:32:18 3.2 C 54 %
1969 22-03-2019 09:44:18 4 C 53 %
1970 22-03-2019 09:56:17 5.1 C 49 %
1971 22-03-2019 10:08:17 6.1 C 41 %
1972 22-03-2019 10:20:17 7.8 C 35 %
1973 22-03-2019 10:32:17 9.8 C 27 %
1974 22-03-2019 10:44:17 10.7 C 23 %
1975 22-03-2019 10:56:18 13.4 C 20 %
Sensor: Nr:Datum:Temp:Feuchte:
Aussen-T/F 1976 22-03-2019 11:08:17 12.7 C 20 %
1977 22-03-2019 11:20:17 13.2 C 20 %
1978 22-03-2019 11:32:17 15.2 C 20 %
1979 22-03-2019 11:44:17 15.2 C 20 %
1980 22-03-2019 11:56:17 14.6 C 20 %
1981 22-03-2019 12:08:18 14.8 C 20 %
1982 22-03-2019 12:20:17 15.3 C 20 %
1983 22-03-2019 12:32:17 15.6 C 20 %
1984 22-03-2019 12:44:17 16.3 C 20 %
1985 22-03-2019 12:56:17 16.7 C 20 %
1986 22-03-2019 13:08:17 17.2 C 20 %
1987 22-03-2019 13:20:18 17.2 C 20 %
1988 22-03-2019 13:32:18 17.7 C 20 %
1989 22-03-2019 13:44:18 17.7 C 20 %
1990 22-03-2019 13:56:17 18.5 C 20 %
1991 22-03-2019 14:08:17 18.5 C 20 %
1992 22-03-2019 14:20:17 18.5 C 20 %
1993 22-03-2019 14:32:17 18.6 C 20 %
1994 22-03-2019 14:44:17 18.8 C 20 %
1995 22-03-2019 14:56:18 19 C 20 %
1996 22-03-2019 15:08:17 19.5 C 20 %
1997 22-03-2019 15:20:17 19 C 20 %
1998 22-03-2019 15:32:17 19 C 20 %
1999 22-03-2019 15:44:17 19.2 C 20 %
2000 22-03-2019 15:56:17 19.1 C 20 %
Sensor: Nr:Datum:Temp:Feuchte:
Aussen-T/F 2001 22-03-2019 16:08:18 19.4 C 20 %
2002 22-03-2019 16:20:17 19.3 C 20 %
2003 22-03-2019 16:32:17 20 C 20 %
2004 22-03-2019 16:44:17 20.4 C 20 %
2005 22-03-2019 16:56:17 20.8 C 20 %
2006 22-03-2019 17:08:17 20.5 C 20 %
2007 22-03-2019 17:20:17 20.8 C 20 %
2008 22-03-2019 17:32:18 21.1 C 20 %
2009 22-03-2019 17:44:18 23 C 20 %
2010 22-03-2019 17:56:17 20.7 C 20 %
2011 22-03-2019 18:08:17 18.3 C 20 %
2012 22-03-2019 18:20:17 15.8 C 20 %
2013 22-03-2019 18:32:17 14 C 20 %
2014 22-03-2019 18:44:18 13.4 C 20 %
2015 22-03-2019 18:56:17 12.4 C 20 %
2016 22-03-2019 19:08:17 12 C 20 %
2017 22-03-2019 19:20:17 11.3 C 20 %
2018 22-03-2019 19:32:17 10.8 C 20 %
2019 22-03-2019 19:44:18 10.5 C 20 %
2020 22-03-2019 19:56:18 10.5 C 20 %
2021 22-03-2019 20:08:18 10.2 C 20 %
2022 22-03-2019 20:20:17 10.2 C 20 %
2023 22-03-2019 20:32:17 9.8 C 20 %
2024 22-03-2019 20:44:17 9.5 C 20 %
2025 22-03-2019 20:56:17 8.6 C 20 %
Sensor: Nr:Datum:Temp:Feuchte:
Aussen-T/F 2026 22-03-2019 21:08:17 8 C 20 %
2027 22-03-2019 21:20:17 7.3 C 20 %
2028 22-03-2019 21:32:17 7 C 23 %
2029 22-03-2019 21:44:17 6.9 C 25 %
2030 22-03-2019 21:56:17 6.5 C 23 %
2031 22-03-2019 22:08:17 5.9 C 26 %
2032 22-03-2019 22:20:17 6 C 30 %
2033 22-03-2019 22:32:17 6.4 C 30 %
2034 22-03-2019 22:44:17 6.2 C 28 %
2035 22-03-2019 22:56:17 6 C 29 %
2036 22-03-2019 23:08:17 5.6 C 30 %
2037 22-03-2019 23:20:17 5.2 C 30 %
2038 22-03-2019 23:32:17 4.8 C 31 %
2039 22-03-2019 23:44:18 4.7 C 32 %
2040 22-03-2019 23:56:17 4.7 C 35 %
2041 23-03-2019 00:08:17 4.4 C 33 %
2042 23-03-2019 00:20:17 4.3 C 34 %
2043 23-03-2019 00:32:17 3.8 C 35 %
2044 23-03-2019 00:44:17 3.7 C 36 %
2045 23-03-2019 00:56:17 3.5 C 37 %
2046 23-03-2019 01:08:17 3.5 C 38 %
2047 23-03-2019 01:20:17 3.9 C 40 %
2048 23-03-2019 01:32:17 3.1 C 38 %
2049 23-03-2019 01:44:17 3 C 40 %
2050 23-03-2019 01:56:17 2.8 C 41 %
Sensor: Nr:Datum:Temp:Feuchte:
Aussen-T/F 2051 23-03-2019 02:08:17 2.5 C 42 %
2052 23-03-2019 02:20:17 2.6 C 44 %
2053 23-03-2019 02:32:17 2.6 C 45 %
2054 23-03-2019 02:44:17 2.6 C 45 %
2055 23-03-2019 02:56:17 2.8 C 45 %
2056 23-03-2019 03:08:17 2.5 C 45 %
2057 23-03-2019 03:20:17 2.3 C 45 %
2058 23-03-2019 03:32:17 2 C 45 %
2059 23-03-2019 03:44:18 2 C 47 %
2060 23-03-2019 03:56:18 2.3 C 48 %
2061 23-03-2019 04:08:17 2.2 C 48 %
2062 23-03-2019 04:20:17 2 C 48 %
2063 23-03-2019 04:32:17 2.4 C 49 %
2064 23-03-2019 04:44:17 2 C 47 %
2065 23-03-2019 04:56:17 2.3 C 48 %
2066 23-03-2019 05:08:18 2.2 C 47 %
2067 23-03-2019 05:20:17 2 C 47 %
2068 23-03-2019 05:32:17 2.3 C 48 %
2069 23-03-2019 05:44:17 1.8 C 47 %
2070 23-03-2019 05:56:17 1.3 C 47 %
2071 23-03-2019 06:08:17 1.1 C 48 %
2072 23-03-2019 06:20:17 1.2 C 50 %
2073 23-03-2019 06:32:18 1.4 C 51 %
2074 23-03-2019 06:44:18 1.6 C 52 %
2075 23-03-2019 06:56:18 1.3 C 51 %
Sensor: Nr:Datum:Temp:Feuchte:
Aussen-T/F 2076 23-03-2019 07:08:17 1.3 C 51 %
2077 23-03-2019 07:20:17 3.4 C 55 %
2078 23-03-2019 07:32:17 4.7 C 54 %
2079 23-03-2019 07:44:17 5 C 50 %
2080 23-03-2019 07:56:17 5.4 C 49 %
2081 23-03-2019 08:08:17 5.7 C 48 %
2082 23-03-2019 08:20:17 5.8 C 48 %
2083 23-03-2019 08:32:17 5.9 C 48 %
2084 23-03-2019 08:44:17 6 C 47 %
2085 23-03-2019 08:56:17 6.1 C 46 %
2086 23-03-2019 09:08:17 6.3 C 45 %
2087 23-03-2019 09:20:24 6.4 C 44 %
2088 23-03-2019 09:32:17 6.6 C 43 %
2089 23-03-2019 09:44:17 6.7 C 41 %
2090 23-03-2019 09:56:18 6.9 C 41 %
2091 23-03-2019 10:08:17 7 C 42 %
2092 23-03-2019 10:20:17 7 C 42 %
2093 23-03-2019 10:32:18 7 C 42 %
2094 23-03-2019 10:44:18 7.1 C 42 %
2095 23-03-2019 10:56:17 7 C 41 %
2096 23-03-2019 11:08:17 7.1 C 40 %
2097 23-03-2019 11:20:17 7.5 C 40 %
2098 23-03-2019 11:32:17 7.5 C 39 %
2099 23-03-2019 11:44:17 7.6 C 38 %
2100 23-03-2019 11:56:17 7.9 C 38 %
Sensor: Nr:Datum:Temp:Feuchte:
Aussen-T/F 2101 23-03-2019 12:08:17 7.8 C 37 %
2102 23-03-2019 12:20:17 8.1 C 35 %
2103 23-03-2019 12:32:17 8.3 C 35 %
2104 23-03-2019 12:44:17 8.2 C 34 %
2105 23-03-2019 12:56:17 8.6 C 34 %
2106 23-03-2019 13:08:17 8.8 C 32 %
2107 23-03-2019 13:20:17 8.8 C 31 %
2108 23-03-2019 13:32:18 9.1 C 30 %
2109 23-03-2019 13:44:18 9 C 30 %
2110 23-03-2019 13:56:17 9.6 C 30 %
2111 23-03-2019 14:08:17 9.4 C 27 %
2112 23-03-2019 14:20:17 9.5 C 27 %
2113 23-03-2019 14:32:17 9.6 C 26 %
2114 23-03-2019 14:44:17 9.6 C 25 %
2115 23-03-2019 14:56:17 10.1 C 23 %
2116 23-03-2019 15:08:17 10.2 C 25 %
2117 23-03-2019 15:20:18 9.8 C 21 %
2118 23-03-2019 15:32:17 10 C 20 %
2119 23-03-2019 15:44:17 10.3 C 20 %
2120 23-03-2019 15:56:17 10.2 C 20 %
2121 23-03-2019 16:08:18 10.3 C 20 %
2122 23-03-2019 16:20:18 10.2 C 20 %
2123 23-03-2019 16:32:18 10.4 C 20 %
2124 23-03-2019 16:44:18 10.6 C 20 %
2125 23-03-2019 16:56:18 10.5 C 20 %
Sensor: Nr:Datum:Temp:Feuchte:
Aussen-T/F 2126 23-03-2019 17:08:18 10.5 C 20 %
2127 23-03-2019 17:20:18 10.3 C 20 %
2128 23-03-2019 17:32:18 10.2 C 20 %
2129 23-03-2019 17:44:18 9.6 C 20 %
2130 23-03-2019 17:56:17 9.9 C 20 %
2131 23-03-2019 18:08:17 9.6 C 20 %
2132 23-03-2019 18:20:18 8.4 C 26 %
2133 23-03-2019 18:32:18 7.5 C 28 %
2134 23-03-2019 18:44:18 7.1 C 32 %
2135 23-03-2019 18:56:17 6.4 C 35 %
2136 23-03-2019 19:08:18 6.2 C 36 %
2137 23-03-2019 19:20:17 5.8 C 38 %
2138 23-03-2019 19:32:17 5.4 C 39 %
2139 23-03-2019 19:44:17 5.2 C 42 %
2140 23-03-2019 19:56:18 4.7 C 42 %
2141 23-03-2019 20:08:18 4.3 C 45 %
2142 23-03-2019 20:20:17 4.1 C 45 %
2143 23-03-2019 20:32:18 3.7 C 47 %
2144 23-03-2019 20:44:18 3.7 C 48 %
2145 23-03-2019 20:56:17 3.5 C 49 %
2146 23-03-2019 21:08:17 3.3 C 50 %
2147 23-03-2019 21:20:18 3.1 C 50 %
2148 23-03-2019 21:32:18 2.8 C 51 %
2149 23-03-2019 21:44:18 2.6 C 52 %
2150 23-03-2019 21:56:17 2.5 C 52 %
Sensor: Nr:Datum:Temp:Feuchte:
Aussen-T/F 2151 23-03-2019 22:08:18 2.4 C 53 %
2152 23-03-2019 22:20:18 2.2 C 53 %
2153 23-03-2019 22:32:18 2.1 C 53 %
2154 23-03-2019 22:44:18 1.9 C 55 %
2155 23-03-2019 22:56:17 1.9 C 55 %
2156 23-03-2019 23:08:18 1.8 C 55 %
2157 23-03-2019 23:20:18 1.8 C 56 %
2158 23-03-2019 23:32:18 1.6 C 55 %
2159 23-03-2019 23:44:18 1.5 C 56 %
2160 23-03-2019 23:56:17 1.4 C 56 %
2161 24-03-2019 00:08:17 1.2 C 56 %
2162 24-03-2019 00:20:18 1.2 C 55 %
2163 24-03-2019 00:32:18 1 C 56 %
2164 24-03-2019 00:44:18 1.2 C 57 %
2165 24-03-2019 00:56:17 1.2 C 57 %
2166 24-03-2019 01:08:17 0.9 C 57 %
2167 24-03-2019 01:20:18 0.7 C 57 %
2168 24-03-2019 01:32:18 0.5 C 57 %
2169 24-03-2019 01:44:18 0.4 C 58 %
2170 24-03-2019 01:56:17 0.3 C 58 %
2171 24-03-2019 02:08:18 0.2 C 59 %
2172 24-03-2019 02:20:18 0.2 C 59 %
2173 24-03-2019 02:32:18 0 C 59 %
2174 24-03-2019 02:44:18 -0.1 C 59 %
2175 24-03-2019 02:56:17 -0.1 C 60 %
Sensor: Nr:Datum:Temp:Feuchte:
Aussen-T/F 2176 24-03-2019 03:08:18 -0.1 C 63 %
2177 24-03-2019 03:20:17 -0.3 C 63 %
2178 24-03-2019 03:32:17 -0.3 C 64 %
2179 24-03-2019 03:44:18 -0.2 C 64 %
2180 24-03-2019 03:56:17 -0.2 C 64 %
2181 24-03-2019 04:08:18 -0.4 C 65 %
2182 24-03-2019 04:20:18 -0.2 C 68 %
2183 24-03-2019 04:32:18 -0.2 C 68 %
2184 24-03-2019 04:44:18 0.4 C 72 %
2185 24-03-2019 04:56:18 1 C 73 %
2186 24-03-2019 05:08:18 1.3 C 74 %
2187 24-03-2019 05:20:18 1.4 C 74 %
2188 24-03-2019 05:32:18 1.5 C 73 %
2189 24-03-2019 05:44:18 1.6 C 72 %
2190 24-03-2019 05:56:18 1.7 C 72 %
2191 24-03-2019 06:08:18 2.1 C 69 %
2192 24-03-2019 06:20:17 2 C 67 %
2193 24-03-2019 06:32:17 2.1 C 66 %
2194 24-03-2019 06:44:18 2.2 C 64 %
2195 24-03-2019 06:56:18 2.3 C 62 %
2196 24-03-2019 07:08:18 2.4 C 59 %
2197 24-03-2019 07:20:18 2.5 C 55 %
2198 24-03-2019 07:32:18 2.7 C 53 %
2199 24-03-2019 07:44:18 2.8 C 52 %
2200 24-03-2019 07:56:18 3 C 50 %
Sensor: Nr:Datum:Temp:Feuchte:
Aussen-T/F 2201 24-03-2019 08:08:17 3.5 C 48 %
2202 24-03-2019 08:20:18 3.6 C 46 %
2203 24-03-2019 08:32:18 4.1 C 44 %
2204 24-03-2019 08:44:18 4.4 C 43 %
2205 24-03-2019 08:56:18 4.8 C 39 %
2206 24-03-2019 09:08:17 4.9 C 37 %
2207 24-03-2019 09:20:18 5 C 36 %
2208 24-03-2019 09:32:18 5.4 C 36 %
2209 24-03-2019 09:44:18 5.9 C 36 %
2210 24-03-2019 09:56:18 6.5 C 35 %
2211 24-03-2019 10:08:17 7 C 34 %
2212 24-03-2019 10:20:17 7.6 C 33 %
2213 24-03-2019 10:32:17 7.8 C 32 %
2214 24-03-2019 10:44:17 8.2 C 30 %
2215 24-03-2019 10:56:17 8.7 C 30 %
2216 24-03-2019 11:08:17 10.1 C 27 %
2217 24-03-2019 11:20:17 11.1 C 25 %
2218 24-03-2019 11:32:17 12.2 C 20 %
2219 24-03-2019 11:44:18 12.1 C 20 %
2220 24-03-2019 11:56:18 12.7 C 20 %
2221 24-03-2019 12:08:17 12.6 C 20 %
2222 24-03-2019 12:20:17 12.6 C 20 %
2223 24-03-2019 12:32:17 12.9 C 20 %
2224 24-03-2019 12:44:17 12.7 C 20 %
2225 24-03-2019 12:56:17 11.5 C 21 %
Sensor: Nr:Datum:Temp:Feuchte:
Aussen-T/F 2226 24-03-2019 13:08:17 11.4 C 23 %
2227 24-03-2019 13:20:17 10.8 C 26 %
2228 24-03-2019 13:32:17 10.6 C 26 %
2229 24-03-2019 13:44:17 10.8 C 25 %
2230 24-03-2019 13:56:17 11.1 C 26 %
2231 24-03-2019 14:08:17 10.8 C 27 %
2232 24-03-2019 14:20:17 11 C 26 %
2233 24-03-2019 14:32:17 11.2 C 26 %
2234 24-03-2019 14:44:17 11.4 C 25 %
2235 24-03-2019 14:56:17 11.3 C 25 %
2236 24-03-2019 15:08:17 11 C 25 %
2237 24-03-2019 15:20:17 11.1 C 22 %
2238 24-03-2019 15:32:17 11.6 C 20 %
2239 24-03-2019 15:44:18 11.9 C 20 %
2240 24-03-2019 15:56:17 12.2 C 20 %
2241 24-03-2019 16:08:17 12.3 C 20 %
2242 24-03-2019 16:20:17 12.3 C 20 %
2243 24-03-2019 16:32:17 12.4 C 20 %
2244 24-03-2019 16:44:17 12.1 C 20 %
2245 24-03-2019 16:56:17 11.7 C 20 %
2246 24-03-2019 17:08:17 12.1 C 20 %
2247 24-03-2019 17:20:17 12.7 C 20 %
2248 24-03-2019 17:32:17 13 C 20 %
2249 24-03-2019 17:44:17 13.8 C 20 %
2250 24-03-2019 17:56:17 12.9 C 20 %
Sensor: Nr:Datum:Temp:Feuchte:
Aussen-T/F 2251 24-03-2019 18:08:17 12.4 C 20 %
2252 24-03-2019 18:20:18 10.8 C 20 %
2253 24-03-2019 18:32:17 10.1 C 20 %
2254 24-03-2019 18:44:17 9.8 C 20 %
2255 24-03-2019 18:56:17 8.9 C 20 %
2256 24-03-2019 19:08:17 8.4 C 20 %
2257 24-03-2019 19:20:18 8 C 20 %
2258 24-03-2019 19:32:17 7.8 C 20 %
2259 24-03-2019 19:44:17 7.8 C 20 %
2260 24-03-2019 19:56:18 7 C 20 %
2261 24-03-2019 20:08:17 6.5 C 20 %
2262 24-03-2019 20:20:17 6.3 C 20 %
2263 24-03-2019 20:32:17 5.8 C 20 %
2264 24-03-2019 20:44:17 5.5 C 20 %
2265 24-03-2019 20:56:18 5.7 C 20 %
2266 24-03-2019 21:08:17 4.6 C 20 %
2267 24-03-2019 21:20:18 4.6 C 25 %
2268 24-03-2019 21:32:17 4.1 C 25 %
2269 24-03-2019 21:44:17 4 C 26 %
2270 24-03-2019 21:56:17 3.4 C 30 %
2271 24-03-2019 22:08:17 3.4 C 31 %
2272 24-03-2019 22:20:18 2.7 C 32 %
2273 24-03-2019 22:32:17 2.8 C 33 %
2274 24-03-2019 22:44:17 2.4 C 33 %
2275 24-03-2019 22:56:17 2.3 C 35 %
Sensor: Nr:Datum:Temp:Feuchte:
Aussen-T/F 2276 24-03-2019 23:08:17 2.4 C 36 %
2277 24-03-2019 23:20:17 2.4 C 36 %
2278 24-03-2019 23:32:17 2.4 C 34 %
2279 24-03-2019 23:44:17 2.5 C 33 %
2280 24-03-2019 23:56:18 2.6 C 33 %
2281 25-03-2019 00:08:17 2.6 C 32 %
2282 25-03-2019 00:20:18 2.5 C 33 %
2283 25-03-2019 00:32:17 2.1 C 33 %
2284 25-03-2019 00:44:17 1.5 C 36 %
2285 25-03-2019 00:56:17 1.7 C 38 %
2286 25-03-2019 01:08:18 0.9 C 40 %
2287 25-03-2019 01:20:17 0.4 C 41 %
2288 25-03-2019 01:32:17 0.2 C 43 %
2289 25-03-2019 01:44:17 0.1 C 45 %
2290 25-03-2019 01:56:18 0.3 C 46 %
2291 25-03-2019 02:08:17 0.7 C 47 %
2292 25-03-2019 02:20:17 1.3 C 45 %
2293 25-03-2019 02:32:17 1.7 C 41 %
2294 25-03-2019 02:44:17 1.6 C 40 %
2295 25-03-2019 02:56:17 1.6 C 39 %
2296 25-03-2019 03:08:17 1.6 C 39 %
2297 25-03-2019 03:20:17 1.6 C 39 %
2298 25-03-2019 03:32:17 1.5 C 40 %
2299 25-03-2019 03:44:17 1.7 C 39 %
2300 25-03-2019 03:56:17 1.7 C 39 %
Sensor: Nr:Datum:Temp:Feuchte:
Aussen-T/F 2301 25-03-2019 04:08:17 1.7 C 39 %
2302 25-03-2019 04:20:17 2 C 37 %
2303 25-03-2019 04:32:17 2.7 C 35 %
2304 25-03-2019 04:44:17 2.8 C 31 %
2305 25-03-2019 04:56:17 2.8 C 31 %
2306 25-03-2019 05:08:17 2.8 C 31 %
2307 25-03-2019 05:20:17 3.3 C 30 %
2308 25-03-2019 05:32:17 3.1 C 30 %
2309 25-03-2019 05:44:17 3.1 C 30 %
2310 25-03-2019 05:56:18 3 C 30 %
2311 25-03-2019 06:08:17 3 C 31 %
2312 25-03-2019 06:20:17 3.1 C 31 %
2313 25-03-2019 06:32:17 3.1 C 31 %
2314 25-03-2019 06:44:17 3.1 C 31 %
2315 25-03-2019 06:56:17 3.3 C 32 %
2316 25-03-2019 07:08:18 3.9 C 31 %
2317 25-03-2019 07:20:17 4 C 30 %
2318 25-03-2019 07:32:17 3.5 C 35 %
2319 25-03-2019 07:44:17 3.5 C 36 %
2320 25-03-2019 07:56:17 3.1 C 38 %
2321 25-03-2019 08:08:17 3.3 C 45 %
2322 25-03-2019 08:20:17 3.5 C 48 %
2323 25-03-2019 08:32:18 4 C 48 %
2324 25-03-2019 08:44:18 4 C 47 %
2325 25-03-2019 08:56:17 4.6 C 47 %
Sensor: Nr:Datum:Temp:Feuchte:
Aussen-T/F 2326 25-03-2019 09:08:17 5.4 C 36 %
2327 25-03-2019 09:20:17 5.1 C 35 %
2328 25-03-2019 09:32:17 5.5 C 35 %
2329 25-03-2019 09:44:17 5.3 C 32 %
2330 25-03-2019 09:56:17 6.7 C 25 %
2331 25-03-2019 10:08:18 7 C 20 %
2332 25-03-2019 10:20:17 7 C 20 %
2333 25-03-2019 10:32:17 7.9 C 20 %
2334 25-03-2019 10:44:17 6.1 C 25 %
2335 25-03-2019 10:56:17 7.3 C 20 %
2336 25-03-2019 11:08:18 7.2 C 20 %
2337 25-03-2019 11:20:17 7.6 C 20 %
2338 25-03-2019 11:32:18 6.3 C 20 %
2339 25-03-2019 11:44:18 6.4 C 30 %
2340 25-03-2019 11:56:17 6.9 C 26 %
2341 25-03-2019 12:08:18 6.6 C 25 %
2342 25-03-2019 12:20:17 6.8 C 27 %
2343 25-03-2019 12:32:18 8.3 C 21 %
2344 25-03-2019 12:44:18 6.9 C 23 %
2345 25-03-2019 12:56:17 6.3 C 32 %
2346 25-03-2019 13:08:17 5.5 C 33 %
2347 25-03-2019 13:20:17 6.2 C 38 %
2348 25-03-2019 13:32:17 6.7 C 30 %
2349 25-03-2019 13:44:17 8.2 C 25 %
2350 25-03-2019 13:56:17 8.1 C 20 %
Sensor: Nr:Datum:Temp:Feuchte:
Aussen-T/F 2351 25-03-2019 14:08:17 7 C 20 %
2352 25-03-2019 14:20:17 6.1 C 26 %
2353 25-03-2019 14:32:18 7.1 C 27 %
2354 25-03-2019 14:44:18 7.4 C 23 %
2355 25-03-2019 14:56:17 7.5 C 26 %
2356 25-03-2019 15:08:18 7.4 C 25 %
2357 25-03-2019 15:20:17 6.4 C 27 %
2358 25-03-2019 15:32:18 6.4 C 36 %
2359 25-03-2019 15:44:18 6.9 C 35 %
2360 25-03-2019 15:56:17 7.2 C 35 %
2361 25-03-2019 16:08:18 7.3 C 31 %
2362 25-03-2019 16:20:17 7.2 C 30 %
2363 25-03-2019 16:32:18 7 C 31 %
2364 25-03-2019 16:44:18 5.9 C 35 %
2365 25-03-2019 16:56:17 5.4 C 40 %
2366 25-03-2019 17:08:17 5.2 C 43 %
2367 25-03-2019 17:20:18 4.7 C 45 %
2368 25-03-2019 17:32:17 4.7 C 45 %
2369 25-03-2019 17:44:17 4.5 C 48 %
2370 25-03-2019 17:56:17 4.6 C 51 %
2371 25-03-2019 18:08:17 4.6 C 52 %
2372 25-03-2019 18:20:17 4.6 C 53 %
2373 25-03-2019 18:32:17 4.6 C 53 %
2374 25-03-2019 18:44:17 4.6 C 53 %
2375 25-03-2019 18:56:17 4.6 C 53 %
Sensor: Nr:Datum:Temp:Feuchte:
Aussen-T/F 2376 25-03-2019 19:08:17 4.5 C 53 %
2377 25-03-2019 19:20:17 4 C 52 %
2378 25-03-2019 19:32:17 4 C 53 %
2379 25-03-2019 19:44:17 4.2 C 53 %
2380 25-03-2019 19:56:17 4.3 C 53 %
2381 25-03-2019 20:08:18 4.3 C 53 %
2382 25-03-2019 20:20:17 4.4 C 53 %
2383 25-03-2019 20:32:17 4.1 C 53 %
2384 25-03-2019 20:44:17 4.3 C 54 %
2385 25-03-2019 20:56:17 4.6 C 55 %
2386 25-03-2019 21:08:17 4.6 C 55 %
2387 25-03-2019 21:20:17 4.6 C 54 %
2388 25-03-2019 21:32:17 4.4 C 54 %
2389 25-03-2019 21:44:17 4.3 C 53 %
2390 25-03-2019 21:56:17 4.5 C 50 %
2391 25-03-2019 22:08:17 4.9 C 44 %
2392 25-03-2019 22:20:17 4.4 C 41 %
2393 25-03-2019 22:32:17 4.5 C 42 %
2394 25-03-2019 22:44:17 4.4 C 42 %
2395 25-03-2019 22:56:18 4.4 C 42 %
2396 25-03-2019 23:08:17 4.2 C 44 %
2397 25-03-2019 23:20:17 3.8 C 46 %
2398 25-03-2019 23:32:17 3.6 C 49 %
2399 25-03-2019 23:44:17 3.4 C 50 %
2400 25-03-2019 23:56:17 3.4 C 52 %
Sensor: Nr:Datum:Temp:Feuchte:
Aussen-T/F 2401 26-03-2019 00:08:17 3.6 C 53 %
2402 26-03-2019 00:20:17 3.7 C 54 %
2403 26-03-2019 00:32:17 3.9 C 54 %
2404 26-03-2019 00:44:17 3.9 C 52 %
2405 26-03-2019 00:56:17 4 C 51 %
2406 26-03-2019 01:08:18 4 C 50 %
2407 26-03-2019 01:20:17 3.9 C 51 %
2408 26-03-2019 01:32:18 3.4 C 50 %
2409 26-03-2019 01:44:18 3.4 C 51 %
2410 26-03-2019 01:56:17 3.5 C 52 %
2411 26-03-2019 02:08:17 3.7 C 53 %
2412 26-03-2019 02:20:17 3.7 C 53 %
2413 26-03-2019 02:32:17 3.7 C 53 %
2414 26-03-2019 02:44:17 3.7 C 53 %
2415 26-03-2019 02:56:18 3.9 C 54 %
2416 26-03-2019 03:08:17 3.9 C 54 %
2417 26-03-2019 03:20:17 4 C 52 %
2418 26-03-2019 03:32:18 4.1 C 52 %
2419 26-03-2019 03:44:18 4.1 C 52 %
2420 26-03-2019 03:56:17 4.1 C 52 %
2421 26-03-2019 04:08:17 4.2 C 52 %
2422 26-03-2019 04:20:17 4.3 C 52 %
2423 26-03-2019 04:32:18 4.4 C 51 %
2424 26-03-2019 04:44:18 4.5 C 49 %
2425 26-03-2019 04:56:17 4.5 C 48 %
Sensor: Nr:Datum:Temp:Feuchte:
Aussen-T/F 2426 26-03-2019 05:08:17 4.4 C 47 %
2427 26-03-2019 05:20:17 4.4 C 46 %
2428 26-03-2019 05:32:17 4.5 C 45 %
2429 26-03-2019 05:44:17 4.5 C 42 %
2430 26-03-2019 05:56:18 4.3 C 43 %
2431 26-03-2019 06:08:17 4.4 C 43 %
2432 26-03-2019 06:20:17 4.5 C 41 %
2433 26-03-2019 06:32:17 4.5 C 40 %
2434 26-03-2019 06:44:17 4.4 C 40 %
2435 26-03-2019 06:56:17 4.3 C 41 %
2436 26-03-2019 07:08:17 4.5 C 41 %
2437 26-03-2019 07:20:17 4.5 C 41 %
2438 26-03-2019 07:32:17 4.6 C 41 %
2439 26-03-2019 07:44:17 4.6 C 40 %
2440 26-03-2019 07:56:17 4.9 C 38 %
2441 26-03-2019 08:08:17 5 C 33 %
2442 26-03-2019 08:20:17 5.3 C 31 %
2443 26-03-2019 08:32:17 5.4 C 30 %
2444 26-03-2019 08:44:17 5.7 C 30 %
2445 26-03-2019 08:56:18 5.9 C 28 %
2446 26-03-2019 09:08:17 5.9 C 26 %
2447 26-03-2019 09:20:18 5.9 C 27 %
2448 26-03-2019 09:32:17 6.1 C 26 %
2449 26-03-2019 09:44:17 6.7 C 25 %
2450 26-03-2019 09:56:17 6.7 C 25 %
Sensor: Nr:Datum:Temp:Feuchte:
Aussen-T/F 2451 26-03-2019 10:08:17 6.7 C 21 %
2452 26-03-2019 10:20:17 7.2 C 20 %
2453 26-03-2019 10:32:17 7.7 C 20 %
2454 26-03-2019 10:44:17 7.3 C 20 %
2455 26-03-2019 10:56:17 7.2 C 20 %
2456 26-03-2019 11:08:17 6.8 C 20 %
2457 26-03-2019 11:20:17 6.7 C 20 %
2458 26-03-2019 11:32:17 7.1 C 20 %
2459 26-03-2019 11:44:17 8 C 20 %
2460 26-03-2019 11:56:17 8.3 C 20 %
2461 26-03-2019 12:08:17 8.7 C 20 %
2462 26-03-2019 12:20:17 8.7 C 20 %
2463 26-03-2019 12:32:17 9.6 C 20 %
2464 26-03-2019 12:44:17 9.4 C 20 %
2465 26-03-2019 12:56:17 9.6 C 20 %
2466 26-03-2019 13:08:17 9 C 20 %
2467 26-03-2019 13:20:17 8.9 C 20 %
2468 26-03-2019 13:32:17 9.4 C 20 %
2469 26-03-2019 13:44:17 9.4 C 20 %
2470 26-03-2019 13:56:17 9 C 20 %
2471 26-03-2019 14:08:18 9.2 C 20 %
2472 26-03-2019 14:20:17 9.3 C 20 %
2473 26-03-2019 14:32:17 9.4 C 20 %
2474 26-03-2019 14:44:18 8.8 C 20 %
2475 26-03-2019 14:56:17 8.9 C 20 %
Sensor: Nr:Datum:Temp:Feuchte:
Aussen-T/F 2476 26-03-2019 15:08:17 9 C 20 %
2477 26-03-2019 15:20:17 9 C 20 %
2478 26-03-2019 15:32:17 9.1 C 20 %
2479 26-03-2019 15:44:17 9.6 C 20 %
2480 26-03-2019 15:56:17 10.4 C 20 %
2481 26-03-2019 16:08:17 9.7 C 20 %
2482 26-03-2019 16:20:17 9.6 C 20 %
2483 26-03-2019 16:32:17 9.6 C 20 %
2484 26-03-2019 16:44:18 9 C 20 %
2485 26-03-2019 16:56:17 8.6 C 20 %
2486 26-03-2019 17:08:17 8.2 C 20 %
2487 26-03-2019 17:20:17 8.2 C 20 %
2488 26-03-2019 17:32:17 8.1 C 20 %
2489 26-03-2019 17:44:18 7.9 C 20 %
2490 26-03-2019 17:56:18 7.9 C 20 %
2491 26-03-2019 18:08:17 7.9 C 20 %
2492 26-03-2019 18:20:17 7.7 C 20 %
2493 26-03-2019 18:32:17 7.6 C 20 %
2494 26-03-2019 18:44:17 7.5 C 20 %
2495 26-03-2019 18:56:18 7.4 C 20 %
2496 26-03-2019 19:08:17 7.2 C 23 %
2497 26-03-2019 19:20:17 7 C 25 %
2498 26-03-2019 19:32:17 6.8 C 28 %
2499 26-03-2019 19:44:17 6.5 C 31 %
2500 26-03-2019 19:56:17 6.5 C 31 %
Sensor: Nr:Datum:Temp:Feuchte:
Aussen-T/F 2501 26-03-2019 20:08:17 6.5 C 30 %
2502 26-03-2019 20:20:18 6.6 C 30 %
2503 26-03-2019 20:32:17 6.4 C 31 %
2504 26-03-2019 20:44:17 6.5 C 31 %
2505 26-03-2019 20:56:18 6.4 C 32 %
2506 26-03-2019 21:08:17 6.3 C 32 %
2507 26-03-2019 21:20:17 6.3 C 32 %
2508 26-03-2019 21:32:18 6.1 C 34 %
2509 26-03-2019 21:44:18 6 C 35 %
2510 26-03-2019 21:56:17 6 C 35 %
2511 26-03-2019 22:08:18 5.9 C 36 %
2512 26-03-2019 22:20:17 5.8 C 37 %
2513 26-03-2019 22:32:17 5.7 C 38 %
2514 26-03-2019 22:44:17 5.7 C 39 %
2515 26-03-2019 22:56:17 5.7 C 39 %
2516 26-03-2019 23:08:17 5.6 C 40 %
2517 26-03-2019 23:20:17 5.5 C 40 %
2518 26-03-2019 23:32:17 5.5 C 40 %
2519 26-03-2019 23:44:17 5.6 C 39 %
2520 26-03-2019 23:56:17 5.7 C 38 %
2521 27-03-2019 00:08:17 5.5 C 38 %
2522 27-03-2019 00:20:17 5.3 C 39 %
2523 27-03-2019 00:32:17 5.3 C 41 %
2524 27-03-2019 00:44:17 5.1 C 42 %
2525 27-03-2019 00:56:17 5 C 42 %
Sensor: Nr:Datum:Temp:Feuchte:
Aussen-T/F 2526 27-03-2019 01:08:18 5 C 42 %
2527 27-03-2019 01:20:17 4.8 C 44 %
2528 27-03-2019 01:32:18 4.4 C 44 %
2529 27-03-2019 01:44:18 4.4 C 45 %
2530 27-03-2019 01:56:17 4.5 C 46 %
2531 27-03-2019 02:08:17 4.5 C 46 %
2532 27-03-2019 02:20:17 4.6 C 46 %
2533 27-03-2019 02:32:17 4.6 C 45 %
2534 27-03-2019 02:44:17 4.4 C 45 %
2535 27-03-2019 02:56:17 4.2 C 46 %
2536 27-03-2019 03:08:17 4.1 C 46 %
2537 27-03-2019 03:20:18 4.2 C 47 %
2538 27-03-2019 03:32:17 4.1 C 47 %
2539 27-03-2019 03:44:17 3.9 C 47 %
2540 27-03-2019 03:56:17 3.4 C 47 %
2541 27-03-2019 04:08:17 3.3 C 49 %
2542 27-03-2019 04:20:18 3.1 C 49 %
2543 27-03-2019 04:32:17 2.8 C 50 %
2544 27-03-2019 04:44:17 2.4 C 50 %
2545 27-03-2019 04:56:17 2.1 C 51 %
2546 27-03-2019 05:08:17 1.8 C 53 %
2547 27-03-2019 05:20:18 1.7 C 54 %
2548 27-03-2019 05:32:17 1.6 C 54 %
2549 27-03-2019 05:44:17 1.3 C 55 %
2550 27-03-2019 05:56:17 1.1 C 55 %
Sensor: Nr:Datum:Temp:Feuchte:
Aussen-T/F 2551 27-03-2019 06:08:18 0.9 C 56 %
2552 27-03-2019 06:20:17 0.8 C 56 %
2553 27-03-2019 06:32:17 0.8 C 56 %
2554 27-03-2019 06:44:17 0.8 C 56 %
2555 27-03-2019 06:56:17 1.1 C 56 %
2556 27-03-2019 07:08:17 1.4 C 56 %
2557 27-03-2019 07:20:17 1.4 C 56 %
2558 27-03-2019 07:32:18 2.1 C 56 %
2559 27-03-2019 07:44:18 3.1 C 56 %
2560 27-03-2019 07:56:17 3.4 C 54 %
2561 27-03-2019 08:08:17 3.3 C 50 %
2562 27-03-2019 08:20:17 3.5 C 48 %
2563 27-03-2019 08:32:18 3.8 C 47 %
2564 27-03-2019 08:44:18 3.9 C 46 %
2565 27-03-2019 08:56:17 4.9 C 46 %
2566 27-03-2019 09:08:18 5.6 C 42 %
2567 27-03-2019 09:20:17 6.2 C 37 %
2568 27-03-2019 09:32:17 6.8 C 35 %
2569 27-03-2019 09:44:17 7.8 C 31 %
2570 27-03-2019 09:56:17 8.1 C 29 %
2571 27-03-2019 10:08:17 8.7 C 29 %
2572 27-03-2019 10:20:18 8.6 C 27 %
2573 27-03-2019 10:32:17 10.6 C 25 %
2574 27-03-2019 10:44:17 10 C 22 %
2575 27-03-2019 10:56:17 11 C 20 %
Sensor: Nr:Datum:Temp:Feuchte:
Aussen-T/F 2576 27-03-2019 11:08:17 9.3 C 21 %
2577 27-03-2019 11:20:17 8.9 C 20 %
2578 27-03-2019 11:32:17 10 C 20 %
2579 27-03-2019 11:44:17 11.1 C 20 %
2580 27-03-2019 11:56:17 9.8 C 20 %
2581 27-03-2019 12:08:17 9.3 C 20 %
2582 27-03-2019 12:20:17 9.8 C 20 %
2583 27-03-2019 12:32:17 11.1 C 20 %
2584 27-03-2019 12:44:17 11.4 C 20 %
2585 27-03-2019 12:56:17 10.9 C 20 %
2586 27-03-2019 13:08:18 11.1 C 20 %
2587 27-03-2019 13:20:17 11.7 C 20 %
2588 27-03-2019 13:32:17 10.8 C 20 %
2589 27-03-2019 13:44:17 10.6 C 20 %
2590 27-03-2019 13:56:17 11 C 20 %
2591 27-03-2019 14:08:18 10.8 C 20 %
2592 27-03-2019 14:20:17 11.3 C 20 %
2593 27-03-2019 14:32:17 11.4 C 20 %
2594 27-03-2019 14:44:17 12.4 C 20 %
2595 27-03-2019 14:56:17 11.4 C 20 %
2596 27-03-2019 15:08:17 11.7 C 20 %
2597 27-03-2019 15:20:17 11.4 C 20 %
2598 27-03-2019 15:32:17 11.3 C 20 %
2599 27-03-2019 15:44:17 11 C 20 %
2600 27-03-2019 15:56:17 11 C 20 %
Sensor: Nr:Datum:Temp:Feuchte:
Aussen-T/F 2601 27-03-2019 16:08:17 11.2 C 20 %
2602 27-03-2019 16:20:17 11.2 C 20 %
2603 27-03-2019 16:32:17 11.8 C 20 %
2604 27-03-2019 16:44:17 11.1 C 20 %
2605 27-03-2019 16:56:18 11 C 20 %
2606 27-03-2019 17:08:17 11.1 C 20 %
2607 27-03-2019 17:20:18 10.7 C 20 %
2608 27-03-2019 17:32:17 10.4 C 20 %
2609 27-03-2019 17:44:17 10.9 C 20 %
2610 27-03-2019 17:56:17 10.9 C 20 %
2611 27-03-2019 18:08:17 10.2 C 20 %
2612 27-03-2019 18:20:17 9.3 C 20 %
2613 27-03-2019 18:32:17 8.2 C 20 %
2614 27-03-2019 18:44:18 7.9 C 20 %
2615 27-03-2019 18:56:17 7.4 C 20 %
2616 27-03-2019 19:08:17 7 C 25 %
2617 27-03-2019 19:20:17 6.6 C 27 %
2618 27-03-2019 19:32:18 6.4 C 27 %
2619 27-03-2019 19:44:18 6.2 C 28 %
2620 27-03-2019 19:56:17 6.1 C 29 %
2621 27-03-2019 20:08:18 6 C 29 %
2622 27-03-2019 20:20:17 6.1 C 29 %
2623 27-03-2019 20:32:17 5.6 C 31 %
2624 27-03-2019 20:44:17 5.4 C 32 %
2625 27-03-2019 20:56:17 5.2 C 33 %
Sensor: Nr:Datum:Temp:Feuchte:
Aussen-T/F 2626 27-03-2019 21:08:18 4.7 C 35 %
2627 27-03-2019 21:20:17 4.2 C 37 %
2628 27-03-2019 21:32:17 4.1 C 39 %
2629 27-03-2019 21:44:17 3.9 C 41 %
2630 27-03-2019 21:56:17 4 C 41 %
2631 27-03-2019 22:08:17 3.9 C 41 %
2632 27-03-2019 22:20:18 3.7 C 41 %
2633 27-03-2019 22:32:17 3.4 C 43 %
2634 27-03-2019 22:44:17 3.1 C 43 %
2635 27-03-2019 22:56:18 2.7 C 45 %
2636 27-03-2019 23:08:17 2.5 C 47 %
2637 27-03-2019 23:20:17 2.3 C 48 %
2638 27-03-2019 23:32:17 2.1 C 48 %
2639 27-03-2019 23:44:17 2 C 49 %
2640 27-03-2019 23:56:17 1.8 C 51 %
2641 28-03-2019 00:08:17 1.7 C 51 %
2642 28-03-2019 00:20:17 1.7 C 52 %
2643 28-03-2019 00:32:18 1.9 C 53 %
2644 28-03-2019 00:44:18 1.7 C 52 %
2645 28-03-2019 00:56:17 1.5 C 52 %
2646 28-03-2019 01:08:17 1.4 C 52 %
2647 28-03-2019 01:20:18 1.3 C 53 %
2648 28-03-2019 01:32:17 1.1 C 53 %
2649 28-03-2019 01:44:17 1.2 C 54 %
2650 28-03-2019 01:56:17 1 C 53 %
Sensor: Nr:Datum:Temp:Feuchte:
Aussen-T/F 2651 28-03-2019 02:08:18 0.8 C 55 %
2652 28-03-2019 02:20:17 0.7 C 55 %
2653 28-03-2019 02:32:17 0.7 C 55 %
2654 28-03-2019 02:44:17 0.6 C 55 %
2655 28-03-2019 02:56:18 0.5 C 55 %
2656 28-03-2019 03:08:17 0.4 C 56 %
2657 28-03-2019 03:20:17 0.3 C 56 %
2658 28-03-2019 03:32:17 0.6 C 57 %
2659 28-03-2019 03:44:17 0.1 C 56 %
2660 28-03-2019 03:56:17 0.2 C 56 %
2661 28-03-2019 04:08:17 0.4 C 57 %
2662 28-03-2019 04:20:17 0.3 C 56 %
2663 28-03-2019 04:32:18 0 C 56 %
2664 28-03-2019 04:44:18 0 C 56 %
2665 28-03-2019 04:56:17 0 C 56 %
2666 28-03-2019 05:08:17 0.1 C 56 %
2667 28-03-2019 05:20:17 -0.1 C 56 %
2668 28-03-2019 05:32:18 0.4 C 58 %
2669 28-03-2019 05:44:18 0.7 C 59 %
2670 28-03-2019 05:56:17 0.7 C 58 %
2671 28-03-2019 06:08:17 0.8 C 58 %
2672 28-03-2019 06:20:18 1 C 57 %
2673 28-03-2019 06:32:17 0.9 C 57 %
2674 28-03-2019 06:44:17 1.1 C 57 %
2675 28-03-2019 06:56:17 1.4 C 58 %
Sensor: Nr:Datum:Temp:Feuchte:
Aussen-T/F 2676 28-03-2019 07:08:17 1.6 C 56 %
2677 28-03-2019 07:20:17 1.8 C 55 %
2678 28-03-2019 07:32:17 2.1 C 52 %
2679 28-03-2019 07:44:17 2.1 C 50 %
2680 28-03-2019 07:56:17 2.5 C 48 %
2681 28-03-2019 08:08:17 2.5 C 46 %
2682 28-03-2019 08:20:17 2.5 C 43 %
2683 28-03-2019 08:32:17 2.7 C 43 %
2684 28-03-2019 08:44:17 3 C 42 %
2685 28-03-2019 08:56:17 3.3 C 42 %
2686 28-03-2019 09:08:17 3.8 C 40 %
2687 28-03-2019 09:20:17 4.4 C 38 %
2688 28-03-2019 09:32:17 4.6 C 37 %
2689 28-03-2019 09:44:17 5.7 C 36 %
2690 28-03-2019 09:56:17 6.5 C 35 %
2691 28-03-2019 10:08:18 7.4 C 32 %
2692 28-03-2019 10:20:17 7.8 C 29 %
2693 28-03-2019 10:32:17 9.3 C 25 %
2694 28-03-2019 10:44:17 12 C 20 %
2695 28-03-2019 10:56:17 11.7 C 20 %
2696 28-03-2019 11:08:17 11.3 C 20 %
2697 28-03-2019 11:20:17 12.9 C 20 %
2698 28-03-2019 11:32:17 13.7 C 20 %
2699 28-03-2019 11:44:17 14.4 C 20 %
2700 28-03-2019 11:56:17 12.4 C 20 %
Sensor: Nr:Datum:Temp:Feuchte:
Aussen-T/F 2701 28-03-2019 12:08:17 12.6 C 20 %
2702 28-03-2019 12:20:17 12.7 C 20 %
2703 28-03-2019 12:32:17 12.9 C 20 %
2704 28-03-2019 12:44:17 12.8 C 20 %
2705 28-03-2019 12:56:17 12.5 C 20 %
2706 28-03-2019 13:08:17 12.9 C 20 %
2707 28-03-2019 13:20:18 13.6 C 20 %
2708 28-03-2019 13:32:17 13.2 C 20 %
2709 28-03-2019 13:44:17 13.4 C 20 %
2710 28-03-2019 13:56:18 13.8 C 20 %
2711 28-03-2019 14:08:17 13.6 C 20 %
2712 28-03-2019 14:20:17 13.5 C 20 %
2713 28-03-2019 14:32:17 13.9 C 20 %
2714 28-03-2019 14:44:17 13.3 C 20 %
2715 28-03-2019 14:56:17 13.3 C 20 %
2716 28-03-2019 15:08:17 13.3 C 20 %
2717 28-03-2019 15:20:18 13.7 C 20 %
2718 28-03-2019 15:32:17 13.4 C 20 %
2719 28-03-2019 15:44:17 13.5 C 20 %
2720 28-03-2019 15:56:17 13.5 C 20 %
2721 28-03-2019 16:08:17 13.6 C 20 %
2722 28-03-2019 16:20:17 13.4 C 20 %
2723 28-03-2019 16:32:17 13.6 C 20 %
2724 28-03-2019 16:44:17 13.4 C 20 %
2725 28-03-2019 16:56:17 13.2 C 20 %
Sensor: Nr:Datum:Temp:Feuchte:
Aussen-T/F 2726 28-03-2019 17:08:17 13.1 C 20 %
2727 28-03-2019 17:20:17 13.1 C 20 %
2728 28-03-2019 17:32:17 12.9 C 20 %
2729 28-03-2019 17:44:17 12.9 C 20 %
2730 28-03-2019 17:56:17 12.7 C 20 %
2731 28-03-2019 18:08:17 12.5 C 20 %
2732 28-03-2019 18:20:17 12.2 C 20 %
2733 28-03-2019 18:32:18 11.3 C 20 %
2734 28-03-2019 18:44:18 10.1 C 20 %
2735 28-03-2019 18:56:17 9.4 C 26 %
2736 28-03-2019 19:08:18 9.6 C 26 %
2737 28-03-2019 19:20:17 9.6 C 27 %
2738 28-03-2019 19:32:18 9.6 C 27 %
2739 28-03-2019 19:44:18 9.9 C 26 %
2740 28-03-2019 19:56:17 10 C 25 %
2741 28-03-2019 20:08:17 9.9 C 26 %
2742 28-03-2019 20:20:17 9.8 C 26 %
2743 28-03-2019 20:32:17 9.2 C 28 %
2744 28-03-2019 20:44:17 9.3 C 28 %
2745 28-03-2019 20:56:17 9.3 C 28 %
2746 28-03-2019 21:08:17 9.2 C 28 %
2747 28-03-2019 21:20:17 9 C 29 %
2748 28-03-2019 21:32:17 8.2 C 30 %
2749 28-03-2019 21:44:17 7.6 C 31 %
2750 28-03-2019 21:56:17 7.6 C 31 %
Sensor: Nr:Datum:Temp:Feuchte:
Aussen-T/F 2751 28-03-2019 22:08:17 7.2 C 33 %
2752 28-03-2019 22:20:17 6.6 C 34 %
2753 28-03-2019 22:32:17 6 C 35 %
2754 28-03-2019 22:44:17 5.9 C 41 %
2755 28-03-2019 22:56:17 5.7 C 41 %
2756 28-03-2019 23:08:17 5.2 C 41 %
2757 28-03-2019 23:20:17 5 C 41 %
2758 28-03-2019 23:32:17 4.6 C 45 %
2759 28-03-2019 23:44:17 4.5 C 45 %
2760 28-03-2019 23:56:17 4.2 C 46 %
2761 29-03-2019 00:08:17 4.1 C 47 %
2762 29-03-2019 00:20:17 3.8 C 48 %
2763 29-03-2019 00:32:18 3.7 C 50 %
2764 29-03-2019 00:44:18 3.7 C 50 %
2765 29-03-2019 00:56:17 3.5 C 50 %
2766 29-03-2019 01:08:17 3.3 C 50 %
2767 29-03-2019 01:20:17 3.3 C 51 %
2768 29-03-2019 01:32:17 3.3 C 52 %
2769 29-03-2019 01:44:17 2.8 C 52 %
2770 29-03-2019 01:56:17 2.7 C 53 %
2771 29-03-2019 02:08:17 2.8 C 54 %
2772 29-03-2019 02:20:18 2.7 C 54 %
2773 29-03-2019 02:32:17 2.6 C 54 %
2774 29-03-2019 02:44:17 2.3 C 54 %
2775 29-03-2019 02:56:17 2.3 C 54 %
Sensor: Nr:Datum:Temp:Feuchte:
Aussen-T/F 2776 29-03-2019 03:08:17 2.2 C 54 %
2777 29-03-2019 03:20:18 2.2 C 54 %
2778 29-03-2019 03:32:17 1.7 C 55 %
2779 29-03-2019 03:44:17 1.8 C 56 %
2780 29-03-2019 03:56:17 1.8 C 56 %
2781 29-03-2019 04:08:17 1.7 C 56 %
2782 29-03-2019 04:20:18 1.7 C 56 %
2783 29-03-2019 04:32:17 1.6 C 56 %
2784 29-03-2019 04:44:17 1.7 C 57 %
2785 29-03-2019 04:56:17 1.3 C 56 %
2786 29-03-2019 05:08:17 1 C 56 %
2787 29-03-2019 05:20:17 1 C 57 %
2788 29-03-2019 05:32:17 0.9 C 58 %
2789 29-03-2019 05:44:17 0.7 C 58 %
2790 29-03-2019 05:56:18 0.8 C 60 %
2791 29-03-2019 06:08:18 0.8 C 61 %
2792 29-03-2019 06:20:17 0.7 C 61 %
2793 29-03-2019 06:32:18 1 C 63 %
2794 29-03-2019 06:44:18 0.9 C 65 %
2795 29-03-2019 06:56:17 0.9 C 64 %
2796 29-03-2019 07:08:18 1 C 65 %
2797 29-03-2019 07:20:17 1.2 C 65 %
2798 29-03-2019 07:32:17 1.2 C 65 %
2799 29-03-2019 07:44:17 1.6 C 67 %
2800 29-03-2019 07:56:17 1.6 C 66 %
Sensor: Nr:Datum:Temp:Feuchte:
Aussen-T/F 2801 29-03-2019 08:08:17 1.9 C 67 %
2802 29-03-2019 08:20:17 2.1 C 67 %
2803 29-03-2019 08:32:17 2.4 C 68 %
2804 29-03-2019 08:44:17 2.5 C 68 %
2805 29-03-2019 08:56:17 3 C 69 %
2806 29-03-2019 09:08:18 3.3 C 70 %
2807 29-03-2019 09:20:17 3.8 C 71 %
2808 29-03-2019 09:32:17 4.2 C 71 %
2809 29-03-2019 09:44:18 5.7 C 73 %
2810 29-03-2019 09:56:17 6.8 C 69 %
2811 29-03-2019 10:08:17 7.6 C 52 %
2812 29-03-2019 10:20:17 8.5 C 45 %
2813 29-03-2019 10:32:18 12 C 30 %
2814 29-03-2019 10:44:18 13.1 C 23 %
2815 29-03-2019 10:56:17 13.6 C 20 %
2816 29-03-2019 11:08:17 13.4 C 20 %
2817 29-03-2019 11:20:17 15.2 C 20 %
2818 29-03-2019 11:32:18 15.6 C 20 %
2819 29-03-2019 11:44:18 15.9 C 20 %
2820 29-03-2019 11:56:17 14 C 20 %
2821 29-03-2019 12:08:18 13.9 C 20 %
2822 29-03-2019 12:20:17 14 C 20 %
2823 29-03-2019 12:32:18 14.4 C 20 %
2824 29-03-2019 12:44:18 14.8 C 20 %
2825 29-03-2019 12:56:17 15 C 20 %
Sensor: Nr:Datum:Temp:Feuchte:
Aussen-T/F 2826 29-03-2019 13:08:17 15.8 C 20 %
2827 29-03-2019 13:20:17 15.8 C 20 %
2828 29-03-2019 13:32:18 15.6 C 20 %
2829 29-03-2019 13:44:18 16 C 20 %
2830 29-03-2019 13:56:17 16.1 C 20 %
2831 29-03-2019 14:08:17 16.2 C 20 %
2832 29-03-2019 14:20:17 16.5 C 20 %
2833 29-03-2019 14:32:18 16.6 C 20 %
2834 29-03-2019 14:44:18 17.2 C 20 %
2835 29-03-2019 14:56:17 17 C 20 %
2836 29-03-2019 15:08:17 17.5 C 20 %
2837 29-03-2019 15:20:17 17.7 C 20 %
2838 29-03-2019 15:32:17 17.9 C 20 %
2839 29-03-2019 15:44:17 18 C 20 %
2840 29-03-2019 15:56:18 18.2 C 20 %
2841 29-03-2019 16:08:17 18.3 C 20 %
2842 29-03-2019 16:20:17 18.3 C 20 %
2843 29-03-2019 16:32:17 18.1 C 20 %
2844 29-03-2019 16:44:17 18.9 C 20 %
2845 29-03-2019 16:56:17 19.2 C 20 %
2846 29-03-2019 17:08:18 18.4 C 20 %
2847 29-03-2019 17:20:17 19 C 20 %
2848 29-03-2019 17:32:17 19.7 C 20 %
2849 29-03-2019 17:44:17 21.3 C 20 %
2850 29-03-2019 17:56:17 22.2 C 20 %
Sensor: Nr:Datum:Temp:Feuchte:
Aussen-T/F 2851 29-03-2019 18:08:17 18.7 C 20 %
2852 29-03-2019 18:20:17 16.6 C 20 %
2853 29-03-2019 18:32:17 14.9 C 20 %
2854 29-03-2019 18:44:17 13 C 20 %
2855 29-03-2019 18:56:17 12.1 C 20 %
2856 29-03-2019 19:08:17 11.3 C 20 %
2857 29-03-2019 19:20:17 10.8 C 20 %
2858 29-03-2019 19:32:18 10.5 C 20 %
2859 29-03-2019 19:44:18 10.3 C 20 %
2860 29-03-2019 19:56:17 9.8 C 20 %
2861 29-03-2019 20:08:17 9.6 C 20 %
2862 29-03-2019 20:20:17 9.4 C 20 %
2863 29-03-2019 20:32:18 8.2 C 25 %
2864 29-03-2019 20:44:18 7.8 C 26 %
2865 29-03-2019 20:56:17 7.5 C 27 %
2866 29-03-2019 21:08:17 7.2 C 28 %
2867 29-03-2019 21:20:18 6.9 C 30 %
2868 29-03-2019 21:32:17 6.6 C 30 %
2869 29-03-2019 21:44:17 6.3 C 30 %
2870 29-03-2019 21:56:17 6 C 31 %
2871 29-03-2019 22:08:17 5.9 C 32 %
2872 29-03-2019 22:20:17 5.5 C 33 %
2873 29-03-2019 22:32:17 5.2 C 33 %
2874 29-03-2019 22:44:17 5 C 35 %
2875 29-03-2019 22:56:17 4.7 C 36 %
Sensor: Nr:Datum:Temp:Feuchte:
Aussen-T/F 2876 29-03-2019 23:08:17 4.6 C 37 %
2877 29-03-2019 23:20:17 4.5 C 38 %
2878 29-03-2019 23:32:17 4.2 C 38 %
2879 29-03-2019 23:44:18 4 C 40 %
2880 29-03-2019 23:56:17 3.8 C 41 %
2881 30-03-2019 00:08:17 3.7 C 42 %
2882 30-03-2019 00:20:17 3.4 C 43 %
2883 30-03-2019 00:32:17 3.3 C 44 %
2884 30-03-2019 00:44:17 3.1 C 45 %
2885 30-03-2019 00:56:17 3.1 C 45 %
2886 30-03-2019 01:08:17 3 C 46 %
2887 30-03-2019 01:20:17 2.9 C 48 %
2888 30-03-2019 01:32:17 2.8 C 48 %
2889 30-03-2019 01:44:18 2.7 C 49 %
2890 30-03-2019 01:56:18 2.6 C 49 %
2891 30-03-2019 02:08:17 2.4 C 50 %
2892 30-03-2019 02:20:18 2.3 C 50 %
2893 30-03-2019 02:32:17 2.2 C 50 %
2894 30-03-2019 02:44:17 1.8 C 51 %
2895 30-03-2019 02:56:17 1.8 C 52 %
2896 30-03-2019 03:08:17 1.8 C 52 %
2897 30-03-2019 03:20:17 1.6 C 53 %
2898 30-03-2019 03:32:18 1.6 C 53 %
2899 30-03-2019 03:44:18 1.5 C 53 %
2900 30-03-2019 03:56:17 1.5 C 54 %
Sensor: Nr:Datum:Temp:Feuchte:
Aussen-T/F 2901 30-03-2019 04:08:17 1.3 C 54 %
2902 30-03-2019 04:20:17 1.5 C 55 %
2903 30-03-2019 04:32:17 1.3 C 54 %
2904 30-03-2019 04:44:17 1.1 C 54 %
2905 30-03-2019 04:56:18 0.8 C 55 %
2906 30-03-2019 05:08:17 0.9 C 56 %
2907 30-03-2019 05:20:17 0.7 C 55 %
2908 30-03-2019 05:32:17 0.6 C 56 %
2909 30-03-2019 05:44:17 0.6 C 56 %
2910 30-03-2019 05:56:17 0.7 C 56 %
2911 30-03-2019 06:08:17 0.7 C 56 %
2912 30-03-2019 06:20:17 0.6 C 56 %
2913 30-03-2019 06:32:17 0.6 C 56 %
2914 30-03-2019 06:44:17 0.6 C 56 %
2915 30-03-2019 06:56:17 0.7 C 57 %
2916 30-03-2019 07:08:17 1 C 56 %
2917 30-03-2019 07:20:17 1.2 C 56 %
2918 30-03-2019 07:32:18 1.4 C 56 %
2919 30-03-2019 07:44:18 1.8 C 57 %
2920 30-03-2019 07:56:17 2 C 56 %
2921 30-03-2019 08:08:18 2.3 C 57 %
2922 30-03-2019 08:20:17 2.3 C 57 %
2923 30-03-2019 08:32:17 3.1 C 58 %
2924 30-03-2019 08:44:17 3.6 C 59 %
2925 30-03-2019 08:56:17 4 C 57 %
Sensor: Nr:Datum:Temp:Feuchte:
Aussen-T/F 2926 30-03-2019 09:08:17 4.3 C 55 %
2927 30-03-2019 09:20:17 5 C 54 %
2928 30-03-2019 09:32:17 5.1 C 52 %
2929 30-03-2019 09:44:17 6.4 C 48 %
2930 30-03-2019 09:56:17 7.4 C 44 %
2931 30-03-2019 10:08:17 8.3 C 37 %
2932 30-03-2019 10:20:17 9.1 C 35 %
2933 30-03-2019 10:32:17 12.7 C 26 %
2934 30-03-2019 10:44:17 14.1 C 21 %
2935 30-03-2019 10:56:18 14.6 C 20 %
2936 30-03-2019 11:08:17 15.3 C 20 %
2937 30-03-2019 11:20:17 15.3 C 20 %
2938 30-03-2019 11:32:17 18.3 C 20 %
2939 30-03-2019 11:44:17 19.2 C 20 %
2940 30-03-2019 11:56:17 17 C 20 %
2941 30-03-2019 12:08:17 16.8 C 20 %
2942 30-03-2019 12:20:17 17.1 C 20 %
2943 30-03-2019 12:32:17 17.5 C 20 %
2944 30-03-2019 12:44:17 17.6 C 20 %
2945 30-03-2019 12:56:17 18 C 20 %
2946 30-03-2019 13:08:17 18.5 C 20 %
2947 30-03-2019 13:20:17 18.9 C 20 %
2948 30-03-2019 13:32:17 19 C 20 %
2949 30-03-2019 13:44:17 19.2 C 20 %
2950 30-03-2019 13:56:17 19.3 C 20 %
Sensor: Nr:Datum:Temp:Feuchte:
Aussen-T/F 2951 30-03-2019 14:08:17 19.3 C 20 %
2952 30-03-2019 14:20:17 19.3 C 20 %
2953 30-03-2019 14:32:17 20 C 20 %
2954 30-03-2019 14:44:17 20 C 20 %
2955 30-03-2019 14:56:17 20 C 20 %
2956 30-03-2019 15:08:17 20.6 C 20 %
2957 30-03-2019 15:20:17 21 C 20 %
2958 30-03-2019 15:32:17 21.2 C 20 %
2959 30-03-2019 15:44:17 21.4 C 20 %
2960 30-03-2019 15:56:17 21.3 C 20 %
2961 30-03-2019 16:08:17 21.9 C 20 %
2962 30-03-2019 16:20:18 21.7 C 20 %
2963 30-03-2019 16:32:17 19.2 C 20 %
2964 30-03-2019 16:44:17 19.2 C 20 %
2965 30-03-2019 16:56:17 19.6 C 20 %
2966 30-03-2019 17:08:17 19.8 C 20 %
2967 30-03-2019 17:20:17 19.9 C 20 %
2968 30-03-2019 17:32:17 19.1 C 20 %
2969 30-03-2019 17:44:17 18.4 C 20 %
2970 30-03-2019 17:56:17 18.6 C 20 %
2971 30-03-2019 18:08:17 17.7 C 20 %
2972 30-03-2019 18:20:17 16.5 C 20 %
2973 30-03-2019 18:32:17 16.4 C 20 %
2974 30-03-2019 18:44:17 16.4 C 20 %
2975 30-03-2019 18:56:17 14.7 C 20 %
Sensor: Nr:Datum:Temp:Feuchte:
Aussen-T/F 2976 30-03-2019 19:08:17 14.3 C 20 %
2977 30-03-2019 19:20:17 13.8 C 20 %
2978 30-03-2019 19:32:17 13.9 C 20 %
2979 30-03-2019 19:44:17 13.9 C 20 %
2980 30-03-2019 19:56:17 13.6 C 20 %
2981 30-03-2019 20:08:17 13.2 C 20 %
2982 30-03-2019 20:20:18 12.9 C 20 %
2983 30-03-2019 20:32:17 13 C 20 %
2984 30-03-2019 20:44:17 13 C 20 %
2985 30-03-2019 20:56:17 11.4 C 20 %
2986 30-03-2019 21:08:18 11 C 20 %
2987 30-03-2019 21:20:17 11.1 C 20 %
2988 30-03-2019 21:32:17 11.2 C 20 %
2989 30-03-2019 21:44:17 11.2 C 20 %
2990 30-03-2019 21:56:17 10.4 C 20 %
2991 30-03-2019 22:08:17 10.3 C 20 %
2992 30-03-2019 22:20:18 10.1 C 22 %
2993 30-03-2019 22:32:17 9.9 C 25 %
2994 30-03-2019 22:44:17 10 C 23 %
2995 30-03-2019 22:56:18 10 C 23 %
2996 30-03-2019 23:08:17 10.1 C 23 %
2997 30-03-2019 23:20:17 10.2 C 23 %
2998 30-03-2019 23:32:17 10.1 C 23 %
2999 30-03-2019 23:44:18 9.6 C 25 %
3000 30-03-2019 23:56:17 9.2 C 25 %
Sensor: Nr:Datum:Temp:Feuchte:
Aussen-T/F 3001 31-03-2019 00:08:18 9.2 C 25 %
3002 31-03-2019 00:20:17 8.7 C 26 %
3003 31-03-2019 00:32:18 7.9 C 26 %
3004 31-03-2019 00:44:18 7.3 C 28 %
3005 31-03-2019 00:56:17 7.3 C 30 %
3006 31-03-2019 01:08:17 7.6 C 31 %
3007 31-03-2019 01:20:18 7.6 C 31 %
3008 31-03-2019 01:32:17 7.3 C 31 %
3009 31-03-2019 01:44:17 6.8 C 31 %
3010 31-03-2019 01:56:17 6.3 C 32 %
3011 31-03-2019 02:08:17 6 C 33 %
3012 31-03-2019 02:20:17 6.7 C 35 %
3013 31-03-2019 02:32:17 6.1 C 33 %
3014 31-03-2019 02:44:18 5.8 C 35 %
3015 31-03-2019 02:56:17 5.6 C 36 %
3016 31-03-2019 04:08:18 5.3 C 36 %
3017 31-03-2019 04:20:17 5.2 C 37 %
3018 31-03-2019 04:32:17 5.2 C 37 %
3019 31-03-2019 04:44:18 4.9 C 38 %
3020 31-03-2019 04:56:17 4.2 C 39 %
3021 31-03-2019 05:08:17 4.2 C 40 %
3022 31-03-2019 05:20:17 3.9 C 42 %
3023 31-03-2019 05:32:17 3.9 C 45 %
3024 31-03-2019 05:44:17 3.8 C 45 %
3025 31-03-2019 05:56:17 4.1 C 46 %
Sensor: Nr:Datum:Temp:Feuchte:
Aussen-T/F 3026 31-03-2019 06:08:18 4 C 45 %
3027 31-03-2019 06:20:17 3.5 C 45 %
3028 31-03-2019 06:32:17 3.9 C 47 %
3029 31-03-2019 06:44:17 3.8 C 47 %
3030 31-03-2019 06:56:17 3.9 C 47 %
3031 31-03-2019 07:08:17 4.1 C 47 %
3032 31-03-2019 07:20:18 4.3 C 46 %
3033 31-03-2019 07:32:17 3.9 C 45 %
3034 31-03-2019 07:44:17 3.5 C 45 %
3035 31-03-2019 07:56:17 3.7 C 47 %
3036 31-03-2019 08:08:17 3.7 C 47 %
3037 31-03-2019 08:20:17 3.7 C 47 %
3038 31-03-2019 08:32:17 3.9 C 48 %
3039 31-03-2019 08:44:17 3.9 C 48 %
3040 31-03-2019 08:56:17 4.2 C 48 %
3041 31-03-2019 09:08:17 4.5 C 48 %
3042 31-03-2019 09:20:17 4.8 C 48 %
3043 31-03-2019 09:32:17 5.1 C 47 %
3044 31-03-2019 09:44:17 5.6 C 47 %
3045 31-03-2019 09:56:17 5.9 C 47 %
3046 31-03-2019 10:08:17 6.9 C 46 %
3047 31-03-2019 10:20:17 7.6 C 41 %
3048 31-03-2019 10:32:17 8.2 C 38 %
3049 31-03-2019 10:44:17 9 C 36 %
3050 31-03-2019 10:56:17 10.4 C 31 %
Sensor: Nr:Datum:Temp:Feuchte:
Aussen-T/F 3051 31-03-2019 11:08:17 11.5 C 27 %
3052 31-03-2019 11:20:17 11.6 C 26 %
3053 31-03-2019 11:32:17 14.8 C 20 %
3054 31-03-2019 11:44:17 16 C 20 %
3055 31-03-2019 11:56:17 15.9 C 20 %
3056 31-03-2019 12:08:17 15.8 C 20 %
3057 31-03-2019 12:20:17 17.7 C 20 %
3058 31-03-2019 12:32:18 17.1 C 20 %
3059 31-03-2019 12:44:18 18 C 20 %
3060 31-03-2019 12:56:17 16.6 C 20 %
3061 31-03-2019 13:08:17 16.2 C 20 %
3062 31-03-2019 13:20:17 16.3 C 20 %
3063 31-03-2019 13:32:17 16.6 C 20 %
3064 31-03-2019 13:44:17 17.1 C 20 %
3065 31-03-2019 13:56:17 17.4 C 20 %
3066 31-03-2019 14:08:18 17.9 C 20 %
3067 31-03-2019 14:20:17 18.2 C 20 %
3068 31-03-2019 14:32:17 18.3 C 20 %
3069 31-03-2019 14:44:17 18.9 C 20 %
3070 31-03-2019 14:56:17 19.4 C 20 %
3071 31-03-2019 15:08:17 20.6 C 20 %
3072 31-03-2019 15:20:17 20.9 C 20 %
3073 31-03-2019 15:32:17 18.5 C 20 %
3074 31-03-2019 15:44:18 18.1 C 20 %
3075 31-03-2019 15:56:17 17.7 C 20 %
Sensor: Nr:Datum:Temp:Feuchte:
Aussen-T/F 3076 31-03-2019 16:08:17 17.5 C 20 %
3077 31-03-2019 16:20:17 14.7 C 22 %
3078 31-03-2019 16:32:17 14.5 C 28 %
3079 31-03-2019 16:44:17 13.5 C 35 %
3080 31-03-2019 16:56:18 13.5 C 35 %
3081 31-03-2019 17:08:17 12.7 C 40 %
3082 31-03-2019 17:20:17 13.3 C 43 %
3083 31-03-2019 17:32:17 14.5 C 40 %
3084 31-03-2019 17:44:17 15.2 C 32 %
3085 31-03-2019 17:56:18 15.7 C 23 %
3086 31-03-2019 18:08:17 15.5 C 20 %
3087 31-03-2019 18:20:17 15.8 C 21 %
3088 31-03-2019 18:32:17 15.3 C 20 %
3089 31-03-2019 18:44:17 15.9 C 20 %
3090 31-03-2019 18:56:17 14.8 C 20 %
3091 31-03-2019 19:08:17 13.2 C 22 %
3092 31-03-2019 19:20:17 12.6 C 26 %
3093 31-03-2019 19:32:17 11.7 C 31 %
3094 31-03-2019 19:44:17 10.7 C 35 %
3095 31-03-2019 19:56:18 10.2 C 36 %
3096 31-03-2019 20:08:17 9.8 C 39 %
3097 31-03-2019 20:20:18 9.7 C 38 %
3098 31-03-2019 20:32:17 9.3 C 38 %
3099 31-03-2019 20:44:17 9 C 39 %
3100 31-03-2019 20:56:17 8.7 C 40 %
Sensor: Nr:Datum:Temp:Feuchte:
Aussen-T/F 3101 31-03-2019 21:08:17 8.5 C 41 %
3102 31-03-2019 21:20:17 8.3 C 41 %
3103 31-03-2019 21:32:17 8.3 C 40 %
3104 31-03-2019 21:44:17 8 C 40 %
3105 31-03-2019 21:56:18 7.9 C 39 %
3106 31-03-2019 22:08:17 7.5 C 40 %
3107 31-03-2019 22:20:18 7.4 C 41 %
3108 31-03-2019 22:32:17 7.1 C 41 %
3109 31-03-2019 22:44:17 6.9 C 41 %
3110 31-03-2019 22:56:17 6.8 C 42 %
3111 31-03-2019 23:08:17 6.6 C 43 %
3112 31-03-2019 23:20:17 6.7 C 41 %
3113 31-03-2019 23:32:17 6.3 C 42 %
3114 31-03-2019 23:44:17 6.1 C 42 %
3115 31-03-2019 23:56:17 5.9 C 43 %
3116 01-04-2019 00:08:17 5.8 C 44 %
3117 01-04-2019 00:20:17 5.7 C 44 %
3118 01-04-2019 00:32:17 5.6 C 43 %
3119 01-04-2019 00:44:17 5.4 C 42 %
3120 01-04-2019 00:56:17 5.2 C 43 %
3121 01-04-2019 01:08:18 5.1 C 44 %
3122 01-04-2019 01:20:17 4.9 C 45 %
3123 01-04-2019 01:32:17 4.7 C 46 %
3124 01-04-2019 01:44:18 4.7 C 45 %
3125 01-04-2019 01:56:18 4.7 C 46 %
Sensor: Nr:Datum:Temp:Feuchte:
Aussen-T/F 3126 01-04-2019 02:08:17 4.7 C 45 %
3127 01-04-2019 02:20:17 4.4 C 45 %
3128 01-04-2019 02:32:17 4.1 C 46 %
3129 01-04-2019 02:44:17 3.8 C 47 %
3130 01-04-2019 02:56:17 3.8 C 49 %
3131 01-04-2019 03:08:18 3.7 C 49 %
3132 01-04-2019 03:20:17 3.8 C 50 %
3133 01-04-2019 03:32:17 3.6 C 48 %
3134 01-04-2019 03:44:17 3.5 C 48 %
3135 01-04-2019 03:56:17 3.2 C 49 %
3136 01-04-2019 04:08:17 3.3 C 50 %
3137 01-04-2019 04:20:17 3.2 C 50 %
3138 01-04-2019 04:32:18 3.4 C 50 %
3139 01-04-2019 04:44:18 3.4 C 50 %
3140 01-04-2019 04:56:17 3.3 C 49 %
3141 01-04-2019 05:08:17 3.2 C 49 %
3142 01-04-2019 05:20:17 3.1 C 49 %
3143 01-04-2019 05:32:18 2.8 C 50 %
3144 01-04-2019 05:44:18 2.7 C 50 %
3145 01-04-2019 05:56:17 2.8 C 51 %
3146 01-04-2019 06:08:17 2.7 C 51 %
3147 01-04-2019 06:20:17 2.5 C 50 %
3148 01-04-2019 06:32:17 2.2 C 50 %
3149 01-04-2019 06:44:17 2.1 C 51 %
3150 01-04-2019 06:57:17 2.2 C 52 %
Sensor: Nr:Datum:Temp:Feuchte:
Aussen-T/F 3151 01-04-2019 07:08:17 2.3 C 52 %
3152 01-04-2019 07:20:17 2.3 C 51 %
3153 01-04-2019 07:32:17 2 C 51 %
3154 01-04-2019 07:44:17 2 C 51 %
3155 01-04-2019 07:56:18 2 C 52 %
3156 01-04-2019 08:08:17 2.1 C 52 %
3157 01-04-2019 08:20:17 2.3 C 53 %
3158 01-04-2019 08:32:17 2.4 C 53 %
3159 01-04-2019 08:44:17 2.5 C 53 %
3160 01-04-2019 08:56:18 2.7 C 53 %
3161 01-04-2019 09:08:17 3.5 C 51 %
3162 01-04-2019 09:20:17 3.7 C 49 %
3163 01-04-2019 09:44:17 4.1 C 45 %
3164 01-04-2019 09:44:17 4.4 C 41 %
3165 01-04-2019 09:56:17 4.7 C 41 %
3166 01-04-2019 10:09:17 5.6 C 32 %
3167 01-04-2019 10:20:17 6.2 C 29 %
3168 01-04-2019 10:32:18 7.2 C 21 %
3169 01-04-2019 10:44:18 7.5 C 25 %
3170 01-04-2019 10:56:17 9 C 20 %
3171 01-04-2019 11:08:18 9.3 C 20 %
3172 01-04-2019 11:21:17 10 C 20 %
3173 01-04-2019 11:32:18 10.5 C 20 %
3174 01-04-2019 11:44:18 10.7 C 20 %
3175 01-04-2019 11:56:17 11.3 C 20 %
Sensor: Nr:Datum:Temp:Feuchte:
Aussen-T/F 3176 01-04-2019 12:08:18 11.9 C 20 %
3177 01-04-2019 12:21:17 12.2 C 20 %
3178 01-04-2019 12:32:17 12.6 C 20 %
3179 01-04-2019 12:44:17 14.1 C 20 %
3180 01-04-2019 12:56:17 12.2 C 20 %
3181 01-04-2019 13:09:17 12 C 20 %
3182 01-04-2019 13:20:17 12.5 C 20 %
3183 01-04-2019 13:44:17 12.8 C 20 %
3184 01-04-2019 13:44:18 13.3 C 20 %
3185 01-04-2019 13:56:18 13.8 C 20 %
3186 01-04-2019 14:09:17 14.2 C 20 %
3187 01-04-2019 14:20:17 14.7 C 20 %
3188 01-04-2019 14:33:17 14.8 C 20 %
3189 01-04-2019 14:45:17 15 C 20 %
3190 01-04-2019 14:57:17 15.7 C 20 %
3191 01-04-2019 15:08:17 15.7 C 20 %
3192 01-04-2019 15:21:17 16.2 C 20 %
3193 01-04-2019 15:44:17 16.8 C 20 %
3194 01-04-2019 15:44:18 16.8 C 20 %
3195 01-04-2019 15:56:18 17.1 C 20 %
3196 01-04-2019 16:09:17 17.2 C 20 %
3197 01-04-2019 16:20:18 18.1 C 20 %
3198 01-04-2019 16:33:17 18.2 C 20 %
3199 01-04-2019 16:45:17 18.2 C 20 %
3200 01-04-2019 16:56:17 17.9 C 20 %
Sensor: Nr:Datum:Temp:Feuchte:
Aussen-T/F 3201 01-04-2019 17:09:17 18 C 20 %
3202 01-04-2019 17:21:17 18.3 C 20 %
3203 01-04-2019 17:33:17 18.1 C 20 %
3204 01-04-2019 17:45:17 18.2 C 20 %
3205 01-04-2019 17:56:17 17.9 C 20 %
3206 01-04-2019 18:09:17 18.3 C 20 %
3207 01-04-2019 18:21:17 18 C 20 %
3208 01-04-2019 18:33:17 18.3 C 20 %
3209 01-04-2019 18:45:17 18.3 C 20 %
3210 01-04-2019 18:57:17 18.8 C 20 %
3211 01-04-2019 19:08:17 16.9 C 20 %
3212 01-04-2019 19:21:17 15.6 C 20 %
3213 01-04-2019 19:33:17 14.2 C 20 %
3214 01-04-2019 19:44:18 13.2 C 20 %
3215 01-04-2019 19:56:18 12.1 C 20 %
3216 01-04-2019 20:09:17 11.6 C 20 %
3217 01-04-2019 20:21:17 11.1 C 20 %
3218 01-04-2019 20:33:17 10.8 C 20 %
3219 01-04-2019 20:45:17 10.3 C 20 %
3220 01-04-2019 20:57:18 10 C 20 %
3221 01-04-2019 21:09:17 9.8 C 20 %
3222 01-04-2019 21:21:17 9.7 C 20 %
3223 01-04-2019 21:33:17 9.3 C 21 %
3224 01-04-2019 21:45:17 9.2 C 23 %
3225 01-04-2019 21:57:17 9 C 25 %
Sensor: Nr:Datum:Temp:Feuchte:
Aussen-T/F 3226 01-04-2019 22:09:17 8.6 C 25 %
3227 01-04-2019 22:21:17 8.7 C 25 %
3228 01-04-2019 22:33:17 8.4 C 25 %
3229 01-04-2019 22:45:17 8.4 C 25 %
3230 01-04-2019 22:57:17 8.4 C 25 %
3231 01-04-2019 23:09:17 8.1 C 25 %
3232 01-04-2019 23:21:17 8 C 25 %
3233 01-04-2019 23:33:17 7.6 C 26 %
3234 01-04-2019 23:45:17 7.4 C 27 %
3235 01-04-2019 23:57:17 7.5 C 27 %
3236 02-04-2019 00:09:17 7.5 C 27 %
3237 02-04-2019 00:21:17 6.9 C 31 %
3238 02-04-2019 00:33:17 6.8 C 30 %
3239 02-04-2019 00:45:17 6.6 C 31 %
3240 02-04-2019 00:57:17 6.2 C 32 %
3241 02-04-2019 01:09:17 5.7 C 35 %
3242 02-04-2019 01:21:17 5.6 C 36 %
3243 02-04-2019 01:33:18 5.5 C 36 %
3244 02-04-2019 01:45:17 5.4 C 36 %
3245 02-04-2019 01:57:17 5.4 C 37 %
3246 02-04-2019 02:09:17 5.3 C 37 %
3247 02-04-2019 02:21:17 5.1 C 38 %
3248 02-04-2019 02:33:17 5.1 C 38 %
3249 02-04-2019 02:45:17 4.8 C 39 %
3250 02-04-2019 02:57:17 4.5 C 40 %
Sensor: Nr:Datum:Temp:Feuchte:
Aussen-T/F 3251 02-04-2019 03:09:17 4.1 C 40 %
3252 02-04-2019 03:21:17 4 C 42 %
3253 02-04-2019 03:33:17 3.7 C 44 %
3254 02-04-2019 03:45:17 3.5 C 45 %
3255 02-04-2019 03:57:17 3.6 C 46 %
3256 02-04-2019 04:09:17 3.5 C 47 %
3257 02-04-2019 04:21:17 3.3 C 47 %
3258 02-04-2019 04:33:17 3.2 C 47 %
3259 02-04-2019 04:45:18 3.2 C 48 %
3260 02-04-2019 04:57:18 3 C 48 %
3261 02-04-2019 05:09:17 3.1 C 49 %
3262 02-04-2019 05:21:17 3.1 C 49 %
3263 02-04-2019 05:33:17 2.8 C 50 %
3264 02-04-2019 05:45:17 2.8 C 50 %
3265 02-04-2019 05:57:17 2.7 C 51 %
3266 02-04-2019 06:09:17 3.1 C 51 %
3267 02-04-2019 06:21:17 3 C 50 %
3268 02-04-2019 06:33:17 3 C 50 %
3269 02-04-2019 06:45:17 2.9 C 50 %
3270 02-04-2019 06:57:17 2.8 C 51 %
3271 02-04-2019 07:09:17 2.8 C 51 %
3272 02-04-2019 07:21:17 3.1 C 51 %
3273 02-04-2019 07:33:17 3.4 C 52 %
3274 02-04-2019 07:45:17 3.8 C 52 %
3275 02-04-2019 07:57:17 4 C 50 %
Sensor: Nr:Datum:Temp:Feuchte:
Aussen-T/F 3276 02-04-2019 08:09:18 4.3 C 49 %
3277 02-04-2019 08:21:17 4.9 C 48 %
3278 02-04-2019 08:33:17 5.5 C 44 %
3279 02-04-2019 08:45:18 5.7 C 38 %
3280 02-04-2019 08:57:18 5.9 C 37 %
3281 02-04-2019 09:09:17 6.5 C 35 %
3282 02-04-2019 09:21:17 7 C 31 %
3283 02-04-2019 09:33:17 7.5 C 30 %
3284 02-04-2019 09:45:17 7.8 C 29 %
3285 02-04-2019 09:57:17 8.1 C 26 %
3286 02-04-2019 10:09:17 8.1 C 26 %
3287 02-04-2019 10:21:18 9 C 23 %
3288 02-04-2019 10:33:17 9.9 C 21 %
3289 02-04-2019 10:45:17 10.4 C 20 %
3290 02-04-2019 10:57:17 11.4 C 20 %
3291 02-04-2019 11:09:18 12.5 C 20 %
3292 02-04-2019 11:21:17 13 C 20 %
3293 02-04-2019 11:33:18 13.4 C 20 %
3294 02-04-2019 11:45:17 14.7 C 20 %
3295 02-04-2019 11:57:17 15.4 C 20 %
3296 02-04-2019 12:09:18 15.6 C 20 %
3297 02-04-2019 12:21:17 16.1 C 20 %
3298 02-04-2019 12:33:17 16.6 C 20 %
3299 02-04-2019 12:45:17 16.8 C 20 %
3300 02-04-2019 12:57:17 17.4 C 20 %
Sensor: Nr:Datum:Temp:Feuchte:
Aussen-T/F 3301 02-04-2019 13:09:17 17.4 C 20 %
3302 02-04-2019 13:21:17 17.5 C 20 %
3303 02-04-2019 13:33:17 17.6 C 20 %
3304 02-04-2019 13:45:17 17.7 C 20 %
3305 02-04-2019 13:57:17 18.6 C 20 %
3306 02-04-2019 14:09:18 18.9 C 20 %
3307 02-04-2019 14:21:17 19.1 C 20 %
3308 02-04-2019 14:33:17 19 C 20 %
3309 02-04-2019 14:45:18 18.2 C 20 %
3310 02-04-2019 14:57:18 17.4 C 20 %
3311 02-04-2019 15:09:17 14.5 C 20 %
3312 02-04-2019 15:21:17 15.4 C 20 %
3313 02-04-2019 15:33:17 17.2 C 20 %
3314 02-04-2019 15:45:17 18.6 C 20 %
3315 02-04-2019 15:57:17 18.5 C 20 %
3316 02-04-2019 16:09:17 18.3 C 20 %
3317 02-04-2019 16:21:17 18.6 C 20 %
3318 02-04-2019 16:33:17 17.6 C 20 %
3319 02-04-2019 16:45:17 16.8 C 20 %
3320 02-04-2019 16:57:17 14.7 C 20 %
3321 02-04-2019 17:09:17 15.9 C 20 %
3322 02-04-2019 17:21:17 16.5 C 20 %
3323 02-04-2019 17:33:17 16.8 C 20 %
3324 02-04-2019 17:45:17 17 C 20 %
3325 02-04-2019 17:57:17 16.6 C 20 %
Sensor: Nr:Datum:Temp:Feuchte:
Aussen-T/F 3326 02-04-2019 18:09:17 16.3 C 20 %
3327 02-04-2019 18:21:17 16.1 C 20 %
3328 02-04-2019 18:33:17 16 C 20 %
3329 02-04-2019 18:45:17 16 C 20 %
3330 02-04-2019 18:57:17 16 C 20 %
3331 02-04-2019 19:09:17 15.6 C 20 %
3332 02-04-2019 19:21:17 15.1 C 20 %
3333 02-04-2019 19:33:17 15.1 C 20 %
3334 02-04-2019 19:45:17 14.4 C 20 %
3335 02-04-2019 19:57:17 14 C 20 %
3336 02-04-2019 20:09:17 13.4 C 20 %
3337 02-04-2019 20:21:17 13.3 C 20 %
3338 02-04-2019 20:33:17 13.2 C 20 %
3339 02-04-2019 20:45:17 13.3 C 20 %
3340 02-04-2019 20:57:17 13.1 C 20 %
3341 02-04-2019 21:09:17 13.1 C 20 %
3342 02-04-2019 21:21:17 13.2 C 20 %
3343 02-04-2019 21:33:17 13.2 C 20 %
3344 02-04-2019 21:45:17 13 C 20 %
3345 02-04-2019 21:57:17 12.8 C 20 %
3346 02-04-2019 22:09:17 12.5 C 20 %
3347 02-04-2019 22:21:17 12.5 C 20 %
3348 02-04-2019 22:33:17 12.1 C 20 %
3349 02-04-2019 22:45:17 11.5 C 20 %
3350 02-04-2019 22:57:17 11.5 C 20 %
Sensor: Nr:Datum:Temp:Feuchte:
Aussen-T/F 3351 02-04-2019 23:09:17 11.1 C 20 %
3352 02-04-2019 23:21:17 11 C 20 %
3353 02-04-2019 23:33:17 10.8 C 20 %
3354 02-04-2019 23:45:17 10.3 C 20 %
3355 02-04-2019 23:57:17 9.8 C 26 %
3356 03-04-2019 00:09:17 9.8 C 27 %
3357 03-04-2019 00:21:17 9.7 C 27 %
3358 03-04-2019 00:33:17 9.9 C 27 %
3359 03-04-2019 00:45:18 9.9 C 27 %
3360 03-04-2019 00:57:18 10 C 26 %
3361 03-04-2019 01:09:17 9.8 C 27 %
3362 03-04-2019 01:21:18 9.8 C 27 %
3363 03-04-2019 01:33:17 9.2 C 29 %
3364 03-04-2019 01:45:17 9 C 30 %
3365 03-04-2019 01:57:17 9.1 C 31 %
3366 03-04-2019 02:09:17 9.1 C 31 %
3367 03-04-2019 02:21:17 9.2 C 30 %
3368 03-04-2019 02:33:17 9.5 C 30 %
3369 03-04-2019 02:45:18 9.3 C 30 %
3370 03-04-2019 02:57:18 8.4 C 33 %
3371 03-04-2019 03:09:17 8.1 C 35 %
3372 03-04-2019 03:21:17 7.9 C 35 %
3373 03-04-2019 03:33:17 7.9 C 37 %
3374 03-04-2019 03:45:18 8.4 C 36 %
3375 03-04-2019 03:57:18 8.4 C 36 %
Sensor: Nr:Datum:Temp:Feuchte:
Aussen-T/F 3376 03-04-2019 04:09:17 8.6 C 35 %
3377 03-04-2019 04:21:17 8.5 C 35 %
3378 03-04-2019 04:33:17 8.2 C 36 %
3379 03-04-2019 04:45:17 8 C 36 %
3380 03-04-2019 04:57:17 8 C 37 %
3381 03-04-2019 05:09:18 8 C 37 %
3382 03-04-2019 05:21:17 7.9 C 38 %
3383 03-04-2019 05:33:17 7.9 C 39 %
3384 03-04-2019 05:45:17 7.6 C 38 %
3385 03-04-2019 05:57:17 7.2 C 40 %
3386 03-04-2019 06:09:18 7.2 C 41 %
3387 03-04-2019 06:21:17 7.4 C 41 %
3388 03-04-2019 06:33:17 7.8 C 39 %
3389 03-04-2019 06:45:18 8 C 37 %
3390 03-04-2019 06:57:18 8 C 36 %
3391 03-04-2019 07:09:17 8.1 C 34 %
3392 03-04-2019 07:21:17 7.9 C 35 %
3393 03-04-2019 07:33:17 8.1 C 34 %
3394 03-04-2019 07:45:18 8.2 C 35 %
3395 03-04-2019 07:57:18 8.4 C 35 %
3396 03-04-2019 08:09:17 8.5 C 34 %
3397 03-04-2019 08:21:17 8.5 C 33 %
3398 03-04-2019 08:33:18 8.1 C 36 %
3399 03-04-2019 08:45:17 7.9 C 41 %
3400 03-04-2019 08:57:17 7.5 C 45 %
Sensor: Nr:Datum:Temp:Feuchte:
Aussen-T/F 3401 03-04-2019 09:09:18 7.1 C 46 %
3402 03-04-2019 09:21:17 6.8 C 47 %
3403 03-04-2019 09:33:18 6.8 C 48 %
3404 03-04-2019 09:45:17 6.5 C 45 %
3405 03-04-2019 09:57:17 6.4 C 45 %
3406 03-04-2019 10:09:18 6.5 C 47 %
3407 03-04-2019 10:21:17 6.5 C 47 %
3408 03-04-2019 10:33:17 6.3 C 44 %
3409 03-04-2019 10:45:17 6.2 C 44 %
3410 03-04-2019 10:57:17 6.4 C 44 %
3411 03-04-2019 11:09:17 6.6 C 46 %
3412 03-04-2019 11:21:17 6.9 C 47 %
3413 03-04-2019 11:33:18 7.3 C 42 %
3414 03-04-2019 11:45:17 7.6 C 42 %
3415 03-04-2019 11:57:17 7.5 C 39 %
3416 03-04-2019 12:09:18 7.9 C 38 %
3417 03-04-2019 12:21:17 8.1 C 35 %
3418 03-04-2019 12:33:18 8.6 C 34 %
3419 03-04-2019 12:45:17 9.2 C 31 %
3420 03-04-2019 12:57:17 10 C 27 %
3421 03-04-2019 13:09:18 10.5 C 26 %
3422 03-04-2019 13:21:17 10.2 C 25 %
3423 03-04-2019 13:33:17 9.8 C 25 %
3424 03-04-2019 13:45:17 9.9 C 25 %
3425 03-04-2019 13:57:17 9.7 C 25 %
Sensor: Nr:Datum:Temp:Feuchte:
Aussen-T/F 3426 03-04-2019 14:09:17 9.5 C 26 %
3427 03-04-2019 14:21:18 9.8 C 26 %
3428 03-04-2019 14:33:17 9.8 C 25 %
3429 03-04-2019 14:45:17 10 C 25 %
3430 03-04-2019 14:57:17 10.2 C 21 %
3431 03-04-2019 15:09:17 10.4 C 22 %
3432 03-04-2019 15:21:17 10.7 C 21 %
3433 03-04-2019 15:33:17 10.2 C 20 %
3434 03-04-2019 15:45:17 10.3 C 20 %
3435 03-04-2019 15:57:17 10.2 C 20 %
3436 03-04-2019 16:09:17 10.4 C 20 %
3437 03-04-2019 16:21:17 10.2 C 21 %
3438 03-04-2019 16:33:17 10.1 C 20 %
3439 03-04-2019 16:45:17 10.2 C 22 %
3440 03-04-2019 16:57:17 9.7 C 25 %
3441 03-04-2019 17:09:18 9.4 C 26 %
3442 03-04-2019 17:21:17 9.1 C 27 %
3443 03-04-2019 17:33:18 8.4 C 33 %
3444 03-04-2019 17:45:17 7.8 C 39 %
3445 03-04-2019 17:57:17 7.5 C 46 %
3446 03-04-2019 18:09:18 7.4 C 50 %
3447 03-04-2019 18:21:17 6.9 C 49 %
3448 03-04-2019 18:33:17 6.9 C 51 %
3449 03-04-2019 18:45:17 6.7 C 51 %
3450 03-04-2019 18:57:17 6.5 C 51 %
Sensor: Nr:Datum:Temp:Feuchte:
Aussen-T/F 3451 03-04-2019 19:09:17 6.4 C 51 %
3452 03-04-2019 19:21:17 6.4 C 52 %
3453 03-04-2019 19:33:17 6.3 C 53 %
3454 03-04-2019 19:45:17 6.2 C 53 %
3455 03-04-2019 19:57:17 6 C 52 %
3456 03-04-2019 20:09:17 5.8 C 53 %
3457 03-04-2019 20:21:17 5.7 C 53 %
3458 03-04-2019 20:33:17 5.7 C 54 %
3459 03-04-2019 20:45:18 5.7 C 54 %
3460 03-04-2019 20:57:18 5.7 C 54 %
3461 03-04-2019 21:09:17 5.6 C 54 %
3462 03-04-2019 21:21:17 5.6 C 54 %
3463 03-04-2019 21:33:18 5.6 C 54 %
3464 03-04-2019 21:45:17 5.5 C 54 %
3465 03-04-2019 21:57:17 5.4 C 54 %
3466 03-04-2019 22:09:17 5.3 C 54 %
3467 03-04-2019 22:21:18 5.2 C 54 %
3468 03-04-2019 22:33:17 5.1 C 55 %
3469 03-04-2019 22:45:17 5.1 C 55 %
3470 03-04-2019 22:57:17 5 C 56 %
3471 03-04-2019 23:09:17 5 C 58 %
3472 03-04-2019 23:21:17 5 C 61 %
3473 03-04-2019 23:33:18 5 C 63 %
3474 03-04-2019 23:45:17 5 C 63 %
3475 03-04-2019 23:57:17 5 C 64 %
Sensor: Nr:Datum:Temp:Feuchte:
G-T/H 1 06-03-2019 00:06:18 9.5 C 73 %
2 06-03-2019 00:18:17 9.5 C 73 %
3 06-03-2019 00:30:17 9.5 C 73 %
4 06-03-2019 00:42:17 9.5 C 73 %
5 06-03-2019 00:54:17 9.5 C 73 %
6 06-03-2019 01:06:18 9.5 C 73 %
7 06-03-2019 01:18:17 9.5 C 73 %
8 06-03-2019 01:30:17 9.5 C 73 %
9 06-03-2019 01:42:17 9.5 C 73 %
10 06-03-2019 01:54:17 9.5 C 73 %
11 06-03-2019 02:06:17 9.5 C 73 %
12 06-03-2019 02:18:17 9.5 C 73 %
13 06-03-2019 02:30:17 9.5 C 73 %
14 06-03-2019 02:42:17 9.5 C 73 %
15 06-03-2019 02:54:17 9.5 C 73 %
16 06-03-2019 03:06:18 9.5 C 73 %
17 06-03-2019 03:18:17 9.5 C 73 %
18 06-03-2019 03:30:17 9.5 C 73 %
19 06-03-2019 03:42:17 9.5 C 73 %
20 06-03-2019 03:54:17 9.5 C 73 %
21 06-03-2019 04:06:18 9.4 C 73 %
22 06-03-2019 04:18:17 9.5 C 73 %
23 06-03-2019 04:30:17 9.4 C 73 %
24 06-03-2019 04:42:17 9.4 C 73 %
25 06-03-2019 04:54:17 9.4 C 73 %
Sensor: Nr:Datum:Temp:Feuchte:
G-T/H 26 06-03-2019 05:06:17 9.4 C 73 %
27 06-03-2019 05:18:17 9.4 C 73 %
28 06-03-2019 05:30:17 9.4 C 73 %
29 06-03-2019 05:42:17 9.4 C 73 %
30 06-03-2019 05:54:17 9.4 C 73 %
31 06-03-2019 06:06:17 9.4 C 73 %
32 06-03-2019 06:18:17 9.4 C 73 %
33 06-03-2019 06:30:18 9.4 C 73 %
34 06-03-2019 06:42:18 9.4 C 73 %
35 06-03-2019 06:54:17 9.4 C 73 %
36 06-03-2019 07:06:17 9.4 C 73 %
37 06-03-2019 07:18:17 9.4 C 73 %
38 06-03-2019 07:30:17 9.3 C 73 %
39 06-03-2019 07:42:17 9.3 C 73 %
40 06-03-2019 07:54:17 9.3 C 73 %
41 06-03-2019 08:06:17 9.3 C 73 %
42 06-03-2019 08:18:17 9.4 C 73 %
43 06-03-2019 08:30:17 9.3 C 73 %
44 06-03-2019 08:42:17 9.3 C 73 %
45 06-03-2019 08:54:17 9.3 C 73 %
46 06-03-2019 09:06:17 9.3 C 73 %
47 06-03-2019 09:18:17 9.3 C 73 %
48 06-03-2019 09:30:17 9.3 C 73 %
49 06-03-2019 09:42:17 9.4 C 73 %
50 06-03-2019 09:54:17 9.3 C 73 %
Sensor: Nr:Datum:Temp:Feuchte:
G-T/H 51 06-03-2019 10:06:17 9.3 C 73 %
52 06-03-2019 10:18:17 9.4 C 73 %
53 06-03-2019 10:30:17 9.3 C 73 %
54 06-03-2019 10:42:17 9.3 C 74 %
55 06-03-2019 10:54:17 9.3 C 74 %
56 06-03-2019 11:06:17 9.4 C 74 %
57 06-03-2019 11:18:18 9.4 C 74 %
58 06-03-2019 11:30:17 9.4 C 74 %
59 06-03-2019 11:42:17 9.4 C 74 %
60 06-03-2019 11:54:17 9.4 C 74 %
61 06-03-2019 12:06:18 9.5 C 74 %
62 06-03-2019 12:18:17 9.5 C 74 %
63 06-03-2019 12:30:17 9.5 C 74 %
64 06-03-2019 12:42:17 9.5 C 74 %
65 06-03-2019 12:54:17 9.5 C 74 %
66 06-03-2019 13:06:18 9.5 C 74 %
67 06-03-2019 13:18:17 9.6 C 74 %
68 06-03-2019 13:30:17 9.6 C 74 %
69 06-03-2019 13:42:17 9.6 C 74 %
70 06-03-2019 13:54:17 9.6 C 74 %
71 06-03-2019 14:06:18 9.7 C 74 %
72 06-03-2019 14:18:17 9.7 C 74 %
73 06-03-2019 14:30:17 9.7 C 74 %
74 06-03-2019 14:42:17 9.7 C 74 %
75 06-03-2019 14:54:17 9.8 C 74 %
Sensor: Nr:Datum:Temp:Feuchte:
G-T/H 76 06-03-2019 15:06:17 9.7 C 74 %
77 06-03-2019 15:18:17 9.8 C 74 %
78 06-03-2019 15:30:17 9.8 C 74 %
79 06-03-2019 15:42:17 9.8 C 74 %
80 06-03-2019 15:54:17 9.9 C 74 %
81 06-03-2019 16:06:17 9.9 C 74 %
82 06-03-2019 16:18:17 9.9 C 74 %
83 06-03-2019 16:30:17 9.9 C 74 %
84 06-03-2019 16:42:17 10 C 73 %
85 06-03-2019 16:54:17 10 C 73 %
86 06-03-2019 17:06:17 10 C 73 %
87 06-03-2019 17:18:17 10 C 73 %
88 06-03-2019 17:30:17 10.1 C 73 %
89 06-03-2019 17:42:17 10 C 73 %
90 06-03-2019 17:54:17 10.1 C 73 %
91 06-03-2019 18:06:17 10.1 C 73 %
92 06-03-2019 18:18:17 10.1 C 73 %
93 06-03-2019 18:30:17 10.1 C 73 %
94 06-03-2019 18:42:17 10.1 C 73 %
95 06-03-2019 18:54:17 10.2 C 73 %
96 06-03-2019 19:06:17 10.2 C 73 %
97 06-03-2019 19:18:17 10.2 C 73 %
98 06-03-2019 19:30:17 10.2 C 73 %
99 06-03-2019 19:42:17 10.2 C 74 %
100 06-03-2019 19:54:17 10.2 C 74 %
Sensor: Nr:Datum:Temp:Feuchte:
G-T/H 101 06-03-2019 20:06:17 10.2 C 74 %
102 06-03-2019 20:18:17 10.2 C 74 %
103 06-03-2019 20:30:17 10.2 C 74 %
104 06-03-2019 20:42:17 10.2 C 74 %
105 06-03-2019 20:54:17 10.2 C 74 %
106 06-03-2019 21:06:17 10.3 C 74 %
107 06-03-2019 21:18:17 10.2 C 74 %
108 06-03-2019 21:30:17 10.3 C 74 %
109 06-03-2019 21:42:17 10.3 C 74 %
110 06-03-2019 21:54:17 10.3 C 74 %
111 06-03-2019 22:06:18 10.3 C 74 %
112 06-03-2019 22:18:17 10.3 C 74 %
113 06-03-2019 22:30:17 10.3 C 74 %
114 06-03-2019 22:42:17 10.4 C 74 %
115 06-03-2019 22:54:17 10.4 C 74 %
116 06-03-2019 23:06:17 10.4 C 74 %
117 06-03-2019 23:18:17 10.4 C 74 %
118 06-03-2019 23:30:17 10.4 C 74 %
119 06-03-2019 23:42:17 10.4 C 74 %
120 06-03-2019 23:54:17 10.4 C 74 %
121 07-03-2019 00:06:17 10.4 C 74 %
122 07-03-2019 00:18:17 10.4 C 74 %
123 07-03-2019 00:30:17 10.4 C 74 %
124 07-03-2019 00:42:18 10.4 C 74 %
125 07-03-2019 00:54:17 10.4 C 74 %
Sensor: Nr:Datum:Temp:Feuchte:
G-T/H 126 07-03-2019 01:06:17 10.4 C 74 %
127 07-03-2019 01:18:17 10.4 C 74 %
128 07-03-2019 01:30:17 10.4 C 74 %
129 07-03-2019 01:42:17 10.4 C 74 %
130 07-03-2019 01:54:17 10.4 C 74 %
131 07-03-2019 02:06:17 10.4 C 74 %
132 07-03-2019 02:18:17 10.4 C 74 %
133 07-03-2019 02:30:17 10.4 C 74 %
134 07-03-2019 02:42:17 10.4 C 74 %
135 07-03-2019 02:54:17 10.4 C 74 %
136 07-03-2019 03:06:17 10.4 C 74 %
137 07-03-2019 03:18:17 10.4 C 74 %
138 07-03-2019 03:30:18 10.4 C 74 %
139 07-03-2019 03:42:18 10.4 C 74 %
140 07-03-2019 03:54:17 10.4 C 74 %
141 07-03-2019 04:06:17 10.4 C 74 %
142 07-03-2019 04:18:17 10.4 C 74 %
143 07-03-2019 04:30:17 10.5 C 74 %
144 07-03-2019 04:42:17 10.4 C 74 %
145 07-03-2019 04:54:17 10.5 C 74 %
146 07-03-2019 05:06:17 10.5 C 75 %
147 07-03-2019 05:19:17 10.5 C 75 %
148 07-03-2019 05:30:17 10.5 C 75 %
149 07-03-2019 05:42:17 10.5 C 75 %
150 07-03-2019 05:54:17 10.5 C 74 %
Sensor: Nr:Datum:Temp:Feuchte:
G-T/H 151 07-03-2019 06:06:17 10.5 C 74 %
152 07-03-2019 06:18:17 10.5 C 74 %
153 07-03-2019 06:30:18 10.5 C 74 %
154 07-03-2019 06:42:18 10.5 C 74 %
155 07-03-2019 06:55:17 10.5 C 74 %
156 07-03-2019 07:06:17 10.5 C 74 %
157 07-03-2019 07:18:18 10.5 C 74 %
158 07-03-2019 07:31:17 10.5 C 74 %
159 07-03-2019 07:42:17 10.5 C 74 %
160 07-03-2019 07:54:17 10.5 C 74 %
161 07-03-2019 08:06:17 10.5 C 74 %
162 07-03-2019 08:19:17 10.5 C 74 %
163 07-03-2019 08:30:17 10.5 C 74 %
164 07-03-2019 08:42:17 10.5 C 74 %
165 07-03-2019 08:54:17 10.5 C 74 %
166 07-03-2019 09:06:17 10.5 C 74 %
167 07-03-2019 09:19:17 10.5 C 74 %
168 07-03-2019 09:30:17 10.5 C 74 %
169 07-03-2019 09:42:17 10.5 C 74 %
170 07-03-2019 09:54:17 10.5 C 74 %
171 07-03-2019 10:07:17 10.5 C 74 %
172 07-03-2019 10:19:17 10.5 C 74 %
173 07-03-2019 10:30:17 10.5 C 74 %
174 07-03-2019 10:42:17 10.5 C 74 %
175 07-03-2019 10:54:17 10.5 C 74 %
Sensor: Nr:Datum:Temp:Feuchte:
G-T/H 176 07-03-2019 11:07:17 10.5 C 74 %
177 07-03-2019 11:19:17 10.5 C 74 %
178 07-03-2019 11:30:17 10.5 C 74 %
179 07-03-2019 11:42:17 10.5 C 74 %
180 07-03-2019 11:55:17 10.5 C 74 %
181 07-03-2019 12:07:17 10.5 C 74 %
182 07-03-2019 12:18:17 10.5 C 74 %
183 07-03-2019 12:30:18 10.5 C 74 %
184 07-03-2019 12:42:18 10.5 C 74 %
185 07-03-2019 12:55:17 10.5 C 74 %
186 07-03-2019 13:07:17 10.5 C 74 %
187 07-03-2019 13:18:18 10.5 C 74 %
188 07-03-2019 13:31:17 10.6 C 74 %
189 07-03-2019 13:43:17 10.6 C 74 %
190 07-03-2019 13:55:17 10.6 C 74 %
191 07-03-2019 14:06:17 10.6 C 74 %
192 07-03-2019 14:19:17 10.5 C 74 %
193 07-03-2019 14:31:17 10.5 C 74 %
194 07-03-2019 14:43:17 10.6 C 74 %
195 07-03-2019 14:55:17 10.6 C 74 %
196 07-03-2019 15:06:17 10.6 C 74 %
197 07-03-2019 15:19:17 10.6 C 74 %
198 07-03-2019 15:31:17 10.6 C 74 %
199 07-03-2019 15:43:17 10.6 C 74 %
200 07-03-2019 15:55:17 10.6 C 74 %
Sensor: Nr:Datum:Temp:Feuchte:
G-T/H 201 07-03-2019 16:07:17 10.6 C 74 %
202 07-03-2019 16:19:17 10.6 C 74 %
203 07-03-2019 16:31:17 10.6 C 74 %
204 07-03-2019 16:43:17 10.6 C 74 %
205 07-03-2019 16:55:17 10.6 C 74 %
206 07-03-2019 17:07:18 10.6 C 74 %
207 07-03-2019 17:19:17 10.6 C 74 %
208 07-03-2019 17:31:17 10.6 C 74 %
209 07-03-2019 17:43:18 10.6 C 74 %
210 07-03-2019 17:55:17 10.6 C 74 %
211 07-03-2019 18:06:18 10.6 C 74 %
212 07-03-2019 18:19:17 10.6 C 74 %
213 07-03-2019 18:31:17 10.5 C 74 %
214 07-03-2019 18:43:17 10.5 C 74 %
215 07-03-2019 18:55:17 10.5 C 73 %
216 07-03-2019 19:07:17 10.5 C 73 %
217 07-03-2019 19:19:17 10.5 C 72 %
218 07-03-2019 19:31:17 10.5 C 72 %
219 07-03-2019 19:43:17 10.5 C 72 %
220 07-03-2019 19:55:17 10.5 C 73 %
221 07-03-2019 20:06:18 10.5 C 73 %
222 07-03-2019 20:19:17 10.5 C 73 %
223 07-03-2019 20:31:17 10.5 C 73 %
224 07-03-2019 20:43:17 10.4 C 72 %
225 07-03-2019 20:55:18 10.4 C 72 %
Sensor: Nr:Datum:Temp:Feuchte:
G-T/H 226 07-03-2019 21:07:17 10.4 C 72 %
227 07-03-2019 21:19:17 10.4 C 72 %
228 07-03-2019 21:31:17 10.4 C 72 %
229 07-03-2019 21:43:18 10.4 C 72 %
230 07-03-2019 21:55:17 10.4 C 72 %
231 07-03-2019 22:07:17 10.4 C 72 %
232 07-03-2019 22:19:18 10.4 C 72 %
233 07-03-2019 22:31:17 10.4 C 72 %
234 07-03-2019 22:43:17 10.4 C 72 %
235 07-03-2019 22:55:17 10.4 C 72 %
236 07-03-2019 23:07:17 10.4 C 72 %
237 07-03-2019 23:19:17 10.4 C 72 %
238 07-03-2019 23:31:17 10.3 C 72 %
239 07-03-2019 23:43:17 10.4 C 72 %
240 07-03-2019 23:55:18 10.3 C 72 %
241 08-03-2019 00:07:17 10.3 C 73 %
242 08-03-2019 00:19:17 10.3 C 73 %
243 08-03-2019 00:31:18 10.3 C 73 %
244 08-03-2019 00:43:18 10.3 C 73 %
245 08-03-2019 00:55:17 10.2 C 73 %
246 08-03-2019 01:07:17 10.2 C 73 %
247 08-03-2019 01:19:17 10.2 C 73 %
248 08-03-2019 01:31:17 10.2 C 73 %
249 08-03-2019 01:43:17 10.2 C 73 %
250 08-03-2019 01:55:17 10.2 C 73 %
Sensor: Nr:Datum:Temp:Feuchte:
G-T/H 251 08-03-2019 02:07:17 10.2 C 73 %
252 08-03-2019 02:19:17 10.2 C 73 %
253 08-03-2019 02:31:17 10.2 C 73 %
254 08-03-2019 02:43:17 10.2 C 73 %
255 08-03-2019 02:55:18 10.2 C 73 %
256 08-03-2019 03:07:17 10.2 C 73 %
257 08-03-2019 03:19:17 10.2 C 73 %
258 08-03-2019 03:31:17 10.2 C 73 %
259 08-03-2019 03:43:17 10.1 C 73 %
260 08-03-2019 03:55:17 10.1 C 73 %
261 08-03-2019 04:07:17 10.1 C 73 %
262 08-03-2019 04:19:17 10.1 C 73 %
263 08-03-2019 04:31:17 10.1 C 72 %
264 08-03-2019 04:43:17 10.1 C 72 %
265 08-03-2019 04:55:17 10.1 C 72 %
266 08-03-2019 05:07:17 10 C 72 %
267 08-03-2019 05:19:17 10 C 71 %
268 08-03-2019 05:31:17 10 C 71 %
269 08-03-2019 05:43:18 10 C 71 %
270 08-03-2019 05:55:18 10 C 71 %
271 08-03-2019 06:07:17 10 C 71 %
272 08-03-2019 06:19:17 10 C 71 %
273 08-03-2019 06:31:17 10 C 71 %
274 08-03-2019 06:43:17 10 C 71 %
275 08-03-2019 06:55:17 10 C 71 %
Sensor: Nr:Datum:Temp:Feuchte:
G-T/H 276 08-03-2019 07:07:17 10 C 72 %
277 08-03-2019 07:19:17 10 C 72 %
278 08-03-2019 07:31:17 10 C 72 %
279 08-03-2019 07:43:17 10 C 72 %
280 08-03-2019 07:55:17 10 C 72 %
281 08-03-2019 08:07:18 10 C 72 %
282 08-03-2019 08:19:17 9.9 C 73 %
283 08-03-2019 08:31:17 9.9 C 73 %
284 08-03-2019 08:43:17 9.9 C 73 %
285 08-03-2019 08:55:17 9.9 C 73 %
286 08-03-2019 09:07:18 9.9 C 73 %
287 08-03-2019 09:19:17 9.9 C 73 %
288 08-03-2019 09:31:17 9.9 C 73 %
289 08-03-2019 09:43:17 9.9 C 73 %
290 08-03-2019 09:55:17 9.9 C 73 %
291 08-03-2019 10:07:18 9.9 C 73 %
292 08-03-2019 10:19:17 9.9 C 73 %
293 08-03-2019 10:31:17 9.9 C 73 %
294 08-03-2019 10:43:17 9.9 C 73 %
295 08-03-2019 10:55:17 9.9 C 73 %
296 08-03-2019 11:07:18 9.9 C 73 %
297 08-03-2019 11:19:17 9.9 C 73 %
298 08-03-2019 11:31:17 9.9 C 73 %
299 08-03-2019 11:43:17 9.9 C 73 %
300 08-03-2019 11:55:17 9.9 C 73 %
Sensor: Nr:Datum:Temp:Feuchte:
G-T/H 301 08-03-2019 12:07:18 9.9 C 73 %
302 08-03-2019 12:19:17 9.9 C 73 %
303 08-03-2019 12:31:17 9.9 C 73 %
304 08-03-2019 12:43:17 9.9 C 73 %
305 08-03-2019 12:55:17 9.9 C 73 %
306 08-03-2019 13:07:17 9.9 C 73 %
307 08-03-2019 13:19:17 10 C 72 %
308 08-03-2019 13:31:17 9.9 C 73 %
309 08-03-2019 13:43:17 9.9 C 73 %
310 08-03-2019 13:55:17 9.9 C 73 %
311 08-03-2019 14:07:17 10 C 72 %
312 08-03-2019 14:19:17 10 C 72 %
313 08-03-2019 14:31:17 10 C 72 %
314 08-03-2019 14:43:17 10 C 72 %
315 08-03-2019 14:55:17 10 C 73 %
316 08-03-2019 15:07:17 10 C 73 %
317 08-03-2019 15:19:17 10 C 73 %
318 08-03-2019 15:31:17 10 C 73 %
319 08-03-2019 15:43:17 10.1 C 73 %
320 08-03-2019 15:55:17 10.1 C 73 %
321 08-03-2019 16:07:17 10.1 C 73 %
322 08-03-2019 16:19:17 10.1 C 73 %
323 08-03-2019 16:31:17 10.1 C 73 %
324 08-03-2019 16:43:18 10.1 C 73 %
325 08-03-2019 16:55:17 10.1 C 73 %
Sensor: Nr:Datum:Temp:Feuchte:
G-T/H 326 08-03-2019 17:07:17 10.1 C 73 %
327 08-03-2019 17:19:17 10.1 C 73 %
328 08-03-2019 17:31:17 10.1 C 73 %
329 08-03-2019 17:43:17 10.1 C 73 %
330 08-03-2019 17:55:17 10.1 C 73 %
331 08-03-2019 18:07:17 10.1 C 73 %
332 08-03-2019 18:19:17 10.1 C 73 %
333 08-03-2019 18:31:17 10.1 C 73 %
334 08-03-2019 18:43:17 10.1 C 73 %
335 08-03-2019 18:55:18 10.2 C 73 %
336 08-03-2019 19:07:17 10.2 C 73 %
337 08-03-2019 19:19:17 10.2 C 73 %
338 08-03-2019 19:31:18 10.1 C 73 %
339 08-03-2019 19:43:18 10.2 C 73 %
340 08-03-2019 19:55:17 10.2 C 73 %
341 08-03-2019 20:07:17 10.1 C 73 %
342 08-03-2019 20:19:18 10.2 C 73 %
343 08-03-2019 20:31:17 10.2 C 73 %
344 08-03-2019 20:43:17 10.2 C 73 %
345 08-03-2019 20:55:17 10.1 C 73 %
346 08-03-2019 21:07:17 10.2 C 73 %
347 08-03-2019 21:19:18 10.1 C 73 %
348 08-03-2019 21:31:17 10.1 C 73 %
349 08-03-2019 21:43:17 10.1 C 73 %
350 08-03-2019 21:55:17 10.1 C 73 %
Sensor: Nr:Datum:Temp:Feuchte:
G-T/H 351 08-03-2019 22:07:17 10.1 C 73 %
352 08-03-2019 22:19:18 10.1 C 73 %
353 08-03-2019 22:31:17 10.1 C 73 %
354 08-03-2019 22:43:17 10.1 C 73 %
355 08-03-2019 22:55:17 10.1 C 73 %
356 08-03-2019 23:07:17 10.1 C 73 %
357 08-03-2019 23:19:17 10.1 C 73 %
358 08-03-2019 23:31:18 10.1 C 73 %
359 08-03-2019 23:43:18 10.1 C 73 %
360 08-03-2019 23:55:17 10 C 73 %
361 09-03-2019 00:07:17 10 C 73 %
362 09-03-2019 00:19:17 10.1 C 73 %
363 09-03-2019 00:31:18 10 C 73 %
364 09-03-2019 00:43:18 10.1 C 73 %
365 09-03-2019 00:55:17 10 C 73 %
366 09-03-2019 01:07:17 10 C 73 %
367 09-03-2019 01:19:17 10 C 73 %
368 09-03-2019 01:31:17 10 C 73 %
369 09-03-2019 01:43:17 10 C 73 %
370 09-03-2019 01:55:17 10 C 73 %
371 09-03-2019 02:07:17 10 C 73 %
372 09-03-2019 02:19:17 10 C 73 %
373 09-03-2019 02:31:17 10 C 73 %
374 09-03-2019 02:43:17 10 C 73 %
375 09-03-2019 02:55:17 10 C 73 %
Sensor: Nr:Datum:Temp:Feuchte:
G-T/H 376 09-03-2019 03:07:17 10 C 73 %
377 09-03-2019 03:19:17 10 C 73 %
378 09-03-2019 03:31:17 10 C 73 %
379 09-03-2019 03:43:17 10 C 73 %
380 09-03-2019 03:55:17 10 C 73 %
381 09-03-2019 04:07:17 10 C 73 %
382 09-03-2019 04:19:17 10 C 73 %
383 09-03-2019 04:31:17 10 C 73 %
384 09-03-2019 04:43:17 10 C 73 %
385 09-03-2019 04:55:17 10 C 73 %
386 09-03-2019 05:07:17 9.9 C 74 %
387 09-03-2019 05:19:17 9.9 C 74 %
388 09-03-2019 05:31:17 9.9 C 74 %
389 09-03-2019 05:43:17 9.9 C 74 %
390 09-03-2019 05:55:17 9.9 C 74 %
391 09-03-2019 06:07:17 9.9 C 74 %
392 09-03-2019 06:19:17 9.9 C 74 %
393 09-03-2019 06:31:17 9.9 C 74 %
394 09-03-2019 06:43:17 9.9 C 74 %
395 09-03-2019 06:55:17 9.9 C 74 %
396 09-03-2019 07:07:18 9.9 C 74 %
397 09-03-2019 07:19:17 9.9 C 74 %
398 09-03-2019 07:31:17 9.9 C 74 %
399 09-03-2019 07:43:17 9.9 C 74 %
400 09-03-2019 07:55:17 9.9 C 74 %
Sensor: Nr:Datum:Temp:Feuchte:
G-T/H 401 09-03-2019 08:07:17 9.9 C 74 %
402 09-03-2019 08:19:17 9.9 C 74 %
403 09-03-2019 08:31:17 9.9 C 74 %
404 09-03-2019 08:43:17 9.9 C 74 %
405 09-03-2019 08:55:17 9.9 C 74 %
406 09-03-2019 09:07:17 9.9 C 74 %
407 09-03-2019 09:19:17 9.9 C 74 %
408 09-03-2019 09:31:17 10 C 73 %
409 09-03-2019 09:43:18 9.9 C 74 %
410 09-03-2019 09:55:17 9.9 C 74 %
411 09-03-2019 10:07:17 10 C 73 %
412 09-03-2019 10:19:17 10 C 73 %
413 09-03-2019 10:31:18 9.9 C 74 %
414 09-03-2019 10:43:18 9.9 C 74 %
415 09-03-2019 10:55:17 10 C 73 %
416 09-03-2019 11:07:17 10 C 73 %
417 09-03-2019 11:19:17 9.9 C 74 %
418 09-03-2019 11:31:18 10 C 73 %
419 09-03-2019 11:43:18 10 C 73 %
420 09-03-2019 11:55:17 10 C 74 %
421 09-03-2019 12:07:17 10 C 74 %
422 09-03-2019 12:19:17 10 C 74 %
423 09-03-2019 12:31:17 10 C 74 %
424 09-03-2019 12:43:18 10.1 C 74 %
425 09-03-2019 12:55:17 10.1 C 74 %
Sensor: Nr:Datum:Temp:Feuchte:
G-T/H 426 09-03-2019 13:07:17 10.1 C 74 %
427 09-03-2019 13:19:17 10.1 C 74 %
428 09-03-2019 13:31:17 10.1 C 74 %
429 09-03-2019 13:43:17 10.1 C 74 %
430 09-03-2019 13:55:18 10.2 C 74 %
431 09-03-2019 14:07:17 10.1 C 74 %
432 09-03-2019 14:19:17 10.1 C 74 %
433 09-03-2019 14:31:18 10.2 C 74 %
434 09-03-2019 14:43:18 10.2 C 74 %
435 09-03-2019 14:55:17 10.2 C 74 %
436 09-03-2019 15:07:17 10.3 C 74 %
437 09-03-2019 15:19:17 10.3 C 74 %
438 09-03-2019 15:31:18 10.3 C 74 %
439 09-03-2019 15:43:18 10.3 C 74 %
440 09-03-2019 15:55:17 10.3 C 74 %
441 09-03-2019 16:07:17 10.3 C 74 %
442 09-03-2019 16:19:17 10.4 C 74 %
443 09-03-2019 16:31:17 10.3 C 74 %
444 09-03-2019 16:43:17 10.4 C 74 %
445 09-03-2019 16:55:17 10.4 C 74 %
446 09-03-2019 17:07:17 10.4 C 74 %
447 09-03-2019 17:19:17 10.4 C 74 %
448 09-03-2019 17:31:17 10.4 C 74 %
449 09-03-2019 17:43:17 10.4 C 74 %
450 09-03-2019 17:55:17 10.4 C 74 %
Sensor: Nr:Datum:Temp:Feuchte:
G-T/H 451 09-03-2019 18:07:17 10.4 C 73 %
452 09-03-2019 18:19:17 10.5 C 73 %
453 09-03-2019 18:31:17 10.5 C 73 %
454 09-03-2019 18:43:17 10.5 C 73 %
455 09-03-2019 18:55:17 10.5 C 73 %
456 09-03-2019 19:07:18 10.5 C 73 %
457 09-03-2019 19:19:17 10.5 C 73 %
458 09-03-2019 19:31:17 10.5 C 72 %
459 09-03-2019 19:43:17 10.5 C 72 %
460 09-03-2019 19:55:17 10.5 C 72 %
461 09-03-2019 20:07:18 10.5 C 72 %
462 09-03-2019 20:19:17 10.5 C 72 %
463 09-03-2019 20:31:17 10.5 C 72 %
464 09-03-2019 20:43:17 10.5 C 73 %
465 09-03-2019 20:55:17 10.5 C 73 %
466 09-03-2019 21:07:17 10.5 C 73 %
467 09-03-2019 21:19:17 10.6 C 73 %
468 09-03-2019 21:31:18 10.5 C 73 %
469 09-03-2019 21:43:18 10.6 C 73 %
470 09-03-2019 21:55:17 10.6 C 73 %
471 09-03-2019 22:07:17 10.6 C 73 %
472 09-03-2019 22:19:17 10.6 C 73 %
473 09-03-2019 22:31:17 10.6 C 73 %
474 09-03-2019 22:43:17 10.6 C 73 %
475 09-03-2019 22:55:17 10.6 C 73 %
Sensor: Nr:Datum:Temp:Feuchte:
G-T/H 476 09-03-2019 23:07:18 10.6 C 73 %
477 09-03-2019 23:19:17 10.6 C 73 %
478 09-03-2019 23:31:17 10.6 C 73 %
479 09-03-2019 23:43:17 10.6 C 73 %
480 09-03-2019 23:55:17 10.6 C 73 %
481 10-03-2019 00:07:17 10.6 C 73 %
482 10-03-2019 00:19:17 10.6 C 73 %
483 10-03-2019 00:31:17 10.6 C 73 %
484 10-03-2019 00:43:17 10.6 C 73 %
485 10-03-2019 00:55:17 10.6 C 73 %
486 10-03-2019 01:07:17 10.6 C 73 %
487 10-03-2019 01:19:17 10.6 C 73 %
488 10-03-2019 01:31:17 10.6 C 73 %
489 10-03-2019 01:43:17 10.6 C 73 %
490 10-03-2019 01:55:17 10.6 C 73 %
491 10-03-2019 02:07:17 10.6 C 73 %
492 10-03-2019 02:19:18 10.6 C 73 %
493 10-03-2019 02:31:17 10.6 C 73 %
494 10-03-2019 02:43:17 10.6 C 73 %
495 10-03-2019 02:55:17 10.6 C 73 %
496 10-03-2019 03:07:17 10.6 C 74 %
497 10-03-2019 03:19:17 10.6 C 74 %
498 10-03-2019 03:31:17 10.6 C 74 %
499 10-03-2019 03:43:17 10.6 C 74 %
500 10-03-2019 03:55:17 10.6 C 74 %
Sensor: Nr:Datum:Temp:Feuchte:
G-T/H 501 10-03-2019 04:07:17 10.6 C 74 %
502 10-03-2019 04:19:17 10.6 C 74 %
503 10-03-2019 04:31:17 10.6 C 74 %
504 10-03-2019 04:43:17 10.6 C 74 %
505 10-03-2019 04:55:17 10.6 C 74 %
506 10-03-2019 05:07:17 10.6 C 74 %
507 10-03-2019 05:19:17 10.6 C 74 %
508 10-03-2019 05:31:17 10.6 C 74 %
509 10-03-2019 05:43:17 10.5 C 74 %
510 10-03-2019 05:55:18 10.5 C 74 %
511 10-03-2019 06:07:17 10.5 C 74 %
512 10-03-2019 06:19:18 10.5 C 74 %
513 10-03-2019 06:31:17 10.5 C 74 %
514 10-03-2019 06:43:17 10.5 C 74 %
515 10-03-2019 06:55:17 10.5 C 74 %
516 10-03-2019 07:07:18 10.5 C 74 %
517 10-03-2019 07:19:17 10.5 C 74 %
518 10-03-2019 07:31:17 10.5 C 74 %
519 10-03-2019 07:43:17 10.5 C 74 %
520 10-03-2019 07:55:17 10.5 C 74 %
521 10-03-2019 08:07:17 10.5 C 74 %
522 10-03-2019 08:19:17 10.5 C 74 %
523 10-03-2019 08:31:17 10.5 C 74 %
524 10-03-2019 08:43:17 10.5 C 74 %
525 10-03-2019 08:55:17 10.5 C 74 %
Sensor: Nr:Datum:Temp:Feuchte:
G-T/H 526 10-03-2019 09:07:17 10.5 C 74 %
527 10-03-2019 09:19:17 10.5 C 74 %
528 10-03-2019 09:31:17 10.5 C 74 %
529 10-03-2019 09:43:17 10.5 C 74 %
530 10-03-2019 09:55:17 10.5 C 74 %
531 10-03-2019 10:07:18 10.6 C 74 %
532 10-03-2019 10:19:17 10.5 C 74 %
533 10-03-2019 10:31:17 10.6 C 74 %
534 10-03-2019 10:43:17 10.6 C 74 %
535 10-03-2019 10:55:17 10.6 C 74 %
536 10-03-2019 11:07:17 10.6 C 74 %
537 10-03-2019 11:19:17 10.6 C 74 %
538 10-03-2019 11:31:17 10.6 C 74 %
539 10-03-2019 11:43:17 10.6 C 74 %
540 10-03-2019 11:55:18 10.6 C 74 %
541 10-03-2019 12:07:17 10.6 C 74 %
542 10-03-2019 12:19:17 10.7 C 74 %
543 10-03-2019 12:31:18 10.7 C 74 %
544 10-03-2019 12:43:18 10.7 C 74 %
545 10-03-2019 12:55:17 10.7 C 74 %
546 10-03-2019 13:07:17 10.7 C 74 %
547 10-03-2019 13:19:17 10.7 C 74 %
548 10-03-2019 13:31:17 10.7 C 74 %
549 10-03-2019 13:43:17 10.8 C 74 %
550 10-03-2019 13:55:17 10.8 C 74 %
Sensor: Nr:Datum:Temp:Feuchte:
G-T/H 551 10-03-2019 14:07:17 10.8 C 74 %
552 10-03-2019 14:19:17 10.8 C 74 %
553 10-03-2019 14:31:17 10.8 C 74 %
554 10-03-2019 14:43:17 10.8 C 74 %
555 10-03-2019 14:55:17 10.8 C 74 %
556 10-03-2019 15:07:17 10.9 C 74 %
557 10-03-2019 15:19:17 10.9 C 73 %
558 10-03-2019 15:31:17 10.9 C 73 %
559 10-03-2019 15:43:17 10.9 C 73 %
560 10-03-2019 15:55:17 10.9 C 72 %
561 10-03-2019 16:07:18 10.9 C 72 %
562 10-03-2019 16:19:17 10.9 C 71 %
563 10-03-2019 16:31:18 10.9 C 71 %
564 10-03-2019 16:43:18 10.9 C 71 %
565 10-03-2019 16:55:17 10.9 C 71 %
566 10-03-2019 17:07:17 10.8 C 70 %
567 10-03-2019 17:19:17 10.8 C 69 %
568 10-03-2019 17:31:17 10.8 C 68 %
569 10-03-2019 17:43:17 10.8 C 67 %
570 10-03-2019 17:55:17 10.8 C 67 %
571 10-03-2019 18:07:18 10.8 C 67 %
572 10-03-2019 18:19:17 10.8 C 68 %
573 10-03-2019 18:31:18 10.8 C 68 %
574 10-03-2019 18:43:18 10.8 C 68 %
575 10-03-2019 18:55:17 10.8 C 69 %
Sensor: Nr:Datum:Temp:Feuchte:
G-T/H 576 10-03-2019 19:07:17 10.8 C 69 %
577 10-03-2019 19:19:17 10.8 C 69 %
578 10-03-2019 19:31:18 10.7 C 69 %
579 10-03-2019 19:43:18 10.7 C 68 %
580 10-03-2019 19:55:17 10.7 C 68 %
581 10-03-2019 20:07:17 10.6 C 67 %
582 10-03-2019 20:19:17 10.6 C 67 %
583 10-03-2019 20:31:17 10.6 C 66 %
584 10-03-2019 20:43:17 10.5 C 66 %
585 10-03-2019 20:55:17 10.5 C 66 %
586 10-03-2019 21:07:17 10.5 C 65 %
587 10-03-2019 21:19:17 10.4 C 65 %
588 10-03-2019 21:31:17 10.4 C 65 %
589 10-03-2019 21:43:17 10.4 C 65 %
590 10-03-2019 21:55:17 10.4 C 64 %
591 10-03-2019 22:07:17 10.4 C 64 %
592 10-03-2019 22:19:17 10.3 C 64 %
593 10-03-2019 22:31:17 10.3 C 64 %
594 10-03-2019 22:43:17 10.3 C 64 %
595 10-03-2019 22:55:17 10.3 C 64 %
596 10-03-2019 23:07:17 10.2 C 64 %
597 10-03-2019 23:19:17 10.3 C 64 %
598 10-03-2019 23:31:17 10.2 C 64 %
599 10-03-2019 23:43:17 10.2 C 64 %
600 10-03-2019 23:55:17 10.2 C 64 %
Sensor: Nr:Datum:Temp:Feuchte:
G-T/H 601 11-03-2019 00:07:17 10.1 C 64 %
602 11-03-2019 00:19:17 10.1 C 63 %
603 11-03-2019 00:31:17 10.1 C 63 %
604 11-03-2019 00:43:17 10.1 C 63 %
605 11-03-2019 00:55:18 10 C 63 %
606 11-03-2019 01:07:17 10 C 63 %
607 11-03-2019 01:19:17 10 C 63 %
608 11-03-2019 01:31:18 10 C 63 %
609 11-03-2019 01:43:18 10 C 63 %
610 11-03-2019 01:55:17 9.9 C 63 %
611 11-03-2019 02:07:17 9.9 C 63 %
612 11-03-2019 02:19:17 9.9 C 63 %
613 11-03-2019 02:31:17 9.9 C 63 %
614 11-03-2019 02:43:17 9.9 C 63 %
615 11-03-2019 02:55:17 9.8 C 63 %
616 11-03-2019 03:07:17 9.8 C 63 %
617 11-03-2019 03:19:17 9.8 C 63 %
618 11-03-2019 03:31:17 9.8 C 63 %
619 11-03-2019 03:43:17 9.7 C 63 %
620 11-03-2019 03:55:17 9.7 C 63 %
621 11-03-2019 04:07:18 9.7 C 64 %
622 11-03-2019 04:19:17 9.7 C 64 %
623 11-03-2019 04:31:17 9.8 C 64 %
624 11-03-2019 04:43:17 9.8 C 65 %
625 11-03-2019 04:55:17 9.8 C 65 %
Sensor: Nr:Datum:Temp:Feuchte:
G-T/H 626 11-03-2019 05:07:17 9.8 C 65 %
627 11-03-2019 05:19:17 9.8 C 66 %
628 11-03-2019 05:31:17 9.7 C 66 %
629 11-03-2019 05:43:17 9.7 C 66 %
630 11-03-2019 05:55:17 9.7 C 66 %
631 11-03-2019 06:07:18 9.7 C 66 %
632 11-03-2019 06:19:17 9.7 C 66 %
633 11-03-2019 06:31:17 9.7 C 66 %
634 11-03-2019 06:43:17 9.7 C 67 %
635 11-03-2019 06:55:17 9.6 C 67 %
636 11-03-2019 07:07:17 9.6 C 67 %
637 11-03-2019 07:19:17 9.6 C 67 %
638 11-03-2019 07:31:17 9.6 C 67 %
639 11-03-2019 07:43:17 9.5 C 67 %
640 11-03-2019 07:55:17 9.5 C 67 %
641 11-03-2019 08:07:17 9.5 C 67 %
642 11-03-2019 08:19:17 9.5 C 67 %
643 11-03-2019 08:31:18 9.5 C 67 %
644 11-03-2019 08:43:18 9.5 C 67 %
645 11-03-2019 08:55:17 9.5 C 68 %
646 11-03-2019 09:07:17 9.5 C 68 %
647 11-03-2019 09:19:18 9.4 C 68 %
648 11-03-2019 09:31:17 9.4 C 68 %
649 11-03-2019 09:43:17 9.4 C 68 %
650 11-03-2019 09:55:17 9.3 C 68 %
Sensor: Nr:Datum:Temp:Feuchte:
G-T/H 651 11-03-2019 10:07:17 9.4 C 68 %
652 11-03-2019 10:19:17 9.3 C 68 %
653 11-03-2019 10:31:17 9.3 C 68 %
654 11-03-2019 10:43:17 9.3 C 68 %
655 11-03-2019 10:55:17 9.3 C 68 %
656 11-03-2019 11:07:18 9.3 C 68 %
657 11-03-2019 11:19:17 9.3 C 68 %
658 11-03-2019 11:31:17 9.3 C 68 %
659 11-03-2019 11:43:17 9.3 C 68 %
660 11-03-2019 11:55:18 9.3 C 68 %
661 11-03-2019 12:07:17 9.3 C 68 %
662 11-03-2019 12:19:17 9.3 C 68 %
663 11-03-2019 12:31:17 9.3 C 68 %
664 11-03-2019 12:43:17 9.2 C 69 %
665 11-03-2019 12:55:17 9.2 C 69 %
666 11-03-2019 13:07:17 9.2 C 69 %
667 11-03-2019 13:19:17 9.2 C 69 %
668 11-03-2019 13:31:17 9.2 C 69 %
669 11-03-2019 13:43:17 9.2 C 69 %
670 11-03-2019 13:55:17 9.2 C 69 %
671 11-03-2019 14:07:17 9.2 C 69 %
672 11-03-2019 14:19:17 9.2 C 69 %
673 11-03-2019 14:31:17 9.2 C 69 %
674 11-03-2019 14:43:17 9.2 C 69 %
675 11-03-2019 14:55:17 9.2 C 69 %
Sensor: Nr:Datum:Temp:Feuchte:
G-T/H 676 11-03-2019 15:07:17 9.2 C 69 %
677 11-03-2019 15:19:17 9.2 C 69 %
678 11-03-2019 15:31:17 9.2 C 69 %
679 11-03-2019 15:43:17 9.3 C 69 %
680 11-03-2019 15:55:17 9.2 C 69 %
681 11-03-2019 16:07:17 9.2 C 69 %
682 11-03-2019 16:19:17 9.2 C 69 %
683 11-03-2019 16:31:17 9.3 C 69 %
684 11-03-2019 16:43:17 9.3 C 69 %
685 11-03-2019 16:55:17 9.3 C 69 %
686 11-03-2019 17:07:17 9.2 C 69 %
687 11-03-2019 17:19:18 9.3 C 69 %
688 11-03-2019 17:31:17 9.3 C 69 %
689 11-03-2019 17:43:17 9.3 C 69 %
690 11-03-2019 17:55:17 9.3 C 69 %
691 11-03-2019 18:07:18 9.3 C 69 %
692 11-03-2019 18:19:17 9.3 C 69 %
693 11-03-2019 18:31:17 9.3 C 69 %
694 11-03-2019 18:43:17 9.2 C 69 %
695 11-03-2019 18:55:17 9.2 C 69 %
696 11-03-2019 19:07:17 9.3 C 69 %
697 11-03-2019 19:19:17 9.2 C 69 %
698 11-03-2019 19:31:17 9.3 C 69 %
699 11-03-2019 19:43:17 9.3 C 69 %
700 11-03-2019 19:55:17 9.3 C 69 %
Sensor: Nr:Datum:Temp:Feuchte:
G-T/H 701 11-03-2019 20:07:17 9.3 C 69 %
702 11-03-2019 20:19:17 9.3 C 69 %
703 11-03-2019 20:31:17 9.2 C 69 %
704 11-03-2019 20:43:18 9.3 C 69 %
705 11-03-2019 20:55:17 9.2 C 69 %
706 11-03-2019 21:07:17 9.3 C 69 %
707 11-03-2019 21:19:17 9.2 C 69 %
708 11-03-2019 21:31:17 9.2 C 69 %
709 11-03-2019 21:43:17 9.2 C 70 %
710 11-03-2019 21:55:17 9.2 C 70 %
711 11-03-2019 22:07:17 9.2 C 70 %
712 11-03-2019 22:19:17 9.2 C 70 %
713 11-03-2019 22:31:17 9.2 C 70 %
714 11-03-2019 22:43:17 9.2 C 70 %
715 11-03-2019 22:55:17 9.2 C 70 %
716 11-03-2019 23:07:17 9.2 C 70 %
717 11-03-2019 23:19:17 9.2 C 70 %
718 11-03-2019 23:31:18 9.2 C 70 %
719 11-03-2019 23:43:18 9.1 C 70 %
720 11-03-2019 23:55:17 9.1 C 70 %
721 12-03-2019 00:07:17 9.1 C 70 %
722 12-03-2019 00:19:17 9.1 C 70 %
723 12-03-2019 00:31:18 9.1 C 70 %
724 12-03-2019 00:43:18 9.1 C 70 %
725 12-03-2019 00:55:17 9.1 C 70 %
Sensor: Nr:Datum:Temp:Feuchte:
G-T/H 726 12-03-2019 01:07:17 9.1 C 70 %
727 12-03-2019 01:19:17 9.1 C 70 %
728 12-03-2019 01:31:18 9.1 C 69 %
729 12-03-2019 01:43:18 9 C 69 %
730 12-03-2019 01:55:17 9 C 69 %
731 12-03-2019 02:07:17 9 C 69 %
732 12-03-2019 02:19:18 9 C 69 %
733 12-03-2019 02:31:17 9 C 69 %
734 12-03-2019 02:43:17 8.9 C 70 %
735 12-03-2019 02:55:17 8.9 C 70 %
736 12-03-2019 03:07:18 8.9 C 70 %
737 12-03-2019 03:19:17 8.9 C 70 %
738 12-03-2019 03:31:17 8.9 C 70 %
739 12-03-2019 03:43:17 8.9 C 70 %
740 12-03-2019 03:55:17 8.9 C 70 %
741 12-03-2019 04:07:18 8.9 C 70 %
742 12-03-2019 04:19:17 8.8 C 70 %
743 12-03-2019 04:31:17 8.8 C 70 %
744 12-03-2019 04:43:17 8.8 C 70 %
745 12-03-2019 04:55:17 8.8 C 70 %
746 12-03-2019 05:07:17 8.8 C 70 %
747 12-03-2019 05:19:17 8.7 C 70 %
748 12-03-2019 05:31:17 8.7 C 70 %
749 12-03-2019 05:43:17 8.7 C 70 %
750 12-03-2019 05:55:17 8.7 C 70 %
Sensor: Nr:Datum:Temp:Feuchte:
G-T/H 751 12-03-2019 06:07:17 8.7 C 70 %
752 12-03-2019 06:19:17 8.7 C 70 %
753 12-03-2019 06:31:17 8.7 C 70 %
754 12-03-2019 06:43:17 8.7 C 70 %
755 12-03-2019 06:55:18 8.7 C 70 %
756 12-03-2019 07:07:17 8.6 C 70 %
757 12-03-2019 07:19:17 8.6 C 70 %
758 12-03-2019 07:31:17 8.6 C 70 %
759 12-03-2019 07:43:18 8.6 C 70 %
760 12-03-2019 07:55:17 8.6 C 70 %
761 12-03-2019 08:07:17 8.6 C 70 %
762 12-03-2019 08:19:17 8.6 C 70 %
763 12-03-2019 08:31:18 8.6 C 70 %
764 12-03-2019 08:43:18 8.6 C 70 %
765 12-03-2019 08:55:17 8.6 C 70 %
766 12-03-2019 09:07:17 8.6 C 70 %
767 12-03-2019 09:19:18 8.6 C 70 %
768 12-03-2019 09:31:17 8.5 C 70 %
769 12-03-2019 09:43:17 8.6 C 70 %
770 12-03-2019 09:55:17 8.5 C 70 %
771 12-03-2019 10:07:17 8.5 C 70 %
772 12-03-2019 10:19:17 8.6 C 70 %
773 12-03-2019 10:31:17 8.6 C 70 %
774 12-03-2019 10:43:17 8.6 C 70 %
775 12-03-2019 10:55:17 8.6 C 71 %
Sensor: Nr:Datum:Temp:Feuchte:
G-T/H 776 12-03-2019 11:07:17 8.6 C 71 %
777 12-03-2019 11:19:17 8.6 C 71 %
778 12-03-2019 11:31:17 8.6 C 71 %
779 12-03-2019 11:43:17 8.6 C 71 %
780 12-03-2019 11:55:17 8.6 C 71 %
781 12-03-2019 12:07:17 8.6 C 71 %
782 12-03-2019 12:19:17 8.6 C 71 %
783 12-03-2019 12:31:17 8.7 C 71 %
784 12-03-2019 12:43:17 8.7 C 71 %
785 12-03-2019 12:55:17 8.7 C 71 %
786 12-03-2019 13:07:18 8.7 C 71 %
787 12-03-2019 13:19:17 8.7 C 71 %
788 12-03-2019 13:31:17 8.7 C 71 %
789 12-03-2019 13:43:17 8.7 C 71 %
790 12-03-2019 13:55:17 8.7 C 71 %
791 12-03-2019 14:07:17 8.8 C 71 %
792 12-03-2019 14:19:17 8.8 C 71 %
793 12-03-2019 14:31:18 8.8 C 71 %
794 12-03-2019 14:43:18 8.8 C 71 %
795 12-03-2019 14:55:17 8.9 C 71 %
796 12-03-2019 15:07:17 8.9 C 71 %
797 12-03-2019 15:19:17 8.9 C 71 %
798 12-03-2019 15:31:17 8.9 C 71 %
799 12-03-2019 15:43:17 8.9 C 71 %
800 12-03-2019 15:55:17 8.9 C 71 %
Sensor: Nr:Datum:Temp:Feuchte:
G-T/H 801 12-03-2019 16:07:18 9 C 70 %
802 12-03-2019 16:19:17 9 C 70 %
803 12-03-2019 16:31:17 9 C 70 %
804 12-03-2019 16:43:17 9 C 70 %
805 12-03-2019 16:55:17 9 C 71 %
806 12-03-2019 17:07:17 9 C 71 %
807 12-03-2019 17:19:17 9.1 C 71 %
808 12-03-2019 17:31:18 9.1 C 71 %
809 12-03-2019 17:43:18 9.1 C 71 %
810 12-03-2019 17:55:17 9.1 C 71 %
811 12-03-2019 18:07:17 9.1 C 71 %
812 12-03-2019 18:19:17 9.1 C 71 %
813 12-03-2019 18:31:17 9.2 C 71 %
814 12-03-2019 18:43:17 9.2 C 71 %
815 12-03-2019 18:55:17 9.2 C 71 %
816 12-03-2019 19:07:17 9.2 C 71 %
817 12-03-2019 19:19:17 9.2 C 71 %
818 12-03-2019 19:31:17 9.2 C 71 %
819 12-03-2019 19:43:17 9.2 C 71 %
820 12-03-2019 19:55:17 9.3 C 71 %
821 12-03-2019 20:07:17 9.3 C 71 %
822 12-03-2019 20:19:17 9.3 C 71 %
823 12-03-2019 20:31:17 9.3 C 71 %
824 12-03-2019 20:43:17 9.3 C 71 %
825 12-03-2019 20:55:17 9.3 C 71 %
Sensor: Nr:Datum:Temp:Feuchte:
G-T/H 826 12-03-2019 21:07:18 9.3 C 71 %
827 12-03-2019 21:19:17 9.3 C 71 %
828 12-03-2019 21:31:17 9.3 C 71 %
829 12-03-2019 21:43:17 9.3 C 71 %
830 12-03-2019 21:55:17 9.3 C 71 %
831 12-03-2019 22:07:18 9.4 C 71 %
832 12-03-2019 22:19:17 9.4 C 71 %
833 12-03-2019 22:31:17 9.4 C 71 %
834 12-03-2019 22:43:17 9.4 C 71 %
835 12-03-2019 22:55:17 9.4 C 71 %
836 12-03-2019 23:07:17 9.4 C 71 %
837 12-03-2019 23:19:17 9.4 C 71 %
838 12-03-2019 23:31:17 9.4 C 71 %
839 12-03-2019 23:43:17 9.5 C 71 %
840 12-03-2019 23:55:17 9.5 C 71 %
841 13-03-2019 00:07:17 9.5 C 71 %
842 13-03-2019 00:19:17 9.5 C 71 %
843 13-03-2019 00:31:17 9.5 C 71 %
844 13-03-2019 00:43:17 9.5 C 71 %
845 13-03-2019 00:55:17 9.5 C 71 %
846 13-03-2019 01:07:17 9.5 C 71 %
847 13-03-2019 01:19:18 9.5 C 71 %
848 13-03-2019 01:31:17 9.5 C 71 %
849 13-03-2019 01:43:17 9.5 C 71 %
850 13-03-2019 01:55:17 9.5 C 71 %
Sensor: Nr:Datum:Temp:Feuchte:
G-T/H 851 13-03-2019 02:07:18 9.5 C 71 %
852 13-03-2019 02:19:17 9.5 C 71 %
853 13-03-2019 02:31:17 9.5 C 71 %
854 13-03-2019 02:43:17 9.5 C 71 %
855 13-03-2019 02:55:17 9.5 C 71 %
856 13-03-2019 03:07:17 9.4 C 71 %
857 13-03-2019 03:19:17 9.5 C 71 %
858 13-03-2019 03:31:17 9.5 C 71 %
859 13-03-2019 03:43:18 9.5 C 71 %
860 13-03-2019 03:55:17 9.5 C 71 %
861 13-03-2019 04:07:17 9.4 C 71 %
862 13-03-2019 04:19:17 9.4 C 71 %
863 13-03-2019 04:31:17 9.4 C 71 %
864 13-03-2019 04:43:17 9.4 C 71 %
865 13-03-2019 04:55:17 9.4 C 71 %
866 13-03-2019 05:07:17 9.4 C 71 %
867 13-03-2019 05:19:17 9.3 C 71 %
868 13-03-2019 05:31:17 9.3 C 71 %
869 13-03-2019 05:43:17 9.3 C 71 %
870 13-03-2019 05:55:17 9.3 C 71 %
871 13-03-2019 06:07:17 9.3 C 71 %
872 13-03-2019 06:19:17 9.3 C 71 %
873 13-03-2019 06:31:17 9.3 C 71 %
874 13-03-2019 06:43:17 9.3 C 71 %
875 13-03-2019 06:55:18 9.3 C 71 %
Sensor: Nr:Datum:Temp:Feuchte:
G-T/H 876 13-03-2019 07:07:17 9.2 C 71 %
877 13-03-2019 07:19:17 9.2 C 71 %
878 13-03-2019 07:31:17 9.2 C 71 %
879 13-03-2019 07:43:17 9.2 C 71 %
880 13-03-2019 07:55:18 9.2 C 71 %
881 13-03-2019 08:07:17 9.2 C 71 %
882 13-03-2019 08:19:17 9.2 C 71 %
883 13-03-2019 08:31:17 9.2 C 71 %
884 13-03-2019 08:43:18 9.1 C 71 %
885 13-03-2019 08:55:17 9.2 C 71 %
886 13-03-2019 09:07:17 9.2 C 71 %
887 13-03-2019 09:19:17 9.2 C 71 %
888 13-03-2019 09:31:18 9.1 C 71 %
889 13-03-2019 09:43:18 9.1 C 71 %
890 13-03-2019 09:55:17 9.1 C 71 %
891 13-03-2019 10:07:17 9.1 C 71 %
892 13-03-2019 10:19:17 9.1 C 71 %
893 13-03-2019 10:31:17 9.1 C 71 %
894 13-03-2019 10:43:17 9.1 C 71 %
895 13-03-2019 10:55:17 9.1 C 71 %
896 13-03-2019 11:07:17 9.1 C 71 %
897 13-03-2019 11:19:17 9.1 C 71 %
898 13-03-2019 11:31:17 9.1 C 71 %
899 13-03-2019 11:43:17 9.1 C 71 %
900 13-03-2019 11:55:17 9.1 C 71 %
Sensor: Nr:Datum:Temp:Feuchte:
G-T/H 901 13-03-2019 12:07:17 9.1 C 71 %
902 13-03-2019 12:19:17 9.1 C 71 %
903 13-03-2019 12:31:17 9.1 C 71 %
904 13-03-2019 12:43:17 9.2 C 71 %
905 13-03-2019 12:55:17 9.2 C 71 %
906 13-03-2019 13:07:17 9.2 C 71 %
907 13-03-2019 13:19:17 9.2 C 71 %
908 13-03-2019 13:31:17 9.2 C 71 %
909 13-03-2019 13:43:17 9.2 C 71 %
910 13-03-2019 13:55:17 9.2 C 71 %
911 13-03-2019 14:07:18 9.2 C 71 %
912 13-03-2019 14:19:17 9.2 C 71 %
913 13-03-2019 14:31:17 9.3 C 71 %
914 13-03-2019 14:43:17 9.3 C 71 %
915 13-03-2019 14:55:17 9.3 C 71 %
916 13-03-2019 15:07:17 9.3 C 71 %
917 13-03-2019 15:19:17 9.3 C 71 %
918 13-03-2019 15:31:18 9.3 C 71 %
919 13-03-2019 15:43:18 9.3 C 71 %
920 13-03-2019 15:55:17 9.4 C 71 %
921 13-03-2019 16:07:17 9.4 C 71 %
922 13-03-2019 16:19:17 9.4 C 72 %
923 13-03-2019 16:31:17 9.4 C 72 %
924 13-03-2019 16:43:18 9.4 C 72 %
925 13-03-2019 16:55:17 9.4 C 72 %
Sensor: Nr:Datum:Temp:Feuchte:
G-T/H 926 13-03-2019 17:07:17 9.5 C 72 %
927 13-03-2019 17:19:18 9.5 C 72 %
928 13-03-2019 17:31:17 9.5 C 72 %
929 13-03-2019 17:43:17 9.5 C 72 %
930 13-03-2019 17:55:17 9.5 C 72 %
931 13-03-2019 18:07:17 9.5 C 72 %
932 13-03-2019 18:19:17 9.5 C 72 %
933 13-03-2019 18:31:17 9.5 C 72 %
934 13-03-2019 18:43:17 9.5 C 72 %
935 13-03-2019 18:55:17 9.5 C 72 %
936 13-03-2019 19:07:17 9.5 C 72 %
937 13-03-2019 19:19:17 9.5 C 72 %
938 13-03-2019 19:31:17 9.5 C 72 %
939 13-03-2019 19:43:17 9.5 C 72 %
940 13-03-2019 19:55:17 9.5 C 72 %
941 13-03-2019 20:07:17 9.5 C 72 %
942 13-03-2019 20:19:17 9.5 C 72 %
943 13-03-2019 20:31:17 9.5 C 72 %
944 13-03-2019 20:43:17 9.5 C 72 %
945 13-03-2019 20:55:17 9.5 C 72 %
946 13-03-2019 21:07:17 9.5 C 72 %
947 13-03-2019 21:19:17 9.5 C 72 %
948 13-03-2019 21:31:17 9.4 C 72 %
949 13-03-2019 21:43:17 9.5 C 72 %
950 13-03-2019 21:55:17 9.4 C 72 %
Sensor: Nr:Datum:Temp:Feuchte:
G-T/H 951 13-03-2019 22:07:17 9.5 C 72 %
952 13-03-2019 22:19:17 9.4 C 72 %
953 13-03-2019 22:31:18 9.4 C 72 %
954 13-03-2019 22:43:18 9.4 C 72 %
955 13-03-2019 22:55:17 9.4 C 72 %
956 13-03-2019 23:07:17 9.4 C 72 %
957 13-03-2019 23:19:17 9.4 C 72 %
958 13-03-2019 23:31:18 9.4 C 72 %
959 13-03-2019 23:43:18 9.3 C 72 %
960 13-03-2019 23:55:17 9.3 C 72 %
961 14-03-2019 00:07:17 9.3 C 72 %
962 14-03-2019 00:19:17 9.3 C 72 %
963 14-03-2019 00:31:17 9.4 C 72 %
964 14-03-2019 00:43:17 9.3 C 72 %
965 14-03-2019 00:55:17 9.3 C 72 %
966 14-03-2019 01:07:17 9.3 C 72 %
967 14-03-2019 01:19:17 9.3 C 72 %
968 14-03-2019 01:31:17 9.3 C 72 %
969 14-03-2019 01:43:17 9.2 C 72 %
970 14-03-2019 01:55:17 9.3 C 72 %
971 14-03-2019 02:07:17 9.2 C 72 %
972 14-03-2019 02:19:18 9.2 C 72 %
973 14-03-2019 02:31:17 9.2 C 72 %
974 14-03-2019 02:43:17 9.2 C 72 %
975 14-03-2019 02:55:17 9.2 C 72 %
Sensor: Nr:Datum:Temp:Feuchte:
G-T/H 976 14-03-2019 03:07:17 9.2 C 72 %
977 14-03-2019 03:19:17 9.2 C 72 %
978 14-03-2019 03:31:17 9.1 C 72 %
979 14-03-2019 03:43:17 9.2 C 72 %
980 14-03-2019 03:55:17 9.1 C 72 %
981 14-03-2019 04:07:17 9.1 C 72 %
982 14-03-2019 04:19:17 9.1 C 72 %
983 14-03-2019 04:31:17 9.1 C 72 %
984 14-03-2019 04:43:17 9.1 C 72 %
985 14-03-2019 04:55:17 9.1 C 72 %
986 14-03-2019 05:07:17 9.1 C 72 %
987 14-03-2019 05:19:17 9.1 C 72 %
988 14-03-2019 05:31:17 9.1 C 72 %
989 14-03-2019 05:43:17 9.1 C 72 %
990 14-03-2019 05:55:17 9.1 C 72 %
991 14-03-2019 06:07:17 9.1 C 72 %
992 14-03-2019 06:19:17 9.1 C 72 %
993 14-03-2019 06:31:18 9.1 C 72 %
994 14-03-2019 06:43:18 9.1 C 72 %
995 14-03-2019 06:55:17 9 C 72 %
996 14-03-2019 07:07:17 9 C 72 %
997 14-03-2019 07:19:17 9 C 72 %
998 14-03-2019 07:31:17 9 C 72 %
999 14-03-2019 07:43:17 9 C 72 %
1000 14-03-2019 07:55:17 9 C 72 %
Sensor: Nr:Datum:Temp:Feuchte:
G-T/H 1001 14-03-2019 08:07:17 9 C 72 %
1002 14-03-2019 08:19:17 9 C 72 %
1003 14-03-2019 08:31:17 9 C 72 %
1004 14-03-2019 08:43:17 9 C 72 %
1005 14-03-2019 08:55:17 9 C 72 %
1006 14-03-2019 09:07:18 9 C 72 %
1007 14-03-2019 09:19:17 9 C 72 %
1008 14-03-2019 09:31:17 9 C 72 %
1009 14-03-2019 09:43:17 9 C 72 %
1010 14-03-2019 09:55:17 9 C 72 %
1011 14-03-2019 10:07:18 9 C 72 %
1012 14-03-2019 10:19:17 9 C 72 %
1013 14-03-2019 10:31:17 9 C 72 %
1014 14-03-2019 10:43:18 9 C 72 %
1015 14-03-2019 10:55:17 9 C 72 %
1016 14-03-2019 11:07:17 9 C 72 %
1017 14-03-2019 11:19:18 9 C 72 %
1018 14-03-2019 11:31:17 9 C 72 %
1019 14-03-2019 11:43:17 9 C 72 %
1020 14-03-2019 11:55:17 9 C 72 %
1021 14-03-2019 12:07:18 9 C 72 %
1022 14-03-2019 12:19:17 9 C 72 %
1023 14-03-2019 12:31:17 9 C 72 %
1024 14-03-2019 12:43:17 9 C 72 %
1025 14-03-2019 12:55:17 9 C 72 %
Sensor: Nr:Datum:Temp:Feuchte:
G-T/H 1026 14-03-2019 13:07:17 9 C 72 %
1027 14-03-2019 13:19:17 9 C 72 %
1028 14-03-2019 13:31:18 9 C 72 %
1029 14-03-2019 13:43:18 9 C 72 %
1030 14-03-2019 13:55:17 9 C 72 %
1031 14-03-2019 14:07:17 9 C 72 %
1032 14-03-2019 14:19:17 9 C 72 %
1033 14-03-2019 14:31:17 9 C 72 %
1034 14-03-2019 14:43:17 9 C 72 %
1035 14-03-2019 14:55:17 9.1 C 72 %
1036 14-03-2019 15:07:18 9.1 C 73 %
1037 14-03-2019 15:19:17 9.1 C 73 %
1038 14-03-2019 15:31:17 9.1 C 73 %
1039 14-03-2019 15:43:17 9.1 C 73 %
1040 14-03-2019 15:55:17 9.1 C 73 %
1041 14-03-2019 16:07:17 9.1 C 73 %
1042 14-03-2019 16:19:17 9.1 C 73 %
1043 14-03-2019 16:31:18 9.1 C 73 %
1044 14-03-2019 16:43:18 9.1 C 73 %
1045 14-03-2019 16:55:17 9.2 C 73 %
1046 14-03-2019 17:07:17 9.1 C 73 %
1047 14-03-2019 17:19:18 9.2 C 73 %
1048 14-03-2019 17:31:17 9.2 C 73 %
1049 14-03-2019 17:43:17 9.2 C 73 %
1050 14-03-2019 17:55:17 9.2 C 73 %
Sensor: Nr:Datum:Temp:Feuchte:
G-T/H 1051 14-03-2019 18:07:17 9.2 C 73 %
1052 14-03-2019 18:19:17 9.2 C 73 %
1053 14-03-2019 18:31:18 9.2 C 73 %
1054 14-03-2019 18:43:18 9.2 C 73 %
1055 14-03-2019 18:55:17 9.2 C 73 %
1056 14-03-2019 19:07:17 9.2 C 73 %
1057 14-03-2019 19:19:18 9.2 C 73 %
1058 14-03-2019 19:31:17 9.2 C 73 %
1059 14-03-2019 19:43:17 9.2 C 73 %
1060 14-03-2019 19:55:17 9.3 C 73 %
1061 14-03-2019 20:07:18 9.2 C 73 %
1062 14-03-2019 20:19:17 9.3 C 73 %
1063 14-03-2019 20:31:17 9.2 C 73 %
1064 14-03-2019 20:43:17 9.2 C 73 %
1065 14-03-2019 20:55:18 9.3 C 73 %
1066 14-03-2019 21:07:17 9.2 C 73 %
1067 14-03-2019 21:19:17 9.3 C 73 %
1068 14-03-2019 21:31:17 9.3 C 73 %
1069 14-03-2019 21:43:17 9.3 C 73 %
1070 14-03-2019 21:55:17 9.3 C 73 %
1071 14-03-2019 22:07:17 9.3 C 73 %
1072 14-03-2019 22:19:17 9.3 C 73 %
1073 14-03-2019 22:31:17 9.3 C 73 %
1074 14-03-2019 22:43:17 9.3 C 73 %
1075 14-03-2019 22:55:17 9.3 C 73 %
Sensor: Nr:Datum:Temp:Feuchte:
G-T/H 1076 14-03-2019 23:07:18 9.3 C 73 %
1077 14-03-2019 23:19:17 9.3 C 73 %
1078 14-03-2019 23:31:17 9.3 C 73 %
1079 14-03-2019 23:43:17 9.3 C 73 %
1080 14-03-2019 23:55:17 9.3 C 73 %
1081 15-03-2019 00:07:17 9.3 C 73 %
1082 15-03-2019 00:19:17 9.3 C 73 %
1083 15-03-2019 00:31:17 9.3 C 73 %
1084 15-03-2019 00:43:17 9.3 C 73 %
1085 15-03-2019 00:55:17 9.3 C 73 %
1086 15-03-2019 01:07:17 9.3 C 73 %
1087 15-03-2019 01:19:17 9.3 C 73 %
1088 15-03-2019 01:31:17 9.3 C 73 %
1089 15-03-2019 01:43:17 9.3 C 73 %
1090 15-03-2019 01:55:17 9.3 C 73 %
1091 15-03-2019 02:07:17 9.2 C 73 %
1092 15-03-2019 02:19:17 9.2 C 73 %
1093 15-03-2019 02:31:17 9.2 C 73 %
1094 15-03-2019 02:43:17 9.2 C 73 %
1095 15-03-2019 02:55:18 9.2 C 73 %
1096 15-03-2019 03:07:17 9.2 C 73 %
1097 15-03-2019 03:19:17 9.2 C 73 %
1098 15-03-2019 03:31:17 9.2 C 73 %
1099 15-03-2019 03:43:18 9.2 C 73 %
1100 15-03-2019 03:55:17 9.2 C 73 %
Sensor: Nr:Datum:Temp:Feuchte:
G-T/H 1101 15-03-2019 04:07:17 9.2 C 73 %
1102 15-03-2019 04:19:17 9.2 C 73 %
1103 15-03-2019 04:31:18 9.2 C 73 %
1104 15-03-2019 04:43:18 9.2 C 73 %
1105 15-03-2019 04:55:17 9.2 C 73 %
1106 15-03-2019 05:07:17 9.2 C 73 %
1107 15-03-2019 05:19:18 9.2 C 73 %
1108 15-03-2019 05:31:17 9.2 C 73 %
1109 15-03-2019 05:43:17 9.2 C 73 %
1110 15-03-2019 05:55:17 9.2 C 73 %
1111 15-03-2019 06:07:17 9.2 C 73 %
1112 15-03-2019 06:19:18 9.2 C 73 %
1113 15-03-2019 06:31:17 9.2 C 73 %
1114 15-03-2019 06:43:17 9.2 C 73 %
1115 15-03-2019 06:55:17 9.3 C 73 %
1116 15-03-2019 07:07:17 9.2 C 73 %
1117 15-03-2019 07:19:17 9.2 C 73 %
1118 15-03-2019 07:31:17 9.2 C 73 %
1119 15-03-2019 07:43:17 9.2 C 73 %
1120 15-03-2019 07:55:17 9.2 C 73 %
1121 15-03-2019 08:07:17 9.2 C 73 %
1122 15-03-2019 08:19:17 9.2 C 73 %
1123 15-03-2019 08:31:17 9.2 C 73 %
1124 15-03-2019 08:43:17 9.2 C 73 %
1125 15-03-2019 08:55:17 9.2 C 73 %
Sensor: Nr:Datum:Temp:Feuchte:
G-T/H 1126 15-03-2019 09:07:18 9.2 C 74 %
1127 15-03-2019 09:19:17 9.2 C 74 %
1128 15-03-2019 09:31:17 9.2 C 74 %
1129 15-03-2019 09:43:17 9.2 C 74 %
1130 15-03-2019 09:55:17 9.2 C 74 %
1131 15-03-2019 10:07:17 9.2 C 74 %
1132 15-03-2019 10:19:17 9.2 C 74 %
1133 15-03-2019 10:31:17 9.2 C 74 %
1134 15-03-2019 10:43:17 9.2 C 74 %
1135 15-03-2019 10:55:17 9.2 C 74 %
1136 15-03-2019 11:07:17 9.2 C 74 %
1137 15-03-2019 11:19:17 9.2 C 74 %
1138 15-03-2019 11:31:17 9.3 C 74 %
1139 15-03-2019 11:43:17 9.3 C 74 %
1140 15-03-2019 11:55:17 9.3 C 74 %
1141 15-03-2019 12:07:17 9.3 C 74 %
1142 15-03-2019 12:19:17 9.3 C 74 %
1143 15-03-2019 12:31:17 9.3 C 74 %
1144 15-03-2019 12:43:17 9.4 C 74 %
1145 15-03-2019 12:55:17 9.4 C 74 %
1146 15-03-2019 13:07:17 9.4 C 74 %
1147 15-03-2019 13:19:17 9.4 C 75 %
1148 15-03-2019 13:31:17 9.5 C 75 %
1149 15-03-2019 13:43:17 9.5 C 75 %
1150 15-03-2019 13:55:17 9.9 C 76 %
Sensor: Nr:Datum:Temp:Feuchte:
G-T/H 1151 15-03-2019 14:07:18 10.4 C 75 %
1152 15-03-2019 14:19:17 10.5 C 75 %
1153 15-03-2019 14:31:17 10.6 C 75 %
1154 15-03-2019 14:43:17 10.8 C 75 %
1155 15-03-2019 14:55:17 10.8 C 75 %
1156 15-03-2019 15:07:18 11 C 75 %
1157 15-03-2019 15:19:17 11 C 75 %
1158 15-03-2019 15:31:17 11 C 75 %
1159 15-03-2019 15:43:17 11 C 75 %
1160 15-03-2019 15:55:18 11.1 C 75 %
1161 15-03-2019 16:07:17 11.1 C 75 %
1162 15-03-2019 16:19:17 11.1 C 75 %
1163 15-03-2019 16:31:18 11.2 C 75 %
1164 15-03-2019 16:43:18 11.2 C 75 %
1165 15-03-2019 16:55:17 11.2 C 75 %
1166 15-03-2019 17:07:17 11.2 C 75 %
1167 15-03-2019 17:19:17 11.3 C 75 %
1168 15-03-2019 17:31:17 11.2 C 75 %
1169 15-03-2019 17:43:17 11.2 C 75 %
1170 15-03-2019 17:55:17 11.2 C 75 %
1171 15-03-2019 18:07:17 11.2 C 75 %
1172 15-03-2019 18:19:17 11.2 C 75 %
1173 15-03-2019 18:31:18 11.3 C 75 %
1174 15-03-2019 18:43:18 11.2 C 75 %
1175 15-03-2019 18:55:17 11.2 C 75 %
Sensor: Nr:Datum:Temp:Feuchte:
G-T/H 1176 15-03-2019 19:07:17 11.3 C 75 %
1177 15-03-2019 19:19:17 11.3 C 74 %
1178 15-03-2019 19:31:17 11.3 C 74 %
1179 15-03-2019 19:43:17 11.3 C 74 %
1180 15-03-2019 19:55:17 11.3 C 75 %
1181 15-03-2019 20:07:17 11.3 C 75 %
1182 15-03-2019 20:19:17 11.2 C 75 %
1183 15-03-2019 20:31:17 11.2 C 75 %
1184 15-03-2019 20:43:17 11.2 C 75 %
1185 15-03-2019 20:55:17 11.2 C 75 %
1186 15-03-2019 21:07:17 11.3 C 75 %
1187 15-03-2019 21:19:17 11.3 C 75 %
1188 15-03-2019 21:31:17 11.3 C 75 %
1189 15-03-2019 21:43:17 11.4 C 75 %
1190 15-03-2019 21:55:17 11.3 C 75 %
1191 15-03-2019 22:07:17 11.3 C 75 %
1192 15-03-2019 22:19:17 11.4 C 75 %
1193 15-03-2019 22:31:17 11.4 C 75 %
1194 15-03-2019 22:43:17 11.4 C 75 %
1195 15-03-2019 22:55:17 11.4 C 75 %
1196 15-03-2019 23:07:17 11.3 C 75 %
1197 15-03-2019 23:19:17 11.3 C 75 %
1198 15-03-2019 23:31:17 11.3 C 75 %
1199